<?xml version="1.0" encoding="UTF-8" standalone="no" ?>
<gpx xmlns="http://www.topografix.com/GPX/1/1" xmlns:xsi="http://www.w3.org/2001/XMLSchema-instance" xsi:schemaLocation="http://www.topografix.com/GPX/1/1 http://www.topografix.com/GPX/1/1/gpx.xsd" version="1.1" creator="VisuGPX - https://www.visugpx.com">
  <metadata>
    <name>17-JUIN-12 18:21:54</name>
  </metadata>
  <trk>
    <name><![CDATA[17-JUIN-12 18:21:54]]></name>
    <extensions>
      <line xmlns="http://www.topografix.com/GPX/gpx_style/0/2">
        <color>0000FF</color>
        <width>4</width>
      </line>
    </extensions>
    <trkseg>
      <trkpt lat="48.62125" lon="6.04598">
        <ele>149.14</ele>
        <time>2012-06-17T13:23:50Z</time>
      </trkpt>
      <trkpt lat="48.6212" lon="6.04598">
        <ele>148.66</ele>
        <time>2012-06-17T13:24:01Z</time>
      </trkpt>
      <trkpt lat="48.62118" lon="6.04594">
        <ele>150.58</ele>
        <time>2012-06-17T13:24:04Z</time>
      </trkpt>
      <trkpt lat="48.62116" lon="6.04591">
        <ele>148.66</ele>
        <time>2012-06-17T13:24:07Z</time>
      </trkpt>
      <trkpt lat="48.62113" lon="6.04585">
        <ele>151.06</ele>
        <time>2012-06-17T13:24:13Z</time>
      </trkpt>
      <trkpt lat="48.62111" lon="6.04582">
        <ele>149.62</ele>
        <time>2012-06-17T13:24:16Z</time>
      </trkpt>
      <trkpt lat="48.62109" lon="6.04578">
        <ele>151.54</ele>
        <time>2012-06-17T13:24:19Z</time>
      </trkpt>
      <trkpt lat="48.62102" lon="6.04569">
        <ele>151.54</ele>
        <time>2012-06-17T13:24:27Z</time>
      </trkpt>
      <trkpt lat="48.621" lon="6.04567">
        <ele>152.03</ele>
        <time>2012-06-17T13:24:29Z</time>
      </trkpt>
      <trkpt lat="48.62096" lon="6.04559">
        <ele>151.06</ele>
        <time>2012-06-17T13:24:35Z</time>
      </trkpt>
      <trkpt lat="48.62094" lon="6.04557">
        <ele>150.58</ele>
        <time>2012-06-17T13:24:37Z</time>
      </trkpt>
      <trkpt lat="48.62092" lon="6.04555">
        <ele>152.51</ele>
        <time>2012-06-17T13:24:39Z</time>
      </trkpt>
      <trkpt lat="48.62081" lon="6.04544">
        <ele>153.47</ele>
        <time>2012-06-17T13:24:52Z</time>
      </trkpt>
      <trkpt lat="48.62078" lon="6.04541">
        <ele>151.54</ele>
        <time>2012-06-17T13:24:55Z</time>
      </trkpt>
      <trkpt lat="48.62073" lon="6.04535">
        <ele>157.79</ele>
        <time>2012-06-17T13:25:00Z</time>
      </trkpt>
      <trkpt lat="48.62071" lon="6.04533">
        <ele>163.08</ele>
        <time>2012-06-17T13:25:02Z</time>
      </trkpt>
      <trkpt lat="48.62069" lon="6.04531">
        <ele>166.93</ele>
        <time>2012-06-17T13:25:04Z</time>
      </trkpt>
      <trkpt lat="48.62066" lon="6.04529">
        <ele>171.73</ele>
        <time>2012-06-17T13:25:07Z</time>
      </trkpt>
      <trkpt lat="48.62062" lon="6.04526">
        <ele>179.42</ele>
        <time>2012-06-17T13:25:10Z</time>
      </trkpt>
      <trkpt lat="48.62061" lon="6.04526">
        <ele>180.38</ele>
        <time>2012-06-17T13:25:11Z</time>
      </trkpt>
      <trkpt lat="48.62056" lon="6.04525">
        <ele>186.15</ele>
        <time>2012-06-17T13:25:14Z</time>
      </trkpt>
      <trkpt lat="48.62055" lon="6.04524">
        <ele>186.15</ele>
        <time>2012-06-17T13:25:15Z</time>
      </trkpt>
      <trkpt lat="48.62051" lon="6.04523">
        <ele>191.44</ele>
        <time>2012-06-17T13:25:18Z</time>
      </trkpt>
      <trkpt lat="48.62048" lon="6.04522">
        <ele>194.8</ele>
        <time>2012-06-17T13:25:20Z</time>
      </trkpt>
      <trkpt lat="48.62045" lon="6.04522">
        <ele>195.77</ele>
        <time>2012-06-17T13:25:22Z</time>
      </trkpt>
      <trkpt lat="48.62043" lon="6.04522">
        <ele>199.13</ele>
        <time>2012-06-17T13:25:23Z</time>
      </trkpt>
      <trkpt lat="48.62037" lon="6.0452">
        <ele>204.42</ele>
        <time>2012-06-17T13:25:28Z</time>
      </trkpt>
      <trkpt lat="48.62032" lon="6.04517">
        <ele>210.19</ele>
        <time>2012-06-17T13:25:33Z</time>
      </trkpt>
      <trkpt lat="48.6203" lon="6.04517">
        <ele>213.07</ele>
        <time>2012-06-17T13:25:35Z</time>
      </trkpt>
      <trkpt lat="48.62029" lon="6.04517">
        <ele>212.59</ele>
        <time>2012-06-17T13:25:36Z</time>
      </trkpt>
      <trkpt lat="48.62027" lon="6.04516">
        <ele>211.63</ele>
        <time>2012-06-17T13:25:40Z</time>
      </trkpt>
      <trkpt lat="48.62024" lon="6.04514">
        <ele>209.7</ele>
        <time>2012-06-17T13:25:43Z</time>
      </trkpt>
      <trkpt lat="48.62016" lon="6.04501">
        <ele>213.55</ele>
        <time>2012-06-17T13:25:54Z</time>
      </trkpt>
      <trkpt lat="48.62013" lon="6.0449">
        <ele>216.91</ele>
        <time>2012-06-17T13:26:00Z</time>
      </trkpt>
      <trkpt lat="48.62013" lon="6.04488">
        <ele>216.91</ele>
        <time>2012-06-17T13:26:01Z</time>
      </trkpt>
      <trkpt lat="48.62013" lon="6.04485">
        <ele>219.8</ele>
        <time>2012-06-17T13:26:03Z</time>
      </trkpt>
      <trkpt lat="48.62013" lon="6.04484">
        <ele>219.8</ele>
        <time>2012-06-17T13:26:04Z</time>
      </trkpt>
      <trkpt lat="48.62013" lon="6.04483">
        <ele>219.8</ele>
        <time>2012-06-17T13:26:05Z</time>
      </trkpt>
      <trkpt lat="48.62012" lon="6.04478">
        <ele>223.16</ele>
        <time>2012-06-17T13:26:08Z</time>
      </trkpt>
      <trkpt lat="48.6201" lon="6.04473">
        <ele>225.57</ele>
        <time>2012-06-17T13:26:11Z</time>
      </trkpt>
      <trkpt lat="48.62009" lon="6.04466">
        <ele>227.01</ele>
        <time>2012-06-17T13:26:15Z</time>
      </trkpt>
      <trkpt lat="48.62008" lon="6.04461">
        <ele>230.37</ele>
        <time>2012-06-17T13:26:18Z</time>
      </trkpt>
      <trkpt lat="48.62004" lon="6.04453">
        <ele>231.81</ele>
        <time>2012-06-17T13:26:24Z</time>
      </trkpt>
      <trkpt lat="48.62" lon="6.04448">
        <ele>234.7</ele>
        <time>2012-06-17T13:26:28Z</time>
      </trkpt>
      <trkpt lat="48.61997" lon="6.04444">
        <ele>237.1</ele>
        <time>2012-06-17T13:26:31Z</time>
      </trkpt>
      <trkpt lat="48.61996" lon="6.04439">
        <ele>235.18</ele>
        <time>2012-06-17T13:26:34Z</time>
      </trkpt>
      <trkpt lat="48.61993" lon="6.04435">
        <ele>238.54</ele>
        <time>2012-06-17T13:26:37Z</time>
      </trkpt>
      <trkpt lat="48.61985" lon="6.04422">
        <ele>242.39</ele>
        <time>2012-06-17T13:26:48Z</time>
      </trkpt>
      <trkpt lat="48.61984" lon="6.04421">
        <ele>242.87</ele>
        <time>2012-06-17T13:26:49Z</time>
      </trkpt>
      <trkpt lat="48.61978" lon="6.04414">
        <ele>242.39</ele>
        <time>2012-06-17T13:26:55Z</time>
      </trkpt>
      <trkpt lat="48.61976" lon="6.04409">
        <ele>244.79</ele>
        <time>2012-06-17T13:26:58Z</time>
      </trkpt>
      <trkpt lat="48.61968" lon="6.04397">
        <ele>246.72</ele>
        <time>2012-06-17T13:27:08Z</time>
      </trkpt>
      <trkpt lat="48.61966" lon="6.04394">
        <ele>247.2</ele>
        <time>2012-06-17T13:27:10Z</time>
      </trkpt>
      <trkpt lat="48.61962" lon="6.0439">
        <ele>244.31</ele>
        <time>2012-06-17T13:27:14Z</time>
      </trkpt>
      <trkpt lat="48.61962" lon="6.04389">
        <ele>248.16</ele>
        <time>2012-06-17T13:27:15Z</time>
      </trkpt>
      <trkpt lat="48.6196" lon="6.04386">
        <ele>244.79</ele>
        <time>2012-06-17T13:27:17Z</time>
      </trkpt>
      <trkpt lat="48.61957" lon="6.04379">
        <ele>249.12</ele>
        <time>2012-06-17T13:27:21Z</time>
      </trkpt>
      <trkpt lat="48.61955" lon="6.04374">
        <ele>245.27</ele>
        <time>2012-06-17T13:27:24Z</time>
      </trkpt>
      <trkpt lat="48.61954" lon="6.04371">
        <ele>248.64</ele>
        <time>2012-06-17T13:27:26Z</time>
      </trkpt>
      <trkpt lat="48.61952" lon="6.04365">
        <ele>249.12</ele>
        <time>2012-06-17T13:27:29Z</time>
      </trkpt>
      <trkpt lat="48.61942" lon="6.04346">
        <ele>246.72</ele>
        <time>2012-06-17T13:27:42Z</time>
      </trkpt>
      <trkpt lat="48.61941" lon="6.04343">
        <ele>250.56</ele>
        <time>2012-06-17T13:27:44Z</time>
      </trkpt>
      <trkpt lat="48.61939" lon="6.04338">
        <ele>251.52</ele>
        <time>2012-06-17T13:27:46Z</time>
      </trkpt>
      <trkpt lat="48.61938" lon="6.04335">
        <ele>247.68</ele>
        <time>2012-06-17T13:27:48Z</time>
      </trkpt>
      <trkpt lat="48.61936" lon="6.04333">
        <ele>251.04</ele>
        <time>2012-06-17T13:27:50Z</time>
      </trkpt>
      <trkpt lat="48.61928" lon="6.04318">
        <ele>250.08</ele>
        <time>2012-06-17T13:28:02Z</time>
      </trkpt>
      <trkpt lat="48.61926" lon="6.04315">
        <ele>252.96</ele>
        <time>2012-06-17T13:28:04Z</time>
      </trkpt>
      <trkpt lat="48.61925" lon="6.04313">
        <ele>250.56</ele>
        <time>2012-06-17T13:28:06Z</time>
      </trkpt>
      <trkpt lat="48.61924" lon="6.04312">
        <ele>250.56</ele>
        <time>2012-06-17T13:28:07Z</time>
      </trkpt>
      <trkpt lat="48.61921" lon="6.04305">
        <ele>253.93</ele>
        <time>2012-06-17T13:28:13Z</time>
      </trkpt>
      <trkpt lat="48.6192" lon="6.04302">
        <ele>251.04</ele>
        <time>2012-06-17T13:28:15Z</time>
      </trkpt>
      <trkpt lat="48.61919" lon="6.04299">
        <ele>253.93</ele>
        <time>2012-06-17T13:28:17Z</time>
      </trkpt>
      <trkpt lat="48.61919" lon="6.04297">
        <ele>254.41</ele>
        <time>2012-06-17T13:28:18Z</time>
      </trkpt>
      <trkpt lat="48.61915" lon="6.04291">
        <ele>252</ele>
        <time>2012-06-17T13:28:23Z</time>
      </trkpt>
      <trkpt lat="48.61914" lon="6.04284">
        <ele>254.89</ele>
        <time>2012-06-17T13:28:27Z</time>
      </trkpt>
      <trkpt lat="48.61906" lon="6.04271">
        <ele>254.41</ele>
        <time>2012-06-17T13:28:37Z</time>
      </trkpt>
      <trkpt lat="48.61905" lon="6.04268">
        <ele>252.96</ele>
        <time>2012-06-17T13:28:40Z</time>
      </trkpt>
      <trkpt lat="48.61902" lon="6.0426">
        <ele>255.85</ele>
        <time>2012-06-17T13:28:47Z</time>
      </trkpt>
      <trkpt lat="48.61898" lon="6.04243">
        <ele>252.96</ele>
        <time>2012-06-17T13:28:59Z</time>
      </trkpt>
      <trkpt lat="48.61897" lon="6.04241">
        <ele>255.85</ele>
        <time>2012-06-17T13:29:00Z</time>
      </trkpt>
      <trkpt lat="48.61895" lon="6.04235">
        <ele>252.96</ele>
        <time>2012-06-17T13:29:04Z</time>
      </trkpt>
      <trkpt lat="48.61895" lon="6.04234">
        <ele>256.81</ele>
        <time>2012-06-17T13:29:05Z</time>
      </trkpt>
      <trkpt lat="48.6189" lon="6.04206">
        <ele>260.17</ele>
        <time>2012-06-17T13:29:21Z</time>
      </trkpt>
      <trkpt lat="48.6189" lon="6.04203">
        <ele>255.85</ele>
        <time>2012-06-17T13:29:23Z</time>
      </trkpt>
      <trkpt lat="48.6189" lon="6.04202">
        <ele>257.29</ele>
        <time>2012-06-17T13:29:24Z</time>
      </trkpt>
      <trkpt lat="48.6189" lon="6.042">
        <ele>260.17</ele>
        <time>2012-06-17T13:29:25Z</time>
      </trkpt>
      <trkpt lat="48.61889" lon="6.04194">
        <ele>256.33</ele>
        <time>2012-06-17T13:29:28Z</time>
      </trkpt>
      <trkpt lat="48.61889" lon="6.04193">
        <ele>259.21</ele>
        <time>2012-06-17T13:29:29Z</time>
      </trkpt>
      <trkpt lat="48.61889" lon="6.04187">
        <ele>261.14</ele>
        <time>2012-06-17T13:29:32Z</time>
      </trkpt>
      <trkpt lat="48.61888" lon="6.04182">
        <ele>256.33</ele>
        <time>2012-06-17T13:29:35Z</time>
      </trkpt>
      <trkpt lat="48.61888" lon="6.0418">
        <ele>260.65</ele>
        <time>2012-06-17T13:29:36Z</time>
      </trkpt>
      <trkpt lat="48.61889" lon="6.04175">
        <ele>261.62</ele>
        <time>2012-06-17T13:29:38Z</time>
      </trkpt>
      <trkpt lat="48.61889" lon="6.04174">
        <ele>257.29</ele>
        <time>2012-06-17T13:29:39Z</time>
      </trkpt>
      <trkpt lat="48.61889" lon="6.04172">
        <ele>260.17</ele>
        <time>2012-06-17T13:29:40Z</time>
      </trkpt>
      <trkpt lat="48.6189" lon="6.04156">
        <ele>263.54</ele>
        <time>2012-06-17T13:29:50Z</time>
      </trkpt>
      <trkpt lat="48.6189" lon="6.04152">
        <ele>259.69</ele>
        <time>2012-06-17T13:29:53Z</time>
      </trkpt>
      <trkpt lat="48.6189" lon="6.04148">
        <ele>263.06</ele>
        <time>2012-06-17T13:29:56Z</time>
      </trkpt>
      <trkpt lat="48.6189" lon="6.04137">
        <ele>261.14</ele>
        <time>2012-06-17T13:30:02Z</time>
      </trkpt>
      <trkpt lat="48.6189" lon="6.04133">
        <ele>263.06</ele>
        <time>2012-06-17T13:30:05Z</time>
      </trkpt>
      <trkpt lat="48.61891" lon="6.04125">
        <ele>262.1</ele>
        <time>2012-06-17T13:30:10Z</time>
      </trkpt>
      <trkpt lat="48.61892" lon="6.04119">
        <ele>263.06</ele>
        <time>2012-06-17T13:30:13Z</time>
      </trkpt>
      <trkpt lat="48.61892" lon="6.04112">
        <ele>261.62</ele>
        <time>2012-06-17T13:30:18Z</time>
      </trkpt>
      <trkpt lat="48.61892" lon="6.04105">
        <ele>263.54</ele>
        <time>2012-06-17T13:30:22Z</time>
      </trkpt>
      <trkpt lat="48.61893" lon="6.04096">
        <ele>262.58</ele>
        <time>2012-06-17T13:30:27Z</time>
      </trkpt>
      <trkpt lat="48.61894" lon="6.04091">
        <ele>263.54</ele>
        <time>2012-06-17T13:30:30Z</time>
      </trkpt>
      <trkpt lat="48.61895" lon="6.0407">
        <ele>264.02</ele>
        <time>2012-06-17T13:30:41Z</time>
      </trkpt>
      <trkpt lat="48.61896" lon="6.04059">
        <ele>263.54</ele>
        <time>2012-06-17T13:30:48Z</time>
      </trkpt>
      <trkpt lat="48.61902" lon="6.04044">
        <ele>261.62</ele>
        <time>2012-06-17T13:30:59Z</time>
      </trkpt>
      <trkpt lat="48.61905" lon="6.04027">
        <ele>261.62</ele>
        <time>2012-06-17T13:31:11Z</time>
      </trkpt>
      <trkpt lat="48.61906" lon="6.04026">
        <ele>261.62</ele>
        <time>2012-06-17T13:31:12Z</time>
      </trkpt>
      <trkpt lat="48.61908" lon="6.04021">
        <ele>261.62</ele>
        <time>2012-06-17T13:31:16Z</time>
      </trkpt>
      <trkpt lat="48.61909" lon="6.04016">
        <ele>262.58</ele>
        <time>2012-06-17T13:31:20Z</time>
      </trkpt>
      <trkpt lat="48.61909" lon="6.04013">
        <ele>262.58</ele>
        <time>2012-06-17T13:31:24Z</time>
      </trkpt>
      <trkpt lat="48.61918" lon="6.04003">
        <ele>261.14</ele>
        <time>2012-06-17T13:31:31Z</time>
      </trkpt>
      <trkpt lat="48.61934" lon="6.03984">
        <ele>260.17</ele>
        <time>2012-06-17T13:31:46Z</time>
      </trkpt>
      <trkpt lat="48.6194" lon="6.03978">
        <ele>260.17</ele>
        <time>2012-06-17T13:31:52Z</time>
      </trkpt>
      <trkpt lat="48.61966" lon="6.03958">
        <ele>259.21</ele>
        <time>2012-06-17T13:32:09Z</time>
      </trkpt>
      <trkpt lat="48.61968" lon="6.03954">
        <ele>259.21</ele>
        <time>2012-06-17T13:32:12Z</time>
      </trkpt>
      <trkpt lat="48.61984" lon="6.03936">
        <ele>258.73</ele>
        <time>2012-06-17T13:32:26Z</time>
      </trkpt>
      <trkpt lat="48.61986" lon="6.03931">
        <ele>258.25</ele>
        <time>2012-06-17T13:32:31Z</time>
      </trkpt>
      <trkpt lat="48.61989" lon="6.03926">
        <ele>259.21</ele>
        <time>2012-06-17T13:32:35Z</time>
      </trkpt>
      <trkpt lat="48.61997" lon="6.03917">
        <ele>258.25</ele>
        <time>2012-06-17T13:32:41Z</time>
      </trkpt>
      <trkpt lat="48.62001" lon="6.0391">
        <ele>257.77</ele>
        <time>2012-06-17T13:32:46Z</time>
      </trkpt>
      <trkpt lat="48.62003" lon="6.03904">
        <ele>257.29</ele>
        <time>2012-06-17T13:32:50Z</time>
      </trkpt>
      <trkpt lat="48.62008" lon="6.03896">
        <ele>258.25</ele>
        <time>2012-06-17T13:32:54Z</time>
      </trkpt>
      <trkpt lat="48.62016" lon="6.03882">
        <ele>256.33</ele>
        <time>2012-06-17T13:33:02Z</time>
      </trkpt>
      <trkpt lat="48.62025" lon="6.03862">
        <ele>256.81</ele>
        <time>2012-06-17T13:33:15Z</time>
      </trkpt>
      <trkpt lat="48.62034" lon="6.03852">
        <ele>254.89</ele>
        <time>2012-06-17T13:33:26Z</time>
      </trkpt>
      <trkpt lat="48.62037" lon="6.03848">
        <ele>254.41</ele>
        <time>2012-06-17T13:33:30Z</time>
      </trkpt>
      <trkpt lat="48.6204" lon="6.03846">
        <ele>255.37</ele>
        <time>2012-06-17T13:33:32Z</time>
      </trkpt>
      <trkpt lat="48.6205" lon="6.03833">
        <ele>254.41</ele>
        <time>2012-06-17T13:33:44Z</time>
      </trkpt>
      <trkpt lat="48.62062" lon="6.03824">
        <ele>253.44</ele>
        <time>2012-06-17T13:33:56Z</time>
      </trkpt>
      <trkpt lat="48.62065" lon="6.03821">
        <ele>254.41</ele>
        <time>2012-06-17T13:33:58Z</time>
      </trkpt>
      <trkpt lat="48.62067" lon="6.03819">
        <ele>252.96</ele>
        <time>2012-06-17T13:34:00Z</time>
      </trkpt>
      <trkpt lat="48.62082" lon="6.03808">
        <ele>254.89</ele>
        <time>2012-06-17T13:34:12Z</time>
      </trkpt>
      <trkpt lat="48.62083" lon="6.03805">
        <ele>252.96</ele>
        <time>2012-06-17T13:34:15Z</time>
      </trkpt>
      <trkpt lat="48.62086" lon="6.03802">
        <ele>253.93</ele>
        <time>2012-06-17T13:34:19Z</time>
      </trkpt>
      <trkpt lat="48.621" lon="6.03789">
        <ele>252.96</ele>
        <time>2012-06-17T13:34:30Z</time>
      </trkpt>
      <trkpt lat="48.62105" lon="6.03785">
        <ele>253.93</ele>
        <time>2012-06-17T13:34:35Z</time>
      </trkpt>
      <trkpt lat="48.62108" lon="6.03782">
        <ele>252.48</ele>
        <time>2012-06-17T13:34:38Z</time>
      </trkpt>
      <trkpt lat="48.6211" lon="6.03779">
        <ele>253.44</ele>
        <time>2012-06-17T13:34:40Z</time>
      </trkpt>
      <trkpt lat="48.62123" lon="6.03764">
        <ele>252.48</ele>
        <time>2012-06-17T13:34:52Z</time>
      </trkpt>
      <trkpt lat="48.62124" lon="6.03758">
        <ele>252</ele>
        <time>2012-06-17T13:34:56Z</time>
      </trkpt>
      <trkpt lat="48.62129" lon="6.03746">
        <ele>252.48</ele>
        <time>2012-06-17T13:35:02Z</time>
      </trkpt>
      <trkpt lat="48.6213" lon="6.03744">
        <ele>253.44</ele>
        <time>2012-06-17T13:35:03Z</time>
      </trkpt>
      <trkpt lat="48.62134" lon="6.03737">
        <ele>253.44</ele>
        <time>2012-06-17T13:35:07Z</time>
      </trkpt>
      <trkpt lat="48.62137" lon="6.0373">
        <ele>252</ele>
        <time>2012-06-17T13:35:11Z</time>
      </trkpt>
      <trkpt lat="48.62138" lon="6.03727">
        <ele>253.44</ele>
        <time>2012-06-17T13:35:14Z</time>
      </trkpt>
      <trkpt lat="48.62139" lon="6.03725">
        <ele>252</ele>
        <time>2012-06-17T13:35:16Z</time>
      </trkpt>
      <trkpt lat="48.62146" lon="6.03697">
        <ele>252.48</ele>
        <time>2012-06-17T13:35:30Z</time>
      </trkpt>
      <trkpt lat="48.62149" lon="6.03679">
        <ele>253.44</ele>
        <time>2012-06-17T13:35:41Z</time>
      </trkpt>
      <trkpt lat="48.6215" lon="6.03668">
        <ele>252</ele>
        <time>2012-06-17T13:35:46Z</time>
      </trkpt>
      <trkpt lat="48.62152" lon="6.03659">
        <ele>251.04</ele>
        <time>2012-06-17T13:35:52Z</time>
      </trkpt>
      <trkpt lat="48.62152" lon="6.03654">
        <ele>252.48</ele>
        <time>2012-06-17T13:35:55Z</time>
      </trkpt>
      <trkpt lat="48.62158" lon="6.03638">
        <ele>252</ele>
        <time>2012-06-17T13:36:05Z</time>
      </trkpt>
      <trkpt lat="48.62158" lon="6.0363">
        <ele>252.96</ele>
        <time>2012-06-17T13:36:09Z</time>
      </trkpt>
      <trkpt lat="48.62158" lon="6.03628">
        <ele>253.44</ele>
        <time>2012-06-17T13:36:10Z</time>
      </trkpt>
      <trkpt lat="48.62159" lon="6.03618">
        <ele>252</ele>
        <time>2012-06-17T13:36:14Z</time>
      </trkpt>
      <trkpt lat="48.62159" lon="6.03615">
        <ele>251.04</ele>
        <time>2012-06-17T13:36:16Z</time>
      </trkpt>
      <trkpt lat="48.62159" lon="6.03611">
        <ele>251.52</ele>
        <time>2012-06-17T13:36:19Z</time>
      </trkpt>
      <trkpt lat="48.6216" lon="6.03602">
        <ele>253.44</ele>
        <time>2012-06-17T13:36:24Z</time>
      </trkpt>
      <trkpt lat="48.62161" lon="6.03588">
        <ele>254.41</ele>
        <time>2012-06-17T13:36:31Z</time>
      </trkpt>
      <trkpt lat="48.62161" lon="6.03585">
        <ele>252.48</ele>
        <time>2012-06-17T13:36:33Z</time>
      </trkpt>
      <trkpt lat="48.6216" lon="6.03578">
        <ele>253.44</ele>
        <time>2012-06-17T13:36:37Z</time>
      </trkpt>
      <trkpt lat="48.62161" lon="6.03572">
        <ele>253.93</ele>
        <time>2012-06-17T13:36:40Z</time>
      </trkpt>
      <trkpt lat="48.62161" lon="6.0356">
        <ele>252</ele>
        <time>2012-06-17T13:36:47Z</time>
      </trkpt>
      <trkpt lat="48.62162" lon="6.03553">
        <ele>253.44</ele>
        <time>2012-06-17T13:36:51Z</time>
      </trkpt>
      <trkpt lat="48.62162" lon="6.0354">
        <ele>253.93</ele>
        <time>2012-06-17T13:36:57Z</time>
      </trkpt>
      <trkpt lat="48.6216" lon="6.03528">
        <ele>252.96</ele>
        <time>2012-06-17T13:37:04Z</time>
      </trkpt>
      <trkpt lat="48.6216" lon="6.03525">
        <ele>252</ele>
        <time>2012-06-17T13:37:06Z</time>
      </trkpt>
      <trkpt lat="48.62156" lon="6.03511">
        <ele>251.52</ele>
        <time>2012-06-17T13:37:14Z</time>
      </trkpt>
      <trkpt lat="48.62156" lon="6.0351">
        <ele>252.48</ele>
        <time>2012-06-17T13:37:15Z</time>
      </trkpt>
      <trkpt lat="48.62155" lon="6.03507">
        <ele>253.44</ele>
        <time>2012-06-17T13:37:17Z</time>
      </trkpt>
      <trkpt lat="48.62154" lon="6.03499">
        <ele>253.44</ele>
        <time>2012-06-17T13:37:21Z</time>
      </trkpt>
      <trkpt lat="48.62151" lon="6.03487">
        <ele>251.52</ele>
        <time>2012-06-17T13:37:27Z</time>
      </trkpt>
      <trkpt lat="48.62151" lon="6.03479">
        <ele>252.48</ele>
        <time>2012-06-17T13:37:32Z</time>
      </trkpt>
      <trkpt lat="48.62151" lon="6.03476">
        <ele>253.93</ele>
        <time>2012-06-17T13:37:34Z</time>
      </trkpt>
      <trkpt lat="48.62147" lon="6.03466">
        <ele>253.93</ele>
        <time>2012-06-17T13:37:38Z</time>
      </trkpt>
      <trkpt lat="48.62145" lon="6.03461">
        <ele>252</ele>
        <time>2012-06-17T13:37:41Z</time>
      </trkpt>
      <trkpt lat="48.62145" lon="6.03455">
        <ele>252</ele>
        <time>2012-06-17T13:37:45Z</time>
      </trkpt>
      <trkpt lat="48.62144" lon="6.03451">
        <ele>253.93</ele>
        <time>2012-06-17T13:37:48Z</time>
      </trkpt>
      <trkpt lat="48.6214" lon="6.03427">
        <ele>254.89</ele>
        <time>2012-06-17T13:38:01Z</time>
      </trkpt>
      <trkpt lat="48.62139" lon="6.03421">
        <ele>252.96</ele>
        <time>2012-06-17T13:38:05Z</time>
      </trkpt>
      <trkpt lat="48.62137" lon="6.03404">
        <ele>252.96</ele>
        <time>2012-06-17T13:38:15Z</time>
      </trkpt>
      <trkpt lat="48.62135" lon="6.03398">
        <ele>254.89</ele>
        <time>2012-06-17T13:38:19Z</time>
      </trkpt>
      <trkpt lat="48.62132" lon="6.03384">
        <ele>253.44</ele>
        <time>2012-06-17T13:38:27Z</time>
      </trkpt>
      <trkpt lat="48.62133" lon="6.03381">
        <ele>255.37</ele>
        <time>2012-06-17T13:38:29Z</time>
      </trkpt>
      <trkpt lat="48.62132" lon="6.03372">
        <ele>252</ele>
        <time>2012-06-17T13:38:37Z</time>
      </trkpt>
      <trkpt lat="48.62132" lon="6.03371">
        <ele>255.37</ele>
        <time>2012-06-17T13:38:38Z</time>
      </trkpt>
      <trkpt lat="48.62131" lon="6.03366">
        <ele>254.89</ele>
        <time>2012-06-17T13:38:42Z</time>
      </trkpt>
      <trkpt lat="48.62127" lon="6.03352">
        <ele>253.44</ele>
        <time>2012-06-17T13:38:50Z</time>
      </trkpt>
      <trkpt lat="48.62126" lon="6.03347">
        <ele>255.37</ele>
        <time>2012-06-17T13:38:53Z</time>
      </trkpt>
      <trkpt lat="48.62123" lon="6.0335">
        <ele>254.41</ele>
        <time>2012-06-17T13:39:07Z</time>
      </trkpt>
      <trkpt lat="48.62123" lon="6.0335">
        <ele>254.41</ele>
        <time>2012-06-17T13:39:39Z</time>
      </trkpt>
      <trkpt lat="48.62123" lon="6.0335">
        <ele>253.93</ele>
        <time>2012-06-17T13:40:04Z</time>
      </trkpt>
      <trkpt lat="48.62121" lon="6.03339">
        <ele>251.52</ele>
        <time>2012-06-17T13:40:22Z</time>
      </trkpt>
      <trkpt lat="48.62121" lon="6.03335">
        <ele>253.44</ele>
        <time>2012-06-17T13:40:24Z</time>
      </trkpt>
      <trkpt lat="48.62119" lon="6.03324">
        <ele>252.48</ele>
        <time>2012-06-17T13:40:30Z</time>
      </trkpt>
      <trkpt lat="48.62119" lon="6.03317">
        <ele>255.37</ele>
        <time>2012-06-17T13:40:34Z</time>
      </trkpt>
      <trkpt lat="48.62118" lon="6.03307">
        <ele>253.93</ele>
        <time>2012-06-17T13:40:40Z</time>
      </trkpt>
      <trkpt lat="48.6212" lon="6.03285">
        <ele>256.33</ele>
        <time>2012-06-17T13:40:52Z</time>
      </trkpt>
      <trkpt lat="48.6212" lon="6.03282">
        <ele>255.85</ele>
        <time>2012-06-17T13:40:53Z</time>
      </trkpt>
      <trkpt lat="48.6212" lon="6.03274">
        <ele>253.93</ele>
        <time>2012-06-17T13:40:58Z</time>
      </trkpt>
      <trkpt lat="48.6212" lon="6.03271">
        <ele>255.85</ele>
        <time>2012-06-17T13:41:00Z</time>
      </trkpt>
      <trkpt lat="48.62119" lon="6.03257">
        <ele>256.81</ele>
        <time>2012-06-17T13:41:07Z</time>
      </trkpt>
      <trkpt lat="48.62119" lon="6.03254">
        <ele>254.41</ele>
        <time>2012-06-17T13:41:09Z</time>
      </trkpt>
      <trkpt lat="48.6212" lon="6.03247">
        <ele>257.77</ele>
        <time>2012-06-17T13:41:13Z</time>
      </trkpt>
      <trkpt lat="48.62122" lon="6.03239">
        <ele>255.37</ele>
        <time>2012-06-17T13:41:17Z</time>
      </trkpt>
      <trkpt lat="48.62122" lon="6.03237">
        <ele>258.73</ele>
        <time>2012-06-17T13:41:18Z</time>
      </trkpt>
      <trkpt lat="48.62122" lon="6.03234">
        <ele>255.37</ele>
        <time>2012-06-17T13:41:20Z</time>
      </trkpt>
      <trkpt lat="48.62122" lon="6.03229">
        <ele>258.73</ele>
        <time>2012-06-17T13:41:22Z</time>
      </trkpt>
      <trkpt lat="48.62122" lon="6.03227">
        <ele>259.21</ele>
        <time>2012-06-17T13:41:23Z</time>
      </trkpt>
      <trkpt lat="48.62122" lon="6.0322">
        <ele>256.33</ele>
        <time>2012-06-17T13:41:27Z</time>
      </trkpt>
      <trkpt lat="48.62123" lon="6.0321">
        <ele>259.69</ele>
        <time>2012-06-17T13:41:32Z</time>
      </trkpt>
      <trkpt lat="48.62123" lon="6.03198">
        <ele>259.21</ele>
        <time>2012-06-17T13:41:38Z</time>
      </trkpt>
      <trkpt lat="48.62123" lon="6.03192">
        <ele>260.65</ele>
        <time>2012-06-17T13:41:41Z</time>
      </trkpt>
      <trkpt lat="48.62124" lon="6.0319">
        <ele>259.69</ele>
        <time>2012-06-17T13:41:42Z</time>
      </trkpt>
      <trkpt lat="48.62126" lon="6.0318">
        <ele>258.73</ele>
        <time>2012-06-17T13:41:48Z</time>
      </trkpt>
      <trkpt lat="48.62126" lon="6.03172">
        <ele>261.62</ele>
        <time>2012-06-17T13:41:52Z</time>
      </trkpt>
      <trkpt lat="48.62127" lon="6.03165">
        <ele>259.21</ele>
        <time>2012-06-17T13:41:56Z</time>
      </trkpt>
      <trkpt lat="48.62129" lon="6.03157">
        <ele>261.14</ele>
        <time>2012-06-17T13:42:01Z</time>
      </trkpt>
      <trkpt lat="48.6213" lon="6.03148">
        <ele>261.62</ele>
        <time>2012-06-17T13:42:07Z</time>
      </trkpt>
      <trkpt lat="48.62132" lon="6.03129">
        <ele>262.58</ele>
        <time>2012-06-17T13:42:17Z</time>
      </trkpt>
      <trkpt lat="48.62133" lon="6.03114">
        <ele>260.65</ele>
        <time>2012-06-17T13:42:26Z</time>
      </trkpt>
      <trkpt lat="48.62135" lon="6.031">
        <ele>261.62</ele>
        <time>2012-06-17T13:42:34Z</time>
      </trkpt>
      <trkpt lat="48.62135" lon="6.03086">
        <ele>260.17</ele>
        <time>2012-06-17T13:42:42Z</time>
      </trkpt>
      <trkpt lat="48.62136" lon="6.03075">
        <ele>261.14</ele>
        <time>2012-06-17T13:42:48Z</time>
      </trkpt>
      <trkpt lat="48.62136" lon="6.03066">
        <ele>259.69</ele>
        <time>2012-06-17T13:42:53Z</time>
      </trkpt>
      <trkpt lat="48.62135" lon="6.03062">
        <ele>260.65</ele>
        <time>2012-06-17T13:42:55Z</time>
      </trkpt>
      <trkpt lat="48.62134" lon="6.03055">
        <ele>259.21</ele>
        <time>2012-06-17T13:42:58Z</time>
      </trkpt>
      <trkpt lat="48.62131" lon="6.03038">
        <ele>259.21</ele>
        <time>2012-06-17T13:43:06Z</time>
      </trkpt>
      <trkpt lat="48.62133" lon="6.03033">
        <ele>260.17</ele>
        <time>2012-06-17T13:43:10Z</time>
      </trkpt>
      <trkpt lat="48.62129" lon="6.03007">
        <ele>259.69</ele>
        <time>2012-06-17T13:43:23Z</time>
      </trkpt>
      <trkpt lat="48.62128" lon="6.03">
        <ele>257.77</ele>
        <time>2012-06-17T13:43:27Z</time>
      </trkpt>
      <trkpt lat="48.62127" lon="6.02986">
        <ele>256.81</ele>
        <time>2012-06-17T13:43:35Z</time>
      </trkpt>
      <trkpt lat="48.62126" lon="6.02981">
        <ele>258.25</ele>
        <time>2012-06-17T13:43:38Z</time>
      </trkpt>
      <trkpt lat="48.62127" lon="6.0297">
        <ele>256.81</ele>
        <time>2012-06-17T13:43:44Z</time>
      </trkpt>
      <trkpt lat="48.62131" lon="6.02942">
        <ele>257.29</ele>
        <time>2012-06-17T13:43:59Z</time>
      </trkpt>
      <trkpt lat="48.62132" lon="6.02938">
        <ele>256.33</ele>
        <time>2012-06-17T13:44:01Z</time>
      </trkpt>
      <trkpt lat="48.62131" lon="6.02933">
        <ele>257.77</ele>
        <time>2012-06-17T13:44:03Z</time>
      </trkpt>
      <trkpt lat="48.6213" lon="6.02928">
        <ele>255.85</ele>
        <time>2012-06-17T13:44:06Z</time>
      </trkpt>
      <trkpt lat="48.62131" lon="6.029">
        <ele>255.37</ele>
        <time>2012-06-17T13:44:20Z</time>
      </trkpt>
      <trkpt lat="48.62131" lon="6.02895">
        <ele>256.33</ele>
        <time>2012-06-17T13:44:24Z</time>
      </trkpt>
      <trkpt lat="48.62129" lon="6.02886">
        <ele>256.33</ele>
        <time>2012-06-17T13:44:29Z</time>
      </trkpt>
      <trkpt lat="48.6213" lon="6.02873">
        <ele>254.89</ele>
        <time>2012-06-17T13:44:34Z</time>
      </trkpt>
      <trkpt lat="48.62127" lon="6.02838">
        <ele>256.33</ele>
        <time>2012-06-17T13:44:52Z</time>
      </trkpt>
      <trkpt lat="48.62127" lon="6.02836">
        <ele>256.33</ele>
        <time>2012-06-17T13:44:53Z</time>
      </trkpt>
      <trkpt lat="48.62125" lon="6.02827">
        <ele>253.93</ele>
        <time>2012-06-17T13:44:57Z</time>
      </trkpt>
      <trkpt lat="48.62126" lon="6.02822">
        <ele>255.37</ele>
        <time>2012-06-17T13:45:00Z</time>
      </trkpt>
      <trkpt lat="48.62123" lon="6.02812">
        <ele>255.85</ele>
        <time>2012-06-17T13:45:06Z</time>
      </trkpt>
      <trkpt lat="48.62121" lon="6.028">
        <ele>254.41</ele>
        <time>2012-06-17T13:45:12Z</time>
      </trkpt>
      <trkpt lat="48.62119" lon="6.02794">
        <ele>254.89</ele>
        <time>2012-06-17T13:45:16Z</time>
      </trkpt>
      <trkpt lat="48.62117" lon="6.02787">
        <ele>253.93</ele>
        <time>2012-06-17T13:45:21Z</time>
      </trkpt>
      <trkpt lat="48.62116" lon="6.02775">
        <ele>254.89</ele>
        <time>2012-06-17T13:45:27Z</time>
      </trkpt>
      <trkpt lat="48.62116" lon="6.02759">
        <ele>253.44</ele>
        <time>2012-06-17T13:45:34Z</time>
      </trkpt>
      <trkpt lat="48.62115" lon="6.02748">
        <ele>252.96</ele>
        <time>2012-06-17T13:45:40Z</time>
      </trkpt>
      <trkpt lat="48.62114" lon="6.02744">
        <ele>254.89</ele>
        <time>2012-06-17T13:45:43Z</time>
      </trkpt>
      <trkpt lat="48.62113" lon="6.02733">
        <ele>253.44</ele>
        <time>2012-06-17T13:45:49Z</time>
      </trkpt>
      <trkpt lat="48.62114" lon="6.02712">
        <ele>254.41</ele>
        <time>2012-06-17T13:46:01Z</time>
      </trkpt>
      <trkpt lat="48.62107" lon="6.02686">
        <ele>253.44</ele>
        <time>2012-06-17T13:46:13Z</time>
      </trkpt>
      <trkpt lat="48.62107" lon="6.02677">
        <ele>254.41</ele>
        <time>2012-06-17T13:46:18Z</time>
      </trkpt>
      <trkpt lat="48.62107" lon="6.02672">
        <ele>252.96</ele>
        <time>2012-06-17T13:46:20Z</time>
      </trkpt>
      <trkpt lat="48.62105" lon="6.02663">
        <ele>254.89</ele>
        <time>2012-06-17T13:46:24Z</time>
      </trkpt>
      <trkpt lat="48.62104" lon="6.02652">
        <ele>252.96</ele>
        <time>2012-06-17T13:46:30Z</time>
      </trkpt>
      <trkpt lat="48.62103" lon="6.02648">
        <ele>254.41</ele>
        <time>2012-06-17T13:46:33Z</time>
      </trkpt>
      <trkpt lat="48.62104" lon="6.02625">
        <ele>254.89</ele>
        <time>2012-06-17T13:46:46Z</time>
      </trkpt>
      <trkpt lat="48.62103" lon="6.02616">
        <ele>253.44</ele>
        <time>2012-06-17T13:46:50Z</time>
      </trkpt>
      <trkpt lat="48.62103" lon="6.02609">
        <ele>253.93</ele>
        <time>2012-06-17T13:46:54Z</time>
      </trkpt>
      <trkpt lat="48.621" lon="6.02603">
        <ele>253.93</ele>
        <time>2012-06-17T13:46:58Z</time>
      </trkpt>
      <trkpt lat="48.621" lon="6.02587">
        <ele>252.48</ele>
        <time>2012-06-17T13:47:06Z</time>
      </trkpt>
      <trkpt lat="48.621" lon="6.02574">
        <ele>254.41</ele>
        <time>2012-06-17T13:47:13Z</time>
      </trkpt>
      <trkpt lat="48.62101" lon="6.02564">
        <ele>253.44</ele>
        <time>2012-06-17T13:47:18Z</time>
      </trkpt>
      <trkpt lat="48.621" lon="6.0256">
        <ele>254.41</ele>
        <time>2012-06-17T13:47:21Z</time>
      </trkpt>
      <trkpt lat="48.62101" lon="6.02551">
        <ele>253.93</ele>
        <time>2012-06-17T13:47:26Z</time>
      </trkpt>
      <trkpt lat="48.62099" lon="6.02539">
        <ele>252.96</ele>
        <time>2012-06-17T13:47:32Z</time>
      </trkpt>
      <trkpt lat="48.62101" lon="6.02534">
        <ele>254.41</ele>
        <time>2012-06-17T13:47:38Z</time>
      </trkpt>
      <trkpt lat="48.62101" lon="6.02532">
        <ele>252.96</ele>
        <time>2012-06-17T13:47:44Z</time>
      </trkpt>
      <trkpt lat="48.62102" lon="6.0253">
        <ele>254.89</ele>
        <time>2012-06-17T13:47:46Z</time>
      </trkpt>
      <trkpt lat="48.62114" lon="6.02522">
        <ele>257.29</ele>
        <time>2012-06-17T13:47:58Z</time>
      </trkpt>
      <trkpt lat="48.62116" lon="6.0252">
        <ele>258.73</ele>
        <time>2012-06-17T13:48:15Z</time>
      </trkpt>
      <trkpt lat="48.62115" lon="6.0252">
        <ele>255.37</ele>
        <time>2012-06-17T13:48:43Z</time>
      </trkpt>
      <trkpt lat="48.62115" lon="6.0252">
        <ele>257.29</ele>
        <time>2012-06-17T13:49:17Z</time>
      </trkpt>
      <trkpt lat="48.62112" lon="6.02523">
        <ele>256.33</ele>
        <time>2012-06-17T13:49:27Z</time>
      </trkpt>
      <trkpt lat="48.62101" lon="6.02527">
        <ele>253.93</ele>
        <time>2012-06-17T13:49:36Z</time>
      </trkpt>
      <trkpt lat="48.62093" lon="6.02514">
        <ele>254.41</ele>
        <time>2012-06-17T13:49:42Z</time>
      </trkpt>
      <trkpt lat="48.62097" lon="6.02505">
        <ele>254.89</ele>
        <time>2012-06-17T13:49:47Z</time>
      </trkpt>
      <trkpt lat="48.62098" lon="6.0248">
        <ele>253.93</ele>
        <time>2012-06-17T13:50:01Z</time>
      </trkpt>
      <trkpt lat="48.62098" lon="6.02471">
        <ele>255.37</ele>
        <time>2012-06-17T13:50:07Z</time>
      </trkpt>
      <trkpt lat="48.62096" lon="6.02443">
        <ele>254.89</ele>
        <time>2012-06-17T13:50:24Z</time>
      </trkpt>
      <trkpt lat="48.62097" lon="6.02434">
        <ele>254.89</ele>
        <time>2012-06-17T13:50:28Z</time>
      </trkpt>
      <trkpt lat="48.62097" lon="6.02421">
        <ele>253.44</ele>
        <time>2012-06-17T13:50:35Z</time>
      </trkpt>
      <trkpt lat="48.62097" lon="6.0242">
        <ele>254.89</ele>
        <time>2012-06-17T13:50:38Z</time>
      </trkpt>
      <trkpt lat="48.62096" lon="6.02418">
        <ele>253.44</ele>
        <time>2012-06-17T13:50:40Z</time>
      </trkpt>
      <trkpt lat="48.62096" lon="6.02414">
        <ele>252.96</ele>
        <time>2012-06-17T13:50:42Z</time>
      </trkpt>
      <trkpt lat="48.62095" lon="6.02409">
        <ele>254.89</ele>
        <time>2012-06-17T13:50:44Z</time>
      </trkpt>
      <trkpt lat="48.6209" lon="6.02392">
        <ele>254.89</ele>
        <time>2012-06-17T13:50:52Z</time>
      </trkpt>
      <trkpt lat="48.62089" lon="6.02369">
        <ele>254.89</ele>
        <time>2012-06-17T13:51:02Z</time>
      </trkpt>
      <trkpt lat="48.62088" lon="6.02365">
        <ele>253.44</ele>
        <time>2012-06-17T13:51:04Z</time>
      </trkpt>
      <trkpt lat="48.62088" lon="6.02348">
        <ele>254.89</ele>
        <time>2012-06-17T13:51:12Z</time>
      </trkpt>
      <trkpt lat="48.6209" lon="6.02329">
        <ele>254.41</ele>
        <time>2012-06-17T13:51:21Z</time>
      </trkpt>
      <trkpt lat="48.6209" lon="6.02319">
        <ele>255.85</ele>
        <time>2012-06-17T13:51:26Z</time>
      </trkpt>
      <trkpt lat="48.62088" lon="6.02299">
        <ele>254.41</ele>
        <time>2012-06-17T13:51:34Z</time>
      </trkpt>
      <trkpt lat="48.62083" lon="6.02274">
        <ele>255.85</ele>
        <time>2012-06-17T13:51:48Z</time>
      </trkpt>
      <trkpt lat="48.6208" lon="6.02262">
        <ele>256.33</ele>
        <time>2012-06-17T13:51:53Z</time>
      </trkpt>
      <trkpt lat="48.6208" lon="6.02256">
        <ele>255.85</ele>
        <time>2012-06-17T13:51:56Z</time>
      </trkpt>
      <trkpt lat="48.62077" lon="6.02238">
        <ele>256.33</ele>
        <time>2012-06-17T13:52:07Z</time>
      </trkpt>
      <trkpt lat="48.62075" lon="6.02229">
        <ele>254.89</ele>
        <time>2012-06-17T13:52:13Z</time>
      </trkpt>
      <trkpt lat="48.62076" lon="6.02222">
        <ele>256.33</ele>
        <time>2012-06-17T13:52:17Z</time>
      </trkpt>
      <trkpt lat="48.62075" lon="6.02207">
        <ele>255.85</ele>
        <time>2012-06-17T13:52:25Z</time>
      </trkpt>
      <trkpt lat="48.62081" lon="6.02196">
        <ele>255.37</ele>
        <time>2012-06-17T13:52:31Z</time>
      </trkpt>
      <trkpt lat="48.62084" lon="6.02189">
        <ele>256.81</ele>
        <time>2012-06-17T13:52:35Z</time>
      </trkpt>
      <trkpt lat="48.62088" lon="6.0218">
        <ele>255.85</ele>
        <time>2012-06-17T13:52:41Z</time>
      </trkpt>
      <trkpt lat="48.62088" lon="6.02177">
        <ele>257.29</ele>
        <time>2012-06-17T13:52:43Z</time>
      </trkpt>
      <trkpt lat="48.6209" lon="6.02152">
        <ele>256.33</ele>
        <time>2012-06-17T13:52:57Z</time>
      </trkpt>
      <trkpt lat="48.6209" lon="6.02149">
        <ele>258.25</ele>
        <time>2012-06-17T13:52:58Z</time>
      </trkpt>
      <trkpt lat="48.62085" lon="6.02135">
        <ele>258.25</ele>
        <time>2012-06-17T13:53:20Z</time>
      </trkpt>
      <trkpt lat="48.62091" lon="6.02138">
        <ele>257.77</ele>
        <time>2012-06-17T13:53:40Z</time>
      </trkpt>
      <trkpt lat="48.62093" lon="6.02141">
        <ele>257.77</ele>
        <time>2012-06-17T13:53:52Z</time>
      </trkpt>
      <trkpt lat="48.62101" lon="6.02158">
        <ele>253.93</ele>
        <time>2012-06-17T13:54:10Z</time>
      </trkpt>
      <trkpt lat="48.62093" lon="6.02148">
        <ele>258.25</ele>
        <time>2012-06-17T13:54:11Z</time>
      </trkpt>
      <trkpt lat="48.62099" lon="6.02149">
        <ele>255.37</ele>
        <time>2012-06-17T13:54:23Z</time>
      </trkpt>
      <trkpt lat="48.62092" lon="6.02136">
        <ele>257.29</ele>
        <time>2012-06-17T13:54:35Z</time>
      </trkpt>
      <trkpt lat="48.62081" lon="6.02127">
        <ele>257.77</ele>
        <time>2012-06-17T13:54:42Z</time>
      </trkpt>
      <trkpt lat="48.62071" lon="6.02118">
        <ele>258.25</ele>
        <time>2012-06-17T13:54:47Z</time>
      </trkpt>
      <trkpt lat="48.62055" lon="6.02102">
        <ele>258.25</ele>
        <time>2012-06-17T13:54:58Z</time>
      </trkpt>
      <trkpt lat="48.62054" lon="6.02099">
        <ele>256.81</ele>
        <time>2012-06-17T13:55:00Z</time>
      </trkpt>
      <trkpt lat="48.62045" lon="6.02088">
        <ele>258.25</ele>
        <time>2012-06-17T13:55:10Z</time>
      </trkpt>
      <trkpt lat="48.62029" lon="6.02076">
        <ele>257.29</ele>
        <time>2012-06-17T13:55:26Z</time>
      </trkpt>
      <trkpt lat="48.62027" lon="6.02072">
        <ele>256.33</ele>
        <time>2012-06-17T13:55:40Z</time>
      </trkpt>
      <trkpt lat="48.62026" lon="6.02073">
        <ele>256.33</ele>
        <time>2012-06-17T13:55:53Z</time>
      </trkpt>
      <trkpt lat="48.62026" lon="6.02074">
        <ele>256.81</ele>
        <time>2012-06-17T13:56:06Z</time>
      </trkpt>
      <trkpt lat="48.62027" lon="6.02073">
        <ele>257.77</ele>
        <time>2012-06-17T13:56:23Z</time>
      </trkpt>
      <trkpt lat="48.62009" lon="6.02071">
        <ele>254.41</ele>
        <time>2012-06-17T13:56:34Z</time>
      </trkpt>
      <trkpt lat="48.62008" lon="6.02071">
        <ele>255.37</ele>
        <time>2012-06-17T13:56:35Z</time>
      </trkpt>
      <trkpt lat="48.62007" lon="6.02072">
        <ele>259.21</ele>
        <time>2012-06-17T13:56:39Z</time>
      </trkpt>
      <trkpt lat="48.62005" lon="6.02072">
        <ele>253.93</ele>
        <time>2012-06-17T13:56:41Z</time>
      </trkpt>
      <trkpt lat="48.62005" lon="6.02072">
        <ele>254.89</ele>
        <time>2012-06-17T13:56:42Z</time>
      </trkpt>
      <trkpt lat="48.62003" lon="6.02072">
        <ele>258.25</ele>
        <time>2012-06-17T13:56:44Z</time>
      </trkpt>
      <trkpt lat="48.62002" lon="6.02071">
        <ele>258.25</ele>
        <time>2012-06-17T13:56:45Z</time>
      </trkpt>
      <trkpt lat="48.61999" lon="6.02071">
        <ele>253.93</ele>
        <time>2012-06-17T13:56:48Z</time>
      </trkpt>
      <trkpt lat="48.61998" lon="6.0207">
        <ele>257.77</ele>
        <time>2012-06-17T13:56:50Z</time>
      </trkpt>
      <trkpt lat="48.61995" lon="6.02069">
        <ele>254.89</ele>
        <time>2012-06-17T13:56:52Z</time>
      </trkpt>
      <trkpt lat="48.61993" lon="6.02067">
        <ele>258.73</ele>
        <time>2012-06-17T13:56:54Z</time>
      </trkpt>
      <trkpt lat="48.61989" lon="6.02067">
        <ele>255.37</ele>
        <time>2012-06-17T13:56:57Z</time>
      </trkpt>
      <trkpt lat="48.61985" lon="6.02068">
        <ele>258.73</ele>
        <time>2012-06-17T13:57:00Z</time>
      </trkpt>
      <trkpt lat="48.61981" lon="6.02069">
        <ele>257.77</ele>
        <time>2012-06-17T13:57:03Z</time>
      </trkpt>
      <trkpt lat="48.61978" lon="6.0207">
        <ele>256.33</ele>
        <time>2012-06-17T13:57:06Z</time>
      </trkpt>
      <trkpt lat="48.61977" lon="6.0207">
        <ele>253.93</ele>
        <time>2012-06-17T13:57:07Z</time>
      </trkpt>
      <trkpt lat="48.61975" lon="6.0207">
        <ele>257.77</ele>
        <time>2012-06-17T13:57:08Z</time>
      </trkpt>
      <trkpt lat="48.61972" lon="6.02071">
        <ele>261.14</ele>
        <time>2012-06-17T13:57:10Z</time>
      </trkpt>
      <trkpt lat="48.61972" lon="6.02071">
        <ele>252</ele>
        <time>2012-06-17T13:57:11Z</time>
      </trkpt>
      <trkpt lat="48.6197" lon="6.02071">
        <ele>255.85</ele>
        <time>2012-06-17T13:57:12Z</time>
      </trkpt>
      <trkpt lat="48.61969" lon="6.02072">
        <ele>259.69</ele>
        <time>2012-06-17T13:57:13Z</time>
      </trkpt>
      <trkpt lat="48.61962" lon="6.02074">
        <ele>254.89</ele>
        <time>2012-06-17T13:57:19Z</time>
      </trkpt>
      <trkpt lat="48.61961" lon="6.02073">
        <ele>259.69</ele>
        <time>2012-06-17T13:57:20Z</time>
      </trkpt>
      <trkpt lat="48.61959" lon="6.02073">
        <ele>260.17</ele>
        <time>2012-06-17T13:57:21Z</time>
      </trkpt>
      <trkpt lat="48.61955" lon="6.02073">
        <ele>255.85</ele>
        <time>2012-06-17T13:57:25Z</time>
      </trkpt>
      <trkpt lat="48.61953" lon="6.02074">
        <ele>259.69</ele>
        <time>2012-06-17T13:57:26Z</time>
      </trkpt>
      <trkpt lat="48.61946" lon="6.02077">
        <ele>255.37</ele>
        <time>2012-06-17T13:57:32Z</time>
      </trkpt>
      <trkpt lat="48.61945" lon="6.02078">
        <ele>259.21</ele>
        <time>2012-06-17T13:57:33Z</time>
      </trkpt>
      <trkpt lat="48.61945" lon="6.02081">
        <ele>260.65</ele>
        <time>2012-06-17T13:57:34Z</time>
      </trkpt>
      <trkpt lat="48.61943" lon="6.02084">
        <ele>258.25</ele>
        <time>2012-06-17T13:57:36Z</time>
      </trkpt>
      <trkpt lat="48.61942" lon="6.02084">
        <ele>254.89</ele>
        <time>2012-06-17T13:57:37Z</time>
      </trkpt>
      <trkpt lat="48.61941" lon="6.02085">
        <ele>259.69</ele>
        <time>2012-06-17T13:57:38Z</time>
      </trkpt>
      <trkpt lat="48.61936" lon="6.02093">
        <ele>263.54</ele>
        <time>2012-06-17T13:57:42Z</time>
      </trkpt>
      <trkpt lat="48.61935" lon="6.02094">
        <ele>258.73</ele>
        <time>2012-06-17T13:57:43Z</time>
      </trkpt>
      <trkpt lat="48.61934" lon="6.02094">
        <ele>254.89</ele>
        <time>2012-06-17T13:57:44Z</time>
      </trkpt>
      <trkpt lat="48.61934" lon="6.02095">
        <ele>258.25</ele>
        <time>2012-06-17T13:57:45Z</time>
      </trkpt>
      <trkpt lat="48.61933" lon="6.02096">
        <ele>262.58</ele>
        <time>2012-06-17T13:57:46Z</time>
      </trkpt>
      <trkpt lat="48.61932" lon="6.02098">
        <ele>258.73</ele>
        <time>2012-06-17T13:57:48Z</time>
      </trkpt>
      <trkpt lat="48.61931" lon="6.02098">
        <ele>255.37</ele>
        <time>2012-06-17T13:57:49Z</time>
      </trkpt>
      <trkpt lat="48.61931" lon="6.02099">
        <ele>260.65</ele>
        <time>2012-06-17T13:57:50Z</time>
      </trkpt>
      <trkpt lat="48.61925" lon="6.02104">
        <ele>259.21</ele>
        <time>2012-06-17T13:57:57Z</time>
      </trkpt>
      <trkpt lat="48.61926" lon="6.02107">
        <ele>254.89</ele>
        <time>2012-06-17T13:57:58Z</time>
      </trkpt>
      <trkpt lat="48.61925" lon="6.02108">
        <ele>260.65</ele>
        <time>2012-06-17T13:57:59Z</time>
      </trkpt>
      <trkpt lat="48.61923" lon="6.02108">
        <ele>261.62</ele>
        <time>2012-06-17T13:58:00Z</time>
      </trkpt>
      <trkpt lat="48.61918" lon="6.02109">
        <ele>263.06</ele>
        <time>2012-06-17T13:58:02Z</time>
      </trkpt>
      <trkpt lat="48.61916" lon="6.02109">
        <ele>258.73</ele>
        <time>2012-06-17T13:58:03Z</time>
      </trkpt>
      <trkpt lat="48.61914" lon="6.02109">
        <ele>254.89</ele>
        <time>2012-06-17T13:58:04Z</time>
      </trkpt>
      <trkpt lat="48.61912" lon="6.0211">
        <ele>260.65</ele>
        <time>2012-06-17T13:58:05Z</time>
      </trkpt>
      <trkpt lat="48.61902" lon="6.02112">
        <ele>256.81</ele>
        <time>2012-06-17T13:58:12Z</time>
      </trkpt>
      <trkpt lat="48.61899" lon="6.02112">
        <ele>260.17</ele>
        <time>2012-06-17T13:58:13Z</time>
      </trkpt>
      <trkpt lat="48.61893" lon="6.02111">
        <ele>263.54</ele>
        <time>2012-06-17T13:58:16Z</time>
      </trkpt>
      <trkpt lat="48.61889" lon="6.02111">
        <ele>258.73</ele>
        <time>2012-06-17T13:58:18Z</time>
      </trkpt>
      <trkpt lat="48.61878" lon="6.02114">
        <ele>262.1</ele>
        <time>2012-06-17T13:58:24Z</time>
      </trkpt>
      <trkpt lat="48.61874" lon="6.02115">
        <ele>257.77</ele>
        <time>2012-06-17T13:58:27Z</time>
      </trkpt>
      <trkpt lat="48.61872" lon="6.02115">
        <ele>258.25</ele>
        <time>2012-06-17T13:58:28Z</time>
      </trkpt>
      <trkpt lat="48.61871" lon="6.02116">
        <ele>261.62</ele>
        <time>2012-06-17T13:58:29Z</time>
      </trkpt>
      <trkpt lat="48.61863" lon="6.02117">
        <ele>258.25</ele>
        <time>2012-06-17T13:58:35Z</time>
      </trkpt>
      <trkpt lat="48.61861" lon="6.02116">
        <ele>262.1</ele>
        <time>2012-06-17T13:58:38Z</time>
      </trkpt>
      <trkpt lat="48.61857" lon="6.02116">
        <ele>258.25</ele>
        <time>2012-06-17T13:58:42Z</time>
      </trkpt>
      <trkpt lat="48.61852" lon="6.02117">
        <ele>261.62</ele>
        <time>2012-06-17T13:58:47Z</time>
      </trkpt>
      <trkpt lat="48.61847" lon="6.02119">
        <ele>257.29</ele>
        <time>2012-06-17T13:58:52Z</time>
      </trkpt>
      <trkpt lat="48.61846" lon="6.02119">
        <ele>262.58</ele>
        <time>2012-06-17T13:58:53Z</time>
      </trkpt>
      <trkpt lat="48.61837" lon="6.02122">
        <ele>260.17</ele>
        <time>2012-06-17T13:58:59Z</time>
      </trkpt>
      <trkpt lat="48.61834" lon="6.02123">
        <ele>263.54</ele>
        <time>2012-06-17T13:59:02Z</time>
      </trkpt>
      <trkpt lat="48.61833" lon="6.02126">
        <ele>260.65</ele>
        <time>2012-06-17T13:59:05Z</time>
      </trkpt>
      <trkpt lat="48.6183" lon="6.02129">
        <ele>262.1</ele>
        <time>2012-06-17T13:59:07Z</time>
      </trkpt>
      <trkpt lat="48.61829" lon="6.0213">
        <ele>264.02</ele>
        <time>2012-06-17T13:59:08Z</time>
      </trkpt>
      <trkpt lat="48.61829" lon="6.02131">
        <ele>257.77</ele>
        <time>2012-06-17T13:59:09Z</time>
      </trkpt>
      <trkpt lat="48.61827" lon="6.02132">
        <ele>261.62</ele>
        <time>2012-06-17T13:59:10Z</time>
      </trkpt>
      <trkpt lat="48.61825" lon="6.02132">
        <ele>265.46</ele>
        <time>2012-06-17T13:59:12Z</time>
      </trkpt>
      <trkpt lat="48.61822" lon="6.02131">
        <ele>260.17</ele>
        <time>2012-06-17T13:59:14Z</time>
      </trkpt>
      <trkpt lat="48.61817" lon="6.02132">
        <ele>264.02</ele>
        <time>2012-06-17T13:59:17Z</time>
      </trkpt>
      <trkpt lat="48.61813" lon="6.02133">
        <ele>259.21</ele>
        <time>2012-06-17T13:59:20Z</time>
      </trkpt>
      <trkpt lat="48.61812" lon="6.02133">
        <ele>265.94</ele>
        <time>2012-06-17T13:59:21Z</time>
      </trkpt>
      <trkpt lat="48.61809" lon="6.02133">
        <ele>259.21</ele>
        <time>2012-06-17T13:59:23Z</time>
      </trkpt>
      <trkpt lat="48.61808" lon="6.02134">
        <ele>261.62</ele>
        <time>2012-06-17T13:59:24Z</time>
      </trkpt>
      <trkpt lat="48.61804" lon="6.02135">
        <ele>264.98</ele>
        <time>2012-06-17T13:59:27Z</time>
      </trkpt>
      <trkpt lat="48.61802" lon="6.02136">
        <ele>261.14</ele>
        <time>2012-06-17T13:59:29Z</time>
      </trkpt>
      <trkpt lat="48.61796" lon="6.02137">
        <ele>264.98</ele>
        <time>2012-06-17T13:59:35Z</time>
      </trkpt>
      <trkpt lat="48.61794" lon="6.02137">
        <ele>261.14</ele>
        <time>2012-06-17T13:59:37Z</time>
      </trkpt>
      <trkpt lat="48.61794" lon="6.02137">
        <ele>257.77</ele>
        <time>2012-06-17T13:59:38Z</time>
      </trkpt>
      <trkpt lat="48.61793" lon="6.02137">
        <ele>263.06</ele>
        <time>2012-06-17T13:59:39Z</time>
      </trkpt>
      <trkpt lat="48.61792" lon="6.02137">
        <ele>258.73</ele>
        <time>2012-06-17T13:59:43Z</time>
      </trkpt>
      <trkpt lat="48.61792" lon="6.02137">
        <ele>262.1</ele>
        <time>2012-06-17T13:59:44Z</time>
      </trkpt>
      <trkpt lat="48.6179" lon="6.02138">
        <ele>258.73</ele>
        <time>2012-06-17T13:59:45Z</time>
      </trkpt>
      <trkpt lat="48.61788" lon="6.02139">
        <ele>263.06</ele>
        <time>2012-06-17T13:59:46Z</time>
      </trkpt>
      <trkpt lat="48.61783" lon="6.0214">
        <ele>258.73</ele>
        <time>2012-06-17T13:59:50Z</time>
      </trkpt>
      <trkpt lat="48.61782" lon="6.02141">
        <ele>263.54</ele>
        <time>2012-06-17T13:59:51Z</time>
      </trkpt>
      <trkpt lat="48.61778" lon="6.02143">
        <ele>260.17</ele>
        <time>2012-06-17T13:59:55Z</time>
      </trkpt>
      <trkpt lat="48.61778" lon="6.02143">
        <ele>262.1</ele>
        <time>2012-06-17T13:59:56Z</time>
      </trkpt>
      <trkpt lat="48.6177" lon="6.02144">
        <ele>266.9</ele>
        <time>2012-06-17T14:00:01Z</time>
      </trkpt>
      <trkpt lat="48.61769" lon="6.02145">
        <ele>263.54</ele>
        <time>2012-06-17T14:00:02Z</time>
      </trkpt>
      <trkpt lat="48.61765" lon="6.02146">
        <ele>261.14</ele>
        <time>2012-06-17T14:00:04Z</time>
      </trkpt>
      <trkpt lat="48.61763" lon="6.02148">
        <ele>265.46</ele>
        <time>2012-06-17T14:00:06Z</time>
      </trkpt>
      <trkpt lat="48.61759" lon="6.0215">
        <ele>261.14</ele>
        <time>2012-06-17T14:00:09Z</time>
      </trkpt>
      <trkpt lat="48.61758" lon="6.0215">
        <ele>261.62</ele>
        <time>2012-06-17T14:00:10Z</time>
      </trkpt>
      <trkpt lat="48.61757" lon="6.02151">
        <ele>264.98</ele>
        <time>2012-06-17T14:00:11Z</time>
      </trkpt>
      <trkpt lat="48.61755" lon="6.02151">
        <ele>261.14</ele>
        <time>2012-06-17T14:00:12Z</time>
      </trkpt>
      <trkpt lat="48.61754" lon="6.02152">
        <ele>264.5</ele>
        <time>2012-06-17T14:00:13Z</time>
      </trkpt>
      <trkpt lat="48.61748" lon="6.02154">
        <ele>260.65</ele>
        <time>2012-06-17T14:00:17Z</time>
      </trkpt>
      <trkpt lat="48.61747" lon="6.02155">
        <ele>262.1</ele>
        <time>2012-06-17T14:00:18Z</time>
      </trkpt>
      <trkpt lat="48.61745" lon="6.02156">
        <ele>266.42</ele>
        <time>2012-06-17T14:00:20Z</time>
      </trkpt>
      <trkpt lat="48.61744" lon="6.02156">
        <ele>262.58</ele>
        <time>2012-06-17T14:00:22Z</time>
      </trkpt>
      <trkpt lat="48.61743" lon="6.02156">
        <ele>258.73</ele>
        <time>2012-06-17T14:00:23Z</time>
      </trkpt>
      <trkpt lat="48.61743" lon="6.02156">
        <ele>262.1</ele>
        <time>2012-06-17T14:00:24Z</time>
      </trkpt>
      <trkpt lat="48.61743" lon="6.02156">
        <ele>265.94</ele>
        <time>2012-06-17T14:00:25Z</time>
      </trkpt>
      <trkpt lat="48.61743" lon="6.02157">
        <ele>264.5</ele>
        <time>2012-06-17T14:00:26Z</time>
      </trkpt>
      <trkpt lat="48.6174" lon="6.02159">
        <ele>261.62</ele>
        <time>2012-06-17T14:00:30Z</time>
      </trkpt>
      <trkpt lat="48.6174" lon="6.02159">
        <ele>261.62</ele>
        <time>2012-06-17T14:00:31Z</time>
      </trkpt>
      <trkpt lat="48.6174" lon="6.02159">
        <ele>265.94</ele>
        <time>2012-06-17T14:00:33Z</time>
      </trkpt>
      <trkpt lat="48.61736" lon="6.02163">
        <ele>262.1</ele>
        <time>2012-06-17T14:00:38Z</time>
      </trkpt>
      <trkpt lat="48.61734" lon="6.02163">
        <ele>261.62</ele>
        <time>2012-06-17T14:00:39Z</time>
      </trkpt>
      <trkpt lat="48.61732" lon="6.02163">
        <ele>266.42</ele>
        <time>2012-06-17T14:00:41Z</time>
      </trkpt>
      <trkpt lat="48.61726" lon="6.02161">
        <ele>261.62</ele>
        <time>2012-06-17T14:00:44Z</time>
      </trkpt>
      <trkpt lat="48.61724" lon="6.02161">
        <ele>264.98</ele>
        <time>2012-06-17T14:00:45Z</time>
      </trkpt>
      <trkpt lat="48.61723" lon="6.02161">
        <ele>261.14</ele>
        <time>2012-06-17T14:00:48Z</time>
      </trkpt>
      <trkpt lat="48.61723" lon="6.02162">
        <ele>265.46</ele>
        <time>2012-06-17T14:00:49Z</time>
      </trkpt>
      <trkpt lat="48.61721" lon="6.02165">
        <ele>262.1</ele>
        <time>2012-06-17T14:00:53Z</time>
      </trkpt>
      <trkpt lat="48.61721" lon="6.02166">
        <ele>262.1</ele>
        <time>2012-06-17T14:00:54Z</time>
      </trkpt>
      <trkpt lat="48.61721" lon="6.02169">
        <ele>265.94</ele>
        <time>2012-06-17T14:00:56Z</time>
      </trkpt>
      <trkpt lat="48.61721" lon="6.02171">
        <ele>262.58</ele>
        <time>2012-06-17T14:00:58Z</time>
      </trkpt>
      <trkpt lat="48.61721" lon="6.02177">
        <ele>266.42</ele>
        <time>2012-06-17T14:01:03Z</time>
      </trkpt>
      <trkpt lat="48.61719" lon="6.02178">
        <ele>261.14</ele>
        <time>2012-06-17T14:01:06Z</time>
      </trkpt>
      <trkpt lat="48.61718" lon="6.02178">
        <ele>264.5</ele>
        <time>2012-06-17T14:01:07Z</time>
      </trkpt>
      <trkpt lat="48.61717" lon="6.02179">
        <ele>267.86</ele>
        <time>2012-06-17T14:01:09Z</time>
      </trkpt>
      <trkpt lat="48.61715" lon="6.02179">
        <ele>262.58</ele>
        <time>2012-06-17T14:01:11Z</time>
      </trkpt>
      <trkpt lat="48.61714" lon="6.02179">
        <ele>267.38</ele>
        <time>2012-06-17T14:01:12Z</time>
      </trkpt>
      <trkpt lat="48.61707" lon="6.02178">
        <ele>262.58</ele>
        <time>2012-06-17T14:01:15Z</time>
      </trkpt>
      <trkpt lat="48.61706" lon="6.02178">
        <ele>264.98</ele>
        <time>2012-06-17T14:01:16Z</time>
      </trkpt>
      <trkpt lat="48.61696" lon="6.02176">
        <ele>266.42</ele>
        <time>2012-06-17T14:01:19Z</time>
      </trkpt>
      <trkpt lat="48.61696" lon="6.02176">
        <ele>262.58</ele>
        <time>2012-06-17T14:01:20Z</time>
      </trkpt>
      <trkpt lat="48.61693" lon="6.02176">
        <ele>265.94</ele>
        <time>2012-06-17T14:01:23Z</time>
      </trkpt>
      <trkpt lat="48.61683" lon="6.02176">
        <ele>260.17</ele>
        <time>2012-06-17T14:01:29Z</time>
      </trkpt>
      <trkpt lat="48.61682" lon="6.02176">
        <ele>263.54</ele>
        <time>2012-06-17T14:01:30Z</time>
      </trkpt>
      <trkpt lat="48.6168" lon="6.02176">
        <ele>267.38</ele>
        <time>2012-06-17T14:01:33Z</time>
      </trkpt>
      <trkpt lat="48.61678" lon="6.02177">
        <ele>263.54</ele>
        <time>2012-06-17T14:01:34Z</time>
      </trkpt>
      <trkpt lat="48.61672" lon="6.02179">
        <ele>267.38</ele>
        <time>2012-06-17T14:01:40Z</time>
      </trkpt>
      <trkpt lat="48.61671" lon="6.0218">
        <ele>263.06</ele>
        <time>2012-06-17T14:01:42Z</time>
      </trkpt>
      <trkpt lat="48.61668" lon="6.02182">
        <ele>266.42</ele>
        <time>2012-06-17T14:01:45Z</time>
      </trkpt>
      <trkpt lat="48.61665" lon="6.02183">
        <ele>261.62</ele>
        <time>2012-06-17T14:01:48Z</time>
      </trkpt>
      <trkpt lat="48.61664" lon="6.02184">
        <ele>264.98</ele>
        <time>2012-06-17T14:01:49Z</time>
      </trkpt>
      <trkpt lat="48.61651" lon="6.02184">
        <ele>266.42</ele>
        <time>2012-06-17T14:01:59Z</time>
      </trkpt>
      <trkpt lat="48.61647" lon="6.02184">
        <ele>264.5</ele>
        <time>2012-06-17T14:02:02Z</time>
      </trkpt>
      <trkpt lat="48.6164" lon="6.02187">
        <ele>267.38</ele>
        <time>2012-06-17T14:02:08Z</time>
      </trkpt>
      <trkpt lat="48.61632" lon="6.02189">
        <ele>263.06</ele>
        <time>2012-06-17T14:02:11Z</time>
      </trkpt>
      <trkpt lat="48.6163" lon="6.0219">
        <ele>263.06</ele>
        <time>2012-06-17T14:02:12Z</time>
      </trkpt>
      <trkpt lat="48.61627" lon="6.0219">
        <ele>265.94</ele>
        <time>2012-06-17T14:02:13Z</time>
      </trkpt>
      <trkpt lat="48.61614" lon="6.02189">
        <ele>263.06</ele>
        <time>2012-06-17T14:02:19Z</time>
      </trkpt>
      <trkpt lat="48.61612" lon="6.02189">
        <ele>264.02</ele>
        <time>2012-06-17T14:02:20Z</time>
      </trkpt>
      <trkpt lat="48.6161" lon="6.02188">
        <ele>267.38</ele>
        <time>2012-06-17T14:02:22Z</time>
      </trkpt>
      <trkpt lat="48.61609" lon="6.02188">
        <ele>267.38</ele>
        <time>2012-06-17T14:02:23Z</time>
      </trkpt>
      <trkpt lat="48.61602" lon="6.02185">
        <ele>262.58</ele>
        <time>2012-06-17T14:02:26Z</time>
      </trkpt>
      <trkpt lat="48.616" lon="6.02185">
        <ele>264.5</ele>
        <time>2012-06-17T14:02:27Z</time>
      </trkpt>
      <trkpt lat="48.61598" lon="6.02185">
        <ele>267.38</ele>
        <time>2012-06-17T14:02:28Z</time>
      </trkpt>
      <trkpt lat="48.61594" lon="6.02188">
        <ele>263.54</ele>
        <time>2012-06-17T14:02:37Z</time>
      </trkpt>
      <trkpt lat="48.61594" lon="6.02188">
        <ele>267.86</ele>
        <time>2012-06-17T14:02:38Z</time>
      </trkpt>
      <trkpt lat="48.61594" lon="6.02188">
        <ele>264.5</ele>
        <time>2012-06-17T14:02:40Z</time>
      </trkpt>
      <trkpt lat="48.6159" lon="6.02188">
        <ele>267.86</ele>
        <time>2012-06-17T14:02:44Z</time>
      </trkpt>
      <trkpt lat="48.61587" lon="6.02189">
        <ele>264.5</ele>
        <time>2012-06-17T14:02:46Z</time>
      </trkpt>
      <trkpt lat="48.61583" lon="6.02188">
        <ele>268.35</ele>
        <time>2012-06-17T14:02:49Z</time>
      </trkpt>
      <trkpt lat="48.61577" lon="6.02184">
        <ele>264.02</ele>
        <time>2012-06-17T14:02:52Z</time>
      </trkpt>
      <trkpt lat="48.61575" lon="6.02183">
        <ele>262.58</ele>
        <time>2012-06-17T14:02:53Z</time>
      </trkpt>
      <trkpt lat="48.61572" lon="6.02184">
        <ele>264.02</ele>
        <time>2012-06-17T14:02:55Z</time>
      </trkpt>
      <trkpt lat="48.61568" lon="6.02186">
        <ele>267.86</ele>
        <time>2012-06-17T14:02:58Z</time>
      </trkpt>
      <trkpt lat="48.61568" lon="6.02186">
        <ele>264.5</ele>
        <time>2012-06-17T14:02:59Z</time>
      </trkpt>
      <trkpt lat="48.61567" lon="6.02186">
        <ele>267.86</ele>
        <time>2012-06-17T14:03:00Z</time>
      </trkpt>
      <trkpt lat="48.61567" lon="6.02188">
        <ele>263.06</ele>
        <time>2012-06-17T14:03:01Z</time>
      </trkpt>
      <trkpt lat="48.61566" lon="6.02188">
        <ele>264.02</ele>
        <time>2012-06-17T14:03:02Z</time>
      </trkpt>
      <trkpt lat="48.61565" lon="6.02189">
        <ele>266.9</ele>
        <time>2012-06-17T14:03:03Z</time>
      </trkpt>
      <trkpt lat="48.61561" lon="6.0219">
        <ele>268.35</ele>
        <time>2012-06-17T14:03:06Z</time>
      </trkpt>
      <trkpt lat="48.61557" lon="6.0219">
        <ele>261.14</ele>
        <time>2012-06-17T14:03:09Z</time>
      </trkpt>
      <trkpt lat="48.61555" lon="6.0219">
        <ele>266.42</ele>
        <time>2012-06-17T14:03:10Z</time>
      </trkpt>
      <trkpt lat="48.61552" lon="6.02191">
        <ele>269.79</ele>
        <time>2012-06-17T14:03:12Z</time>
      </trkpt>
      <trkpt lat="48.61551" lon="6.02191">
        <ele>264.98</ele>
        <time>2012-06-17T14:03:13Z</time>
      </trkpt>
      <trkpt lat="48.6155" lon="6.02192">
        <ele>261.14</ele>
        <time>2012-06-17T14:03:14Z</time>
      </trkpt>
      <trkpt lat="48.61549" lon="6.02192">
        <ele>264.98</ele>
        <time>2012-06-17T14:03:15Z</time>
      </trkpt>
      <trkpt lat="48.61548" lon="6.02192">
        <ele>269.31</ele>
        <time>2012-06-17T14:03:17Z</time>
      </trkpt>
      <trkpt lat="48.61548" lon="6.02193">
        <ele>268.83</ele>
        <time>2012-06-17T14:03:18Z</time>
      </trkpt>
      <trkpt lat="48.61546" lon="6.02194">
        <ele>264.5</ele>
        <time>2012-06-17T14:03:21Z</time>
      </trkpt>
      <trkpt lat="48.61545" lon="6.02194">
        <ele>264.98</ele>
        <time>2012-06-17T14:03:22Z</time>
      </trkpt>
      <trkpt lat="48.61542" lon="6.02193">
        <ele>268.35</ele>
        <time>2012-06-17T14:03:24Z</time>
      </trkpt>
      <trkpt lat="48.61537" lon="6.02193">
        <ele>264.5</ele>
        <time>2012-06-17T14:03:27Z</time>
      </trkpt>
      <trkpt lat="48.61533" lon="6.02194">
        <ele>267.86</ele>
        <time>2012-06-17T14:03:29Z</time>
      </trkpt>
      <trkpt lat="48.61524" lon="6.02195">
        <ele>264.02</ele>
        <time>2012-06-17T14:03:35Z</time>
      </trkpt>
      <trkpt lat="48.61523" lon="6.02195">
        <ele>266.9</ele>
        <time>2012-06-17T14:03:36Z</time>
      </trkpt>
      <trkpt lat="48.61522" lon="6.02196">
        <ele>269.31</ele>
        <time>2012-06-17T14:03:39Z</time>
      </trkpt>
      <trkpt lat="48.61522" lon="6.02196">
        <ele>265.94</ele>
        <time>2012-06-17T14:03:40Z</time>
      </trkpt>
      <trkpt lat="48.61519" lon="6.02199">
        <ele>269.79</ele>
        <time>2012-06-17T14:03:46Z</time>
      </trkpt>
      <trkpt lat="48.61517" lon="6.02199">
        <ele>264.5</ele>
        <time>2012-06-17T14:03:48Z</time>
      </trkpt>
      <trkpt lat="48.61516" lon="6.02199">
        <ele>265.46</ele>
        <time>2012-06-17T14:03:49Z</time>
      </trkpt>
      <trkpt lat="48.61514" lon="6.02199">
        <ele>268.35</ele>
        <time>2012-06-17T14:03:50Z</time>
      </trkpt>
      <trkpt lat="48.61513" lon="6.02199">
        <ele>269.31</ele>
        <time>2012-06-17T14:03:52Z</time>
      </trkpt>
      <trkpt lat="48.61512" lon="6.02199">
        <ele>264.98</ele>
        <time>2012-06-17T14:03:53Z</time>
      </trkpt>
      <trkpt lat="48.61511" lon="6.022">
        <ele>270.27</ele>
        <time>2012-06-17T14:03:54Z</time>
      </trkpt>
      <trkpt lat="48.61509" lon="6.022">
        <ele>266.42</ele>
        <time>2012-06-17T14:03:55Z</time>
      </trkpt>
      <trkpt lat="48.61507" lon="6.02199">
        <ele>259.21</ele>
        <time>2012-06-17T14:03:56Z</time>
      </trkpt>
      <trkpt lat="48.61506" lon="6.02199">
        <ele>259.21</ele>
        <time>2012-06-17T14:03:57Z</time>
      </trkpt>
      <trkpt lat="48.61504" lon="6.02199">
        <ele>265.94</ele>
        <time>2012-06-17T14:03:58Z</time>
      </trkpt>
      <trkpt lat="48.61501" lon="6.02196">
        <ele>262.58</ele>
        <time>2012-06-17T14:04:02Z</time>
      </trkpt>
      <trkpt lat="48.615" lon="6.02195">
        <ele>265.46</ele>
        <time>2012-06-17T14:04:03Z</time>
      </trkpt>
      <trkpt lat="48.615" lon="6.02194">
        <ele>275.07</ele>
        <time>2012-06-17T14:04:04Z</time>
      </trkpt>
      <trkpt lat="48.61499" lon="6.02193">
        <ele>269.31</ele>
        <time>2012-06-17T14:04:05Z</time>
      </trkpt>
      <trkpt lat="48.61498" lon="6.02192">
        <ele>264.02</ele>
        <time>2012-06-17T14:04:08Z</time>
      </trkpt>
      <trkpt lat="48.61497" lon="6.02192">
        <ele>268.35</ele>
        <time>2012-06-17T14:04:09Z</time>
      </trkpt>
      <trkpt lat="48.61493" lon="6.02194">
        <ele>263.06</ele>
        <time>2012-06-17T14:04:15Z</time>
      </trkpt>
      <trkpt lat="48.61492" lon="6.02194">
        <ele>267.86</ele>
        <time>2012-06-17T14:04:16Z</time>
      </trkpt>
      <trkpt lat="48.61492" lon="6.02194">
        <ele>270.27</ele>
        <time>2012-06-17T14:04:17Z</time>
      </trkpt>
      <trkpt lat="48.61491" lon="6.02195">
        <ele>264.02</ele>
        <time>2012-06-17T14:04:19Z</time>
      </trkpt>
      <trkpt lat="48.6149" lon="6.02195">
        <ele>266.9</ele>
        <time>2012-06-17T14:04:20Z</time>
      </trkpt>
      <trkpt lat="48.61489" lon="6.02195">
        <ele>270.27</ele>
        <time>2012-06-17T14:04:22Z</time>
      </trkpt>
      <trkpt lat="48.61482" lon="6.02195">
        <ele>269.79</ele>
        <time>2012-06-17T14:04:25Z</time>
      </trkpt>
      <trkpt lat="48.6148" lon="6.02196">
        <ele>266.42</ele>
        <time>2012-06-17T14:04:26Z</time>
      </trkpt>
      <trkpt lat="48.61477" lon="6.02198">
        <ele>269.31</ele>
        <time>2012-06-17T14:04:29Z</time>
      </trkpt>
      <trkpt lat="48.61475" lon="6.02199">
        <ele>270.27</ele>
        <time>2012-06-17T14:04:30Z</time>
      </trkpt>
      <trkpt lat="48.61474" lon="6.022">
        <ele>266.9</ele>
        <time>2012-06-17T14:04:31Z</time>
      </trkpt>
      <trkpt lat="48.61473" lon="6.02201">
        <ele>264.5</ele>
        <time>2012-06-17T14:04:32Z</time>
      </trkpt>
      <trkpt lat="48.61466" lon="6.02203">
        <ele>264.02</ele>
        <time>2012-06-17T14:04:39Z</time>
      </trkpt>
      <trkpt lat="48.61465" lon="6.02203">
        <ele>266.9</ele>
        <time>2012-06-17T14:04:40Z</time>
      </trkpt>
      <trkpt lat="48.61465" lon="6.02203">
        <ele>270.75</ele>
        <time>2012-06-17T14:04:43Z</time>
      </trkpt>
      <trkpt lat="48.61465" lon="6.02203">
        <ele>265.94</ele>
        <time>2012-06-17T14:04:44Z</time>
      </trkpt>
      <trkpt lat="48.61465" lon="6.02203">
        <ele>265.94</ele>
        <time>2012-06-17T14:04:45Z</time>
      </trkpt>
      <trkpt lat="48.61464" lon="6.02204">
        <ele>269.31</ele>
        <time>2012-06-17T14:04:48Z</time>
      </trkpt>
      <trkpt lat="48.61461" lon="6.02204">
        <ele>265.94</ele>
        <time>2012-06-17T14:04:50Z</time>
      </trkpt>
      <trkpt lat="48.6146" lon="6.02204">
        <ele>266.9</ele>
        <time>2012-06-17T14:04:51Z</time>
      </trkpt>
      <trkpt lat="48.6146" lon="6.02204">
        <ele>271.23</ele>
        <time>2012-06-17T14:04:53Z</time>
      </trkpt>
      <trkpt lat="48.6146" lon="6.02204">
        <ele>266.9</ele>
        <time>2012-06-17T14:04:54Z</time>
      </trkpt>
      <trkpt lat="48.6146" lon="6.02204">
        <ele>263.54</ele>
        <time>2012-06-17T14:04:55Z</time>
      </trkpt>
      <trkpt lat="48.6146" lon="6.02204">
        <ele>269.31</ele>
        <time>2012-06-17T14:04:56Z</time>
      </trkpt>
      <trkpt lat="48.61458" lon="6.02205">
        <ele>269.79</ele>
        <time>2012-06-17T14:04:58Z</time>
      </trkpt>
      <trkpt lat="48.61457" lon="6.02205">
        <ele>263.54</ele>
        <time>2012-06-17T14:04:59Z</time>
      </trkpt>
      <trkpt lat="48.61457" lon="6.02206">
        <ele>267.38</ele>
        <time>2012-06-17T14:05:00Z</time>
      </trkpt>
      <trkpt lat="48.61456" lon="6.02207">
        <ele>264.5</ele>
        <time>2012-06-17T14:05:01Z</time>
      </trkpt>
      <trkpt lat="48.61455" lon="6.02208">
        <ele>267.86</ele>
        <time>2012-06-17T14:05:02Z</time>
      </trkpt>
      <trkpt lat="48.61451" lon="6.02208">
        <ele>268.35</ele>
        <time>2012-06-17T14:05:07Z</time>
      </trkpt>
      <trkpt lat="48.61444" lon="6.02209">
        <ele>264.5</ele>
        <time>2012-06-17T14:05:17Z</time>
      </trkpt>
      <trkpt lat="48.61443" lon="6.02209">
        <ele>269.31</ele>
        <time>2012-06-17T14:05:18Z</time>
      </trkpt>
      <trkpt lat="48.6144" lon="6.02209">
        <ele>267.38</ele>
        <time>2012-06-17T14:05:20Z</time>
      </trkpt>
      <trkpt lat="48.61435" lon="6.0221">
        <ele>265.46</ele>
        <time>2012-06-17T14:05:23Z</time>
      </trkpt>
      <trkpt lat="48.61431" lon="6.02211">
        <ele>269.31</ele>
        <time>2012-06-17T14:05:26Z</time>
      </trkpt>
      <trkpt lat="48.61427" lon="6.02213">
        <ele>266.9</ele>
        <time>2012-06-17T14:05:30Z</time>
      </trkpt>
      <trkpt lat="48.61425" lon="6.02214">
        <ele>270.27</ele>
        <time>2012-06-17T14:05:32Z</time>
      </trkpt>
      <trkpt lat="48.61423" lon="6.02215">
        <ele>266.42</ele>
        <time>2012-06-17T14:05:34Z</time>
      </trkpt>
      <trkpt lat="48.61422" lon="6.02215">
        <ele>270.27</ele>
        <time>2012-06-17T14:05:35Z</time>
      </trkpt>
      <trkpt lat="48.61421" lon="6.02215">
        <ele>267.38</ele>
        <time>2012-06-17T14:05:36Z</time>
      </trkpt>
      <trkpt lat="48.61417" lon="6.02216">
        <ele>271.23</ele>
        <time>2012-06-17T14:05:40Z</time>
      </trkpt>
      <trkpt lat="48.61414" lon="6.02217">
        <ele>263.06</ele>
        <time>2012-06-17T14:05:42Z</time>
      </trkpt>
      <trkpt lat="48.61414" lon="6.02217">
        <ele>269.31</ele>
        <time>2012-06-17T14:05:43Z</time>
      </trkpt>
      <trkpt lat="48.61414" lon="6.02217">
        <ele>266.42</ele>
        <time>2012-06-17T14:05:46Z</time>
      </trkpt>
      <trkpt lat="48.61414" lon="6.02217">
        <ele>269.31</ele>
        <time>2012-06-17T14:05:47Z</time>
      </trkpt>
      <trkpt lat="48.6141" lon="6.02218">
        <ele>273.15</ele>
        <time>2012-06-17T14:05:51Z</time>
      </trkpt>
      <trkpt lat="48.61409" lon="6.02218">
        <ele>267.38</ele>
        <time>2012-06-17T14:05:52Z</time>
      </trkpt>
      <trkpt lat="48.61408" lon="6.02218">
        <ele>267.86</ele>
        <time>2012-06-17T14:05:53Z</time>
      </trkpt>
      <trkpt lat="48.61406" lon="6.02218">
        <ele>268.83</ele>
        <time>2012-06-17T14:05:55Z</time>
      </trkpt>
      <trkpt lat="48.61403" lon="6.02216">
        <ele>273.15</ele>
        <time>2012-06-17T14:06:00Z</time>
      </trkpt>
      <trkpt lat="48.61403" lon="6.02217">
        <ele>267.38</ele>
        <time>2012-06-17T14:06:01Z</time>
      </trkpt>
      <trkpt lat="48.61402" lon="6.02217">
        <ele>270.75</ele>
        <time>2012-06-17T14:06:02Z</time>
      </trkpt>
      <trkpt lat="48.61399" lon="6.02219">
        <ele>265.94</ele>
        <time>2012-06-17T14:06:07Z</time>
      </trkpt>
      <trkpt lat="48.61398" lon="6.02219">
        <ele>268.35</ele>
        <time>2012-06-17T14:06:08Z</time>
      </trkpt>
      <trkpt lat="48.61398" lon="6.02219">
        <ele>272.67</ele>
        <time>2012-06-17T14:06:09Z</time>
      </trkpt>
      <trkpt lat="48.61398" lon="6.02219">
        <ele>267.86</ele>
        <time>2012-06-17T14:06:10Z</time>
      </trkpt>
      <trkpt lat="48.61398" lon="6.0222">
        <ele>272.19</ele>
        <time>2012-06-17T14:06:12Z</time>
      </trkpt>
      <trkpt lat="48.61397" lon="6.0222">
        <ele>266.9</ele>
        <time>2012-06-17T14:06:13Z</time>
      </trkpt>
      <trkpt lat="48.61397" lon="6.0222">
        <ele>270.75</ele>
        <time>2012-06-17T14:06:16Z</time>
      </trkpt>
      <trkpt lat="48.61397" lon="6.0222">
        <ele>266.9</ele>
        <time>2012-06-17T14:06:18Z</time>
      </trkpt>
      <trkpt lat="48.61397" lon="6.0222">
        <ele>268.35</ele>
        <time>2012-06-17T14:06:19Z</time>
      </trkpt>
      <trkpt lat="48.61396" lon="6.02221">
        <ele>271.71</ele>
        <time>2012-06-17T14:06:20Z</time>
      </trkpt>
      <trkpt lat="48.61393" lon="6.02222">
        <ele>267.38</ele>
        <time>2012-06-17T14:06:22Z</time>
      </trkpt>
      <trkpt lat="48.61388" lon="6.02223">
        <ele>272.19</ele>
        <time>2012-06-17T14:06:25Z</time>
      </trkpt>
      <trkpt lat="48.61387" lon="6.02224">
        <ele>272.67</ele>
        <time>2012-06-17T14:06:26Z</time>
      </trkpt>
      <trkpt lat="48.61383" lon="6.02224">
        <ele>272.67</ele>
        <time>2012-06-17T14:06:28Z</time>
      </trkpt>
      <trkpt lat="48.61382" lon="6.02225">
        <ele>269.31</ele>
        <time>2012-06-17T14:06:29Z</time>
      </trkpt>
      <trkpt lat="48.61377" lon="6.02226">
        <ele>271.71</ele>
        <time>2012-06-17T14:06:34Z</time>
      </trkpt>
      <trkpt lat="48.61375" lon="6.02225">
        <ele>267.38</ele>
        <time>2012-06-17T14:06:35Z</time>
      </trkpt>
      <trkpt lat="48.61372" lon="6.02225">
        <ele>270.75</ele>
        <time>2012-06-17T14:06:37Z</time>
      </trkpt>
      <trkpt lat="48.6137" lon="6.02225">
        <ele>262.1</ele>
        <time>2012-06-17T14:06:40Z</time>
      </trkpt>
      <trkpt lat="48.61369" lon="6.02224">
        <ele>271.23</ele>
        <time>2012-06-17T14:06:41Z</time>
      </trkpt>
      <trkpt lat="48.61369" lon="6.02224">
        <ele>275.07</ele>
        <time>2012-06-17T14:06:42Z</time>
      </trkpt>
      <trkpt lat="48.61368" lon="6.02224">
        <ele>270.75</ele>
        <time>2012-06-17T14:06:43Z</time>
      </trkpt>
      <trkpt lat="48.61363" lon="6.02227">
        <ele>272.19</ele>
        <time>2012-06-17T14:06:48Z</time>
      </trkpt>
      <trkpt lat="48.61362" lon="6.02227">
        <ele>268.83</ele>
        <time>2012-06-17T14:06:49Z</time>
      </trkpt>
      <trkpt lat="48.61355" lon="6.02225">
        <ele>271.23</ele>
        <time>2012-06-17T14:06:54Z</time>
      </trkpt>
      <trkpt lat="48.61346" lon="6.0222">
        <ele>266.9</ele>
        <time>2012-06-17T14:06:58Z</time>
      </trkpt>
      <trkpt lat="48.61343" lon="6.0222">
        <ele>271.23</ele>
        <time>2012-06-17T14:07:00Z</time>
      </trkpt>
      <trkpt lat="48.61342" lon="6.0222">
        <ele>266.9</ele>
        <time>2012-06-17T14:07:06Z</time>
      </trkpt>
      <trkpt lat="48.61342" lon="6.0222">
        <ele>269.79</ele>
        <time>2012-06-17T14:07:07Z</time>
      </trkpt>
      <trkpt lat="48.61338" lon="6.02221">
        <ele>273.63</ele>
        <time>2012-06-17T14:07:10Z</time>
      </trkpt>
      <trkpt lat="48.61336" lon="6.02221">
        <ele>269.79</ele>
        <time>2012-06-17T14:07:11Z</time>
      </trkpt>
      <trkpt lat="48.61335" lon="6.02221">
        <ele>268.35</ele>
        <time>2012-06-17T14:07:13Z</time>
      </trkpt>
      <trkpt lat="48.61333" lon="6.02221">
        <ele>272.67</ele>
        <time>2012-06-17T14:07:15Z</time>
      </trkpt>
      <trkpt lat="48.61328" lon="6.02221">
        <ele>268.35</ele>
        <time>2012-06-17T14:07:19Z</time>
      </trkpt>
      <trkpt lat="48.61327" lon="6.0222">
        <ele>268.35</ele>
        <time>2012-06-17T14:07:20Z</time>
      </trkpt>
      <trkpt lat="48.61327" lon="6.0222">
        <ele>272.67</ele>
        <time>2012-06-17T14:07:21Z</time>
      </trkpt>
      <trkpt lat="48.61325" lon="6.02219">
        <ele>266.42</ele>
        <time>2012-06-17T14:07:24Z</time>
      </trkpt>
      <trkpt lat="48.61325" lon="6.02219">
        <ele>271.71</ele>
        <time>2012-06-17T14:07:25Z</time>
      </trkpt>
      <trkpt lat="48.61324" lon="6.02219">
        <ele>272.67</ele>
        <time>2012-06-17T14:07:27Z</time>
      </trkpt>
      <trkpt lat="48.61322" lon="6.02219">
        <ele>276.04</ele>
        <time>2012-06-17T14:07:28Z</time>
      </trkpt>
      <trkpt lat="48.61322" lon="6.02219">
        <ele>269.31</ele>
        <time>2012-06-17T14:07:29Z</time>
      </trkpt>
      <trkpt lat="48.61321" lon="6.02219">
        <ele>268.83</ele>
        <time>2012-06-17T14:07:30Z</time>
      </trkpt>
      <trkpt lat="48.61318" lon="6.02219">
        <ele>273.63</ele>
        <time>2012-06-17T14:07:31Z</time>
      </trkpt>
      <trkpt lat="48.61315" lon="6.02219">
        <ele>270.27</ele>
        <time>2012-06-17T14:07:33Z</time>
      </trkpt>
      <trkpt lat="48.61313" lon="6.02219">
        <ele>270.27</ele>
        <time>2012-06-17T14:07:34Z</time>
      </trkpt>
      <trkpt lat="48.61311" lon="6.02219">
        <ele>274.59</ele>
        <time>2012-06-17T14:07:35Z</time>
      </trkpt>
      <trkpt lat="48.61309" lon="6.02219">
        <ele>267.38</ele>
        <time>2012-06-17T14:07:37Z</time>
      </trkpt>
      <trkpt lat="48.61307" lon="6.02218">
        <ele>273.15</ele>
        <time>2012-06-17T14:07:38Z</time>
      </trkpt>
      <trkpt lat="48.61302" lon="6.02219">
        <ele>267.38</ele>
        <time>2012-06-17T14:07:42Z</time>
      </trkpt>
      <trkpt lat="48.61301" lon="6.0222">
        <ele>275.07</ele>
        <time>2012-06-17T14:07:43Z</time>
      </trkpt>
      <trkpt lat="48.613" lon="6.02221">
        <ele>277.96</ele>
        <time>2012-06-17T14:07:44Z</time>
      </trkpt>
      <trkpt lat="48.61299" lon="6.02221">
        <ele>271.71</ele>
        <time>2012-06-17T14:07:45Z</time>
      </trkpt>
      <trkpt lat="48.61297" lon="6.02222">
        <ele>275.56</ele>
        <time>2012-06-17T14:07:47Z</time>
      </trkpt>
      <trkpt lat="48.61294" lon="6.02224">
        <ele>270.75</ele>
        <time>2012-06-17T14:07:49Z</time>
      </trkpt>
      <trkpt lat="48.61293" lon="6.02224">
        <ele>273.15</ele>
        <time>2012-06-17T14:07:50Z</time>
      </trkpt>
      <trkpt lat="48.61292" lon="6.02226">
        <ele>276.04</ele>
        <time>2012-06-17T14:07:52Z</time>
      </trkpt>
      <trkpt lat="48.6129" lon="6.02228">
        <ele>271.71</ele>
        <time>2012-06-17T14:07:54Z</time>
      </trkpt>
      <trkpt lat="48.61289" lon="6.02228">
        <ele>271.71</ele>
        <time>2012-06-17T14:07:55Z</time>
      </trkpt>
      <trkpt lat="48.61289" lon="6.02229">
        <ele>276.04</ele>
        <time>2012-06-17T14:07:56Z</time>
      </trkpt>
      <trkpt lat="48.61288" lon="6.0223">
        <ele>268.35</ele>
        <time>2012-06-17T14:07:58Z</time>
      </trkpt>
      <trkpt lat="48.61287" lon="6.02231">
        <ele>275.56</ele>
        <time>2012-06-17T14:07:59Z</time>
      </trkpt>
      <trkpt lat="48.61286" lon="6.02233">
        <ele>270.27</ele>
        <time>2012-06-17T14:08:01Z</time>
      </trkpt>
      <trkpt lat="48.61286" lon="6.02234">
        <ele>276.52</ele>
        <time>2012-06-17T14:08:02Z</time>
      </trkpt>
      <trkpt lat="48.61285" lon="6.02238">
        <ele>279.88</ele>
        <time>2012-06-17T14:08:05Z</time>
      </trkpt>
      <trkpt lat="48.61284" lon="6.02239">
        <ele>269.31</ele>
        <time>2012-06-17T14:08:06Z</time>
      </trkpt>
      <trkpt lat="48.61283" lon="6.0224">
        <ele>277</ele>
        <time>2012-06-17T14:08:07Z</time>
      </trkpt>
      <trkpt lat="48.61281" lon="6.0224">
        <ele>279.88</ele>
        <time>2012-06-17T14:08:09Z</time>
      </trkpt>
      <trkpt lat="48.6128" lon="6.02241">
        <ele>274.59</ele>
        <time>2012-06-17T14:08:10Z</time>
      </trkpt>
      <trkpt lat="48.6128" lon="6.02241">
        <ele>279.88</ele>
        <time>2012-06-17T14:08:11Z</time>
      </trkpt>
      <trkpt lat="48.61279" lon="6.02242">
        <ele>267.38</ele>
        <time>2012-06-17T14:08:12Z</time>
      </trkpt>
      <trkpt lat="48.61279" lon="6.02242">
        <ele>277</ele>
        <time>2012-06-17T14:08:13Z</time>
      </trkpt>
      <trkpt lat="48.61278" lon="6.02243">
        <ele>280.36</ele>
        <time>2012-06-17T14:08:14Z</time>
      </trkpt>
      <trkpt lat="48.61278" lon="6.02243">
        <ele>273.15</ele>
        <time>2012-06-17T14:08:15Z</time>
      </trkpt>
      <trkpt lat="48.61278" lon="6.02243">
        <ele>277.96</ele>
        <time>2012-06-17T14:08:16Z</time>
      </trkpt>
      <trkpt lat="48.61278" lon="6.02243">
        <ele>283.25</ele>
        <time>2012-06-17T14:08:17Z</time>
      </trkpt>
      <trkpt lat="48.61278" lon="6.02243">
        <ele>270.75</ele>
        <time>2012-06-17T14:08:18Z</time>
      </trkpt>
      <trkpt lat="48.61278" lon="6.02243">
        <ele>279.4</ele>
        <time>2012-06-17T14:08:19Z</time>
      </trkpt>
      <trkpt lat="48.61277" lon="6.02245">
        <ele>275.56</ele>
        <time>2012-06-17T14:08:22Z</time>
      </trkpt>
      <trkpt lat="48.61276" lon="6.02246">
        <ele>281.32</ele>
        <time>2012-06-17T14:08:23Z</time>
      </trkpt>
      <trkpt lat="48.61275" lon="6.02247">
        <ele>269.31</ele>
        <time>2012-06-17T14:08:24Z</time>
      </trkpt>
      <trkpt lat="48.61274" lon="6.02248">
        <ele>279.4</ele>
        <time>2012-06-17T14:08:25Z</time>
      </trkpt>
      <trkpt lat="48.61272" lon="6.02249">
        <ele>273.15</ele>
        <time>2012-06-17T14:08:27Z</time>
      </trkpt>
      <trkpt lat="48.61271" lon="6.0225">
        <ele>279.88</ele>
        <time>2012-06-17T14:08:28Z</time>
      </trkpt>
      <trkpt lat="48.6127" lon="6.0225">
        <ele>282.77</ele>
        <time>2012-06-17T14:08:29Z</time>
      </trkpt>
      <trkpt lat="48.61269" lon="6.02251">
        <ele>274.59</ele>
        <time>2012-06-17T14:08:30Z</time>
      </trkpt>
      <trkpt lat="48.61269" lon="6.02252">
        <ele>280.84</ele>
        <time>2012-06-17T14:08:31Z</time>
      </trkpt>
      <trkpt lat="48.61267" lon="6.02253">
        <ele>284.69</ele>
        <time>2012-06-17T14:08:32Z</time>
      </trkpt>
      <trkpt lat="48.61266" lon="6.02253">
        <ele>277.96</ele>
        <time>2012-06-17T14:08:33Z</time>
      </trkpt>
      <trkpt lat="48.61264" lon="6.02255">
        <ele>285.17</ele>
        <time>2012-06-17T14:08:35Z</time>
      </trkpt>
      <trkpt lat="48.61264" lon="6.02255">
        <ele>272.19</ele>
        <time>2012-06-17T14:08:36Z</time>
      </trkpt>
      <trkpt lat="48.61264" lon="6.02255">
        <ele>283.25</ele>
        <time>2012-06-17T14:08:37Z</time>
      </trkpt>
      <trkpt lat="48.61263" lon="6.02256">
        <ele>273.63</ele>
        <time>2012-06-17T14:08:38Z</time>
      </trkpt>
      <trkpt lat="48.61263" lon="6.02257">
        <ele>282.77</ele>
        <time>2012-06-17T14:08:39Z</time>
      </trkpt>
      <trkpt lat="48.61263" lon="6.02258">
        <ele>287.09</ele>
        <time>2012-06-17T14:08:40Z</time>
      </trkpt>
      <trkpt lat="48.61263" lon="6.02259">
        <ele>275.56</ele>
        <time>2012-06-17T14:08:41Z</time>
      </trkpt>
      <trkpt lat="48.61263" lon="6.0226">
        <ele>286.61</ele>
        <time>2012-06-17T14:08:42Z</time>
      </trkpt>
      <trkpt lat="48.61262" lon="6.02261">
        <ele>275.56</ele>
        <time>2012-06-17T14:08:43Z</time>
      </trkpt>
      <trkpt lat="48.61262" lon="6.02263">
        <ele>283.73</ele>
        <time>2012-06-17T14:08:45Z</time>
      </trkpt>
      <trkpt lat="48.61262" lon="6.02264">
        <ele>277</ele>
        <time>2012-06-17T14:08:46Z</time>
      </trkpt>
      <trkpt lat="48.61261" lon="6.02265">
        <ele>283.73</ele>
        <time>2012-06-17T14:08:47Z</time>
      </trkpt>
      <trkpt lat="48.61259" lon="6.02268">
        <ele>287.57</ele>
        <time>2012-06-17T14:08:50Z</time>
      </trkpt>
      <trkpt lat="48.61258" lon="6.02269">
        <ele>276.04</ele>
        <time>2012-06-17T14:08:51Z</time>
      </trkpt>
      <trkpt lat="48.61257" lon="6.0227">
        <ele>286.13</ele>
        <time>2012-06-17T14:08:52Z</time>
      </trkpt>
      <trkpt lat="48.61256" lon="6.0227">
        <ele>277.48</ele>
        <time>2012-06-17T14:08:53Z</time>
      </trkpt>
      <trkpt lat="48.61255" lon="6.02271">
        <ele>285.17</ele>
        <time>2012-06-17T14:08:54Z</time>
      </trkpt>
      <trkpt lat="48.61251" lon="6.02273">
        <ele>290.94</ele>
        <time>2012-06-17T14:09:00Z</time>
      </trkpt>
      <trkpt lat="48.6125" lon="6.02273">
        <ele>280.36</ele>
        <time>2012-06-17T14:09:01Z</time>
      </trkpt>
      <trkpt lat="48.6125" lon="6.02274">
        <ele>289.01</ele>
        <time>2012-06-17T14:09:02Z</time>
      </trkpt>
      <trkpt lat="48.61249" lon="6.02274">
        <ele>278.44</ele>
        <time>2012-06-17T14:09:03Z</time>
      </trkpt>
      <trkpt lat="48.61249" lon="6.02275">
        <ele>286.61</ele>
        <time>2012-06-17T14:09:04Z</time>
      </trkpt>
      <trkpt lat="48.61248" lon="6.02276">
        <ele>283.25</ele>
        <time>2012-06-17T14:09:06Z</time>
      </trkpt>
      <trkpt lat="48.61248" lon="6.02277">
        <ele>290.94</ele>
        <time>2012-06-17T14:09:07Z</time>
      </trkpt>
      <trkpt lat="48.61248" lon="6.02277">
        <ele>277.48</ele>
        <time>2012-06-17T14:09:08Z</time>
      </trkpt>
      <trkpt lat="48.61247" lon="6.02278">
        <ele>281.32</ele>
        <time>2012-06-17T14:09:09Z</time>
      </trkpt>
      <trkpt lat="48.61247" lon="6.02278">
        <ele>288.53</ele>
        <time>2012-06-17T14:09:10Z</time>
      </trkpt>
      <trkpt lat="48.61247" lon="6.02278">
        <ele>279.4</ele>
        <time>2012-06-17T14:09:11Z</time>
      </trkpt>
      <trkpt lat="48.61247" lon="6.02279">
        <ele>288.05</ele>
        <time>2012-06-17T14:09:12Z</time>
      </trkpt>
      <trkpt lat="48.61247" lon="6.0228">
        <ele>292.86</ele>
        <time>2012-06-17T14:09:13Z</time>
      </trkpt>
      <trkpt lat="48.61247" lon="6.0228">
        <ele>281.8</ele>
        <time>2012-06-17T14:09:14Z</time>
      </trkpt>
      <trkpt lat="48.61245" lon="6.02281">
        <ele>289.01</ele>
        <time>2012-06-17T14:09:15Z</time>
      </trkpt>
      <trkpt lat="48.61244" lon="6.02282">
        <ele>292.38</ele>
        <time>2012-06-17T14:09:18Z</time>
      </trkpt>
      <trkpt lat="48.61244" lon="6.02282">
        <ele>281.8</ele>
        <time>2012-06-17T14:09:19Z</time>
      </trkpt>
      <trkpt lat="48.61243" lon="6.02284">
        <ele>288.53</ele>
        <time>2012-06-17T14:09:20Z</time>
      </trkpt>
      <trkpt lat="48.61241" lon="6.02286">
        <ele>285.17</ele>
        <time>2012-06-17T14:09:23Z</time>
      </trkpt>
      <trkpt lat="48.6124" lon="6.02286">
        <ele>290.94</ele>
        <time>2012-06-17T14:09:24Z</time>
      </trkpt>
      <trkpt lat="48.61239" lon="6.02287">
        <ele>282.77</ele>
        <time>2012-06-17T14:09:25Z</time>
      </trkpt>
      <trkpt lat="48.61238" lon="6.02288">
        <ele>289.01</ele>
        <time>2012-06-17T14:09:26Z</time>
      </trkpt>
      <trkpt lat="48.61238" lon="6.02289">
        <ele>293.82</ele>
        <time>2012-06-17T14:09:27Z</time>
      </trkpt>
      <trkpt lat="48.61237" lon="6.02289">
        <ele>279.88</ele>
        <time>2012-06-17T14:09:28Z</time>
      </trkpt>
      <trkpt lat="48.61236" lon="6.0229">
        <ele>290.46</ele>
        <time>2012-06-17T14:09:29Z</time>
      </trkpt>
      <trkpt lat="48.61235" lon="6.02292">
        <ele>294.78</ele>
        <time>2012-06-17T14:09:32Z</time>
      </trkpt>
      <trkpt lat="48.61235" lon="6.02293">
        <ele>294.78</ele>
        <time>2012-06-17T14:09:33Z</time>
      </trkpt>
      <trkpt lat="48.61235" lon="6.02294">
        <ele>281.8</ele>
        <time>2012-06-17T14:09:34Z</time>
      </trkpt>
      <trkpt lat="48.61234" lon="6.02294">
        <ele>290.94</ele>
        <time>2012-06-17T14:09:35Z</time>
      </trkpt>
      <trkpt lat="48.61234" lon="6.02295">
        <ele>282.28</ele>
        <time>2012-06-17T14:09:36Z</time>
      </trkpt>
      <trkpt lat="48.61233" lon="6.02295">
        <ele>291.9</ele>
        <time>2012-06-17T14:09:37Z</time>
      </trkpt>
      <trkpt lat="48.61232" lon="6.02297">
        <ele>285.65</ele>
        <time>2012-06-17T14:09:39Z</time>
      </trkpt>
      <trkpt lat="48.61231" lon="6.02298">
        <ele>293.34</ele>
        <time>2012-06-17T14:09:40Z</time>
      </trkpt>
      <trkpt lat="48.6123" lon="6.02299">
        <ele>288.53</ele>
        <time>2012-06-17T14:09:41Z</time>
      </trkpt>
      <trkpt lat="48.61227" lon="6.02301">
        <ele>297.18</ele>
        <time>2012-06-17T14:09:43Z</time>
      </trkpt>
      <trkpt lat="48.61226" lon="6.02302">
        <ele>282.77</ele>
        <time>2012-06-17T14:09:44Z</time>
      </trkpt>
      <trkpt lat="48.61225" lon="6.02302">
        <ele>281.32</ele>
        <time>2012-06-17T14:09:45Z</time>
      </trkpt>
      <trkpt lat="48.61224" lon="6.02303">
        <ele>298.15</ele>
        <time>2012-06-17T14:09:46Z</time>
      </trkpt>
      <trkpt lat="48.61223" lon="6.02304">
        <ele>292.38</ele>
        <time>2012-06-17T14:09:47Z</time>
      </trkpt>
      <trkpt lat="48.61222" lon="6.02305">
        <ele>288.53</ele>
        <time>2012-06-17T14:09:48Z</time>
      </trkpt>
      <trkpt lat="48.61222" lon="6.02305">
        <ele>295.74</ele>
        <time>2012-06-17T14:09:49Z</time>
      </trkpt>
      <trkpt lat="48.61221" lon="6.02307">
        <ele>284.21</ele>
        <time>2012-06-17T14:09:50Z</time>
      </trkpt>
      <trkpt lat="48.61221" lon="6.02308">
        <ele>293.82</ele>
        <time>2012-06-17T14:09:51Z</time>
      </trkpt>
      <trkpt lat="48.6122" lon="6.0231">
        <ele>297.67</ele>
        <time>2012-06-17T14:09:52Z</time>
      </trkpt>
      <trkpt lat="48.6122" lon="6.02311">
        <ele>286.13</ele>
        <time>2012-06-17T14:09:53Z</time>
      </trkpt>
      <trkpt lat="48.61219" lon="6.02312">
        <ele>294.78</ele>
        <time>2012-06-17T14:09:54Z</time>
      </trkpt>
      <trkpt lat="48.61219" lon="6.02314">
        <ele>289.97</ele>
        <time>2012-06-17T14:09:56Z</time>
      </trkpt>
      <trkpt lat="48.61218" lon="6.02315">
        <ele>292.86</ele>
        <time>2012-06-17T14:09:57Z</time>
      </trkpt>
      <trkpt lat="48.61217" lon="6.02318">
        <ele>287.09</ele>
        <time>2012-06-17T14:09:59Z</time>
      </trkpt>
      <trkpt lat="48.61215" lon="6.0232">
        <ele>298.63</ele>
        <time>2012-06-17T14:10:01Z</time>
      </trkpt>
      <trkpt lat="48.61214" lon="6.02321">
        <ele>289.01</ele>
        <time>2012-06-17T14:10:02Z</time>
      </trkpt>
      <trkpt lat="48.61213" lon="6.02323">
        <ele>296.22</ele>
        <time>2012-06-17T14:10:03Z</time>
      </trkpt>
      <trkpt lat="48.61212" lon="6.02324">
        <ele>291.9</ele>
        <time>2012-06-17T14:10:04Z</time>
      </trkpt>
      <trkpt lat="48.6121" lon="6.02326">
        <ele>295.26</ele>
        <time>2012-06-17T14:10:06Z</time>
      </trkpt>
      <trkpt lat="48.61209" lon="6.02327">
        <ele>298.63</ele>
        <time>2012-06-17T14:10:07Z</time>
      </trkpt>
      <trkpt lat="48.61208" lon="6.02328">
        <ele>283.73</ele>
        <time>2012-06-17T14:10:08Z</time>
      </trkpt>
      <trkpt lat="48.61208" lon="6.02329">
        <ele>296.7</ele>
        <time>2012-06-17T14:10:09Z</time>
      </trkpt>
      <trkpt lat="48.61207" lon="6.02331">
        <ele>300.07</ele>
        <time>2012-06-17T14:10:10Z</time>
      </trkpt>
      <trkpt lat="48.61206" lon="6.02331">
        <ele>291.42</ele>
        <time>2012-06-17T14:10:11Z</time>
      </trkpt>
      <trkpt lat="48.61207" lon="6.02334">
        <ele>297.18</ele>
        <time>2012-06-17T14:10:12Z</time>
      </trkpt>
      <trkpt lat="48.61206" lon="6.02335">
        <ele>295.26</ele>
        <time>2012-06-17T14:10:13Z</time>
      </trkpt>
      <trkpt lat="48.61204" lon="6.02344">
        <ele>299.59</ele>
        <time>2012-06-17T14:10:18Z</time>
      </trkpt>
      <trkpt lat="48.61204" lon="6.02346">
        <ele>292.86</ele>
        <time>2012-06-17T14:10:19Z</time>
      </trkpt>
      <trkpt lat="48.61203" lon="6.02347">
        <ele>292.38</ele>
        <time>2012-06-17T14:10:20Z</time>
      </trkpt>
      <trkpt lat="48.61202" lon="6.02348">
        <ele>297.18</ele>
        <time>2012-06-17T14:10:21Z</time>
      </trkpt>
      <trkpt lat="48.61201" lon="6.02349">
        <ele>301.03</ele>
        <time>2012-06-17T14:10:22Z</time>
      </trkpt>
      <trkpt lat="48.612" lon="6.02349">
        <ele>290.46</ele>
        <time>2012-06-17T14:10:23Z</time>
      </trkpt>
      <trkpt lat="48.61199" lon="6.0235">
        <ele>298.15</ele>
        <time>2012-06-17T14:10:24Z</time>
      </trkpt>
      <trkpt lat="48.61199" lon="6.02351">
        <ele>301.99</ele>
        <time>2012-06-17T14:10:25Z</time>
      </trkpt>
      <trkpt lat="48.61198" lon="6.02351">
        <ele>289.01</ele>
        <time>2012-06-17T14:10:26Z</time>
      </trkpt>
      <trkpt lat="48.61197" lon="6.02352">
        <ele>298.15</ele>
        <time>2012-06-17T14:10:27Z</time>
      </trkpt>
      <trkpt lat="48.61197" lon="6.02353">
        <ele>302.47</ele>
        <time>2012-06-17T14:10:28Z</time>
      </trkpt>
      <trkpt lat="48.61197" lon="6.02354">
        <ele>290.94</ele>
        <time>2012-06-17T14:10:29Z</time>
      </trkpt>
      <trkpt lat="48.61196" lon="6.02355">
        <ele>291.9</ele>
        <time>2012-06-17T14:10:30Z</time>
      </trkpt>
      <trkpt lat="48.61195" lon="6.02359">
        <ele>301.99</ele>
        <time>2012-06-17T14:10:32Z</time>
      </trkpt>
      <trkpt lat="48.61194" lon="6.0236">
        <ele>290.46</ele>
        <time>2012-06-17T14:10:33Z</time>
      </trkpt>
      <trkpt lat="48.61193" lon="6.02362">
        <ele>298.63</ele>
        <time>2012-06-17T14:10:34Z</time>
      </trkpt>
      <trkpt lat="48.61193" lon="6.02363">
        <ele>302.47</ele>
        <time>2012-06-17T14:10:35Z</time>
      </trkpt>
      <trkpt lat="48.61192" lon="6.02364">
        <ele>291.9</ele>
        <time>2012-06-17T14:10:36Z</time>
      </trkpt>
      <trkpt lat="48.61192" lon="6.02365">
        <ele>299.59</ele>
        <time>2012-06-17T14:10:37Z</time>
      </trkpt>
      <trkpt lat="48.61191" lon="6.02366">
        <ele>302.95</ele>
        <time>2012-06-17T14:10:38Z</time>
      </trkpt>
      <trkpt lat="48.61192" lon="6.02367">
        <ele>290.46</ele>
        <time>2012-06-17T14:10:39Z</time>
      </trkpt>
      <trkpt lat="48.61192" lon="6.02368">
        <ele>300.07</ele>
        <time>2012-06-17T14:10:40Z</time>
      </trkpt>
      <trkpt lat="48.61192" lon="6.02369">
        <ele>303.91</ele>
        <time>2012-06-17T14:10:41Z</time>
      </trkpt>
      <trkpt lat="48.61192" lon="6.02371">
        <ele>292.86</ele>
        <time>2012-06-17T14:10:42Z</time>
      </trkpt>
      <trkpt lat="48.61192" lon="6.02372">
        <ele>300.55</ele>
        <time>2012-06-17T14:10:43Z</time>
      </trkpt>
      <trkpt lat="48.61191" lon="6.02375">
        <ele>296.7</ele>
        <time>2012-06-17T14:10:46Z</time>
      </trkpt>
      <trkpt lat="48.61191" lon="6.02376">
        <ele>301.03</ele>
        <time>2012-06-17T14:10:47Z</time>
      </trkpt>
      <trkpt lat="48.6119" lon="6.02377">
        <ele>297.18</ele>
        <time>2012-06-17T14:10:49Z</time>
      </trkpt>
      <trkpt lat="48.61189" lon="6.0238">
        <ele>296.22</ele>
        <time>2012-06-17T14:10:51Z</time>
      </trkpt>
      <trkpt lat="48.61188" lon="6.02382">
        <ele>299.59</ele>
        <time>2012-06-17T14:10:52Z</time>
      </trkpt>
      <trkpt lat="48.61187" lon="6.02384">
        <ele>303.43</ele>
        <time>2012-06-17T14:10:53Z</time>
      </trkpt>
      <trkpt lat="48.61187" lon="6.02386">
        <ele>293.82</ele>
        <time>2012-06-17T14:10:54Z</time>
      </trkpt>
      <trkpt lat="48.61186" lon="6.02387">
        <ele>300.55</ele>
        <time>2012-06-17T14:10:55Z</time>
      </trkpt>
      <trkpt lat="48.61186" lon="6.0239">
        <ele>305.84</ele>
        <time>2012-06-17T14:10:57Z</time>
      </trkpt>
      <trkpt lat="48.61185" lon="6.02391">
        <ele>297.18</ele>
        <time>2012-06-17T14:10:58Z</time>
      </trkpt>
      <trkpt lat="48.61185" lon="6.02393">
        <ele>301.99</ele>
        <time>2012-06-17T14:10:59Z</time>
      </trkpt>
      <trkpt lat="48.61184" lon="6.02394">
        <ele>302.95</ele>
        <time>2012-06-17T14:11:00Z</time>
      </trkpt>
      <trkpt lat="48.61183" lon="6.02395">
        <ele>295.74</ele>
        <time>2012-06-17T14:11:01Z</time>
      </trkpt>
      <trkpt lat="48.61182" lon="6.02398">
        <ele>300.55</ele>
        <time>2012-06-17T14:11:03Z</time>
      </trkpt>
      <trkpt lat="48.61182" lon="6.02402">
        <ele>303.91</ele>
        <time>2012-06-17T14:11:05Z</time>
      </trkpt>
      <trkpt lat="48.61181" lon="6.02404">
        <ele>297.18</ele>
        <time>2012-06-17T14:11:06Z</time>
      </trkpt>
      <trkpt lat="48.61181" lon="6.02405">
        <ele>301.03</ele>
        <time>2012-06-17T14:11:07Z</time>
      </trkpt>
      <trkpt lat="48.6118" lon="6.02407">
        <ele>308.24</ele>
        <time>2012-06-17T14:11:09Z</time>
      </trkpt>
      <trkpt lat="48.61179" lon="6.02408">
        <ele>296.22</ele>
        <time>2012-06-17T14:11:10Z</time>
      </trkpt>
      <trkpt lat="48.61177" lon="6.0241">
        <ele>300.55</ele>
        <time>2012-06-17T14:11:12Z</time>
      </trkpt>
      <trkpt lat="48.61176" lon="6.02411">
        <ele>308.72</ele>
        <time>2012-06-17T14:11:14Z</time>
      </trkpt>
      <trkpt lat="48.61175" lon="6.02412">
        <ele>294.3</ele>
        <time>2012-06-17T14:11:15Z</time>
      </trkpt>
      <trkpt lat="48.61175" lon="6.02412">
        <ele>304.39</ele>
        <time>2012-06-17T14:11:16Z</time>
      </trkpt>
      <trkpt lat="48.61174" lon="6.02414">
        <ele>307.76</ele>
        <time>2012-06-17T14:11:19Z</time>
      </trkpt>
      <trkpt lat="48.61173" lon="6.02416">
        <ele>310.16</ele>
        <time>2012-06-17T14:11:20Z</time>
      </trkpt>
      <trkpt lat="48.61172" lon="6.02416">
        <ele>307.76</ele>
        <time>2012-06-17T14:11:22Z</time>
      </trkpt>
      <trkpt lat="48.61172" lon="6.02417">
        <ele>300.55</ele>
        <time>2012-06-17T14:11:23Z</time>
      </trkpt>
      <trkpt lat="48.61171" lon="6.02419">
        <ele>304.88</ele>
        <time>2012-06-17T14:11:24Z</time>
      </trkpt>
      <trkpt lat="48.61171" lon="6.0242">
        <ele>311.12</ele>
        <time>2012-06-17T14:11:25Z</time>
      </trkpt>
      <trkpt lat="48.6117" lon="6.02421">
        <ele>299.11</ele>
        <time>2012-06-17T14:11:26Z</time>
      </trkpt>
      <trkpt lat="48.61168" lon="6.02424">
        <ele>306.32</ele>
        <time>2012-06-17T14:11:28Z</time>
      </trkpt>
      <trkpt lat="48.61167" lon="6.02426">
        <ele>309.68</ele>
        <time>2012-06-17T14:11:30Z</time>
      </trkpt>
      <trkpt lat="48.61166" lon="6.02428">
        <ele>301.51</ele>
        <time>2012-06-17T14:11:31Z</time>
      </trkpt>
      <trkpt lat="48.61164" lon="6.0243">
        <ele>307.28</ele>
        <time>2012-06-17T14:11:33Z</time>
      </trkpt>
      <trkpt lat="48.61163" lon="6.02432">
        <ele>310.64</ele>
        <time>2012-06-17T14:11:34Z</time>
      </trkpt>
      <trkpt lat="48.61162" lon="6.02433">
        <ele>297.67</ele>
        <time>2012-06-17T14:11:35Z</time>
      </trkpt>
      <trkpt lat="48.61162" lon="6.02434">
        <ele>307.28</ele>
        <time>2012-06-17T14:11:36Z</time>
      </trkpt>
      <trkpt lat="48.61162" lon="6.02435">
        <ele>310.64</ele>
        <time>2012-06-17T14:11:37Z</time>
      </trkpt>
      <trkpt lat="48.61162" lon="6.02436">
        <ele>299.59</ele>
        <time>2012-06-17T14:11:38Z</time>
      </trkpt>
      <trkpt lat="48.61162" lon="6.02437">
        <ele>307.28</ele>
        <time>2012-06-17T14:11:39Z</time>
      </trkpt>
      <trkpt lat="48.61161" lon="6.02439">
        <ele>312.57</ele>
        <time>2012-06-17T14:11:40Z</time>
      </trkpt>
      <trkpt lat="48.61161" lon="6.02439">
        <ele>296.22</ele>
        <time>2012-06-17T14:11:41Z</time>
      </trkpt>
      <trkpt lat="48.61162" lon="6.0244">
        <ele>308.24</ele>
        <time>2012-06-17T14:11:42Z</time>
      </trkpt>
      <trkpt lat="48.61162" lon="6.02441">
        <ele>314.01</ele>
        <time>2012-06-17T14:11:43Z</time>
      </trkpt>
      <trkpt lat="48.61162" lon="6.02442">
        <ele>312.09</ele>
        <time>2012-06-17T14:11:44Z</time>
      </trkpt>
      <trkpt lat="48.61162" lon="6.02444">
        <ele>304.39</ele>
        <time>2012-06-17T14:11:45Z</time>
      </trkpt>
      <trkpt lat="48.61162" lon="6.02445">
        <ele>308.24</ele>
        <time>2012-06-17T14:11:46Z</time>
      </trkpt>
      <trkpt lat="48.6116" lon="6.02447">
        <ele>311.12</ele>
        <time>2012-06-17T14:11:47Z</time>
      </trkpt>
      <trkpt lat="48.61159" lon="6.02448">
        <ele>299.59</ele>
        <time>2012-06-17T14:11:48Z</time>
      </trkpt>
      <trkpt lat="48.61158" lon="6.02449">
        <ele>308.72</ele>
        <time>2012-06-17T14:11:49Z</time>
      </trkpt>
      <trkpt lat="48.61158" lon="6.0245">
        <ele>313.05</ele>
        <time>2012-06-17T14:11:50Z</time>
      </trkpt>
      <trkpt lat="48.61157" lon="6.02451">
        <ele>298.63</ele>
        <time>2012-06-17T14:11:51Z</time>
      </trkpt>
      <trkpt lat="48.61156" lon="6.02454">
        <ele>313.53</ele>
        <time>2012-06-17T14:11:53Z</time>
      </trkpt>
      <trkpt lat="48.61154" lon="6.02454">
        <ele>304.39</ele>
        <time>2012-06-17T14:11:54Z</time>
      </trkpt>
      <trkpt lat="48.61153" lon="6.02455">
        <ele>308.72</ele>
        <time>2012-06-17T14:11:55Z</time>
      </trkpt>
      <trkpt lat="48.61151" lon="6.02458">
        <ele>312.09</ele>
        <time>2012-06-17T14:11:57Z</time>
      </trkpt>
      <trkpt lat="48.6115" lon="6.0246">
        <ele>306.32</ele>
        <time>2012-06-17T14:11:59Z</time>
      </trkpt>
      <trkpt lat="48.61149" lon="6.02461">
        <ele>302.95</ele>
        <time>2012-06-17T14:12:00Z</time>
      </trkpt>
      <trkpt lat="48.61149" lon="6.02461">
        <ele>311.6</ele>
        <time>2012-06-17T14:12:01Z</time>
      </trkpt>
      <trkpt lat="48.61147" lon="6.02463">
        <ele>307.76</ele>
        <time>2012-06-17T14:12:03Z</time>
      </trkpt>
      <trkpt lat="48.61143" lon="6.02468">
        <ele>310.16</ele>
        <time>2012-06-17T14:12:08Z</time>
      </trkpt>
      <trkpt lat="48.61142" lon="6.02469">
        <ele>305.36</ele>
        <time>2012-06-17T14:12:09Z</time>
      </trkpt>
      <trkpt lat="48.61142" lon="6.0247">
        <ele>310.16</ele>
        <time>2012-06-17T14:12:10Z</time>
      </trkpt>
      <trkpt lat="48.6114" lon="6.02473">
        <ele>312.57</ele>
        <time>2012-06-17T14:12:12Z</time>
      </trkpt>
      <trkpt lat="48.61139" lon="6.02474">
        <ele>303.43</ele>
        <time>2012-06-17T14:12:13Z</time>
      </trkpt>
      <trkpt lat="48.61139" lon="6.02475">
        <ele>309.68</ele>
        <time>2012-06-17T14:12:14Z</time>
      </trkpt>
      <trkpt lat="48.61135" lon="6.02477">
        <ele>301.99</ele>
        <time>2012-06-17T14:12:17Z</time>
      </trkpt>
      <trkpt lat="48.61134" lon="6.02478">
        <ele>310.16</ele>
        <time>2012-06-17T14:12:18Z</time>
      </trkpt>
      <trkpt lat="48.61132" lon="6.02481">
        <ele>306.8</ele>
        <time>2012-06-17T14:12:21Z</time>
      </trkpt>
      <trkpt lat="48.61132" lon="6.02483">
        <ele>310.16</ele>
        <time>2012-06-17T14:12:22Z</time>
      </trkpt>
      <trkpt lat="48.61132" lon="6.02484">
        <ele>309.68</ele>
        <time>2012-06-17T14:12:23Z</time>
      </trkpt>
      <trkpt lat="48.61131" lon="6.02487">
        <ele>313.05</ele>
        <time>2012-06-17T14:12:25Z</time>
      </trkpt>
      <trkpt lat="48.61129" lon="6.02491">
        <ele>309.68</ele>
        <time>2012-06-17T14:12:27Z</time>
      </trkpt>
      <trkpt lat="48.61128" lon="6.02494">
        <ele>309.68</ele>
        <time>2012-06-17T14:12:29Z</time>
      </trkpt>
      <trkpt lat="48.61126" lon="6.02496">
        <ele>312.57</ele>
        <time>2012-06-17T14:12:32Z</time>
      </trkpt>
      <trkpt lat="48.61126" lon="6.02496">
        <ele>307.76</ele>
        <time>2012-06-17T14:12:35Z</time>
      </trkpt>
      <trkpt lat="48.61126" lon="6.02497">
        <ele>312.57</ele>
        <time>2012-06-17T14:12:36Z</time>
      </trkpt>
      <trkpt lat="48.61126" lon="6.02498">
        <ele>309.2</ele>
        <time>2012-06-17T14:12:37Z</time>
      </trkpt>
      <trkpt lat="48.61126" lon="6.02499">
        <ele>305.36</ele>
        <time>2012-06-17T14:12:38Z</time>
      </trkpt>
      <trkpt lat="48.61125" lon="6.025">
        <ele>311.6</ele>
        <time>2012-06-17T14:12:39Z</time>
      </trkpt>
      <trkpt lat="48.61124" lon="6.02502">
        <ele>307.76</ele>
        <time>2012-06-17T14:12:42Z</time>
      </trkpt>
      <trkpt lat="48.61123" lon="6.02503">
        <ele>312.09</ele>
        <time>2012-06-17T14:12:43Z</time>
      </trkpt>
      <trkpt lat="48.61122" lon="6.02507">
        <ele>307.28</ele>
        <time>2012-06-17T14:12:46Z</time>
      </trkpt>
      <trkpt lat="48.61122" lon="6.02508">
        <ele>307.28</ele>
        <time>2012-06-17T14:12:47Z</time>
      </trkpt>
      <trkpt lat="48.61121" lon="6.0251">
        <ele>310.64</ele>
        <time>2012-06-17T14:12:48Z</time>
      </trkpt>
      <trkpt lat="48.6112" lon="6.02512">
        <ele>313.53</ele>
        <time>2012-06-17T14:12:49Z</time>
      </trkpt>
      <trkpt lat="48.61118" lon="6.02516">
        <ele>313.53</ele>
        <time>2012-06-17T14:12:52Z</time>
      </trkpt>
      <trkpt lat="48.61117" lon="6.02516">
        <ele>311.6</ele>
        <time>2012-06-17T14:12:53Z</time>
      </trkpt>
      <trkpt lat="48.61116" lon="6.02517">
        <ele>308.24</ele>
        <time>2012-06-17T14:12:54Z</time>
      </trkpt>
      <trkpt lat="48.61116" lon="6.02518">
        <ele>314.01</ele>
        <time>2012-06-17T14:12:55Z</time>
      </trkpt>
      <trkpt lat="48.61114" lon="6.0252">
        <ele>310.64</ele>
        <time>2012-06-17T14:12:57Z</time>
      </trkpt>
      <trkpt lat="48.61112" lon="6.02527">
        <ele>313.53</ele>
        <time>2012-06-17T14:13:03Z</time>
      </trkpt>
      <trkpt lat="48.61111" lon="6.02529">
        <ele>310.16</ele>
        <time>2012-06-17T14:13:05Z</time>
      </trkpt>
      <trkpt lat="48.61109" lon="6.02532">
        <ele>313.53</ele>
        <time>2012-06-17T14:13:08Z</time>
      </trkpt>
      <trkpt lat="48.61108" lon="6.02534">
        <ele>308.72</ele>
        <time>2012-06-17T14:13:10Z</time>
      </trkpt>
      <trkpt lat="48.61107" lon="6.02535">
        <ele>310.16</ele>
        <time>2012-06-17T14:13:11Z</time>
      </trkpt>
      <trkpt lat="48.61104" lon="6.02537">
        <ele>313.05</ele>
        <time>2012-06-17T14:13:14Z</time>
      </trkpt>
      <trkpt lat="48.61102" lon="6.02539">
        <ele>309.68</ele>
        <time>2012-06-17T14:13:16Z</time>
      </trkpt>
      <trkpt lat="48.611" lon="6.02541">
        <ele>313.05</ele>
        <time>2012-06-17T14:13:18Z</time>
      </trkpt>
      <trkpt lat="48.611" lon="6.02544">
        <ele>308.24</ele>
        <time>2012-06-17T14:13:21Z</time>
      </trkpt>
      <trkpt lat="48.61099" lon="6.02545">
        <ele>312.57</ele>
        <time>2012-06-17T14:13:22Z</time>
      </trkpt>
      <trkpt lat="48.61098" lon="6.02547">
        <ele>307.76</ele>
        <time>2012-06-17T14:13:23Z</time>
      </trkpt>
      <trkpt lat="48.61098" lon="6.02548">
        <ele>313.05</ele>
        <time>2012-06-17T14:13:24Z</time>
      </trkpt>
      <trkpt lat="48.61094" lon="6.02552">
        <ele>311.6</ele>
        <time>2012-06-17T14:13:28Z</time>
      </trkpt>
      <trkpt lat="48.61089" lon="6.02555">
        <ele>309.2</ele>
        <time>2012-06-17T14:13:32Z</time>
      </trkpt>
      <trkpt lat="48.61088" lon="6.02556">
        <ele>312.57</ele>
        <time>2012-06-17T14:13:33Z</time>
      </trkpt>
      <trkpt lat="48.61087" lon="6.02557">
        <ele>308.72</ele>
        <time>2012-06-17T14:13:34Z</time>
      </trkpt>
      <trkpt lat="48.61087" lon="6.02558">
        <ele>315.45</ele>
        <time>2012-06-17T14:13:35Z</time>
      </trkpt>
      <trkpt lat="48.61086" lon="6.02559">
        <ele>311.6</ele>
        <time>2012-06-17T14:13:36Z</time>
      </trkpt>
      <trkpt lat="48.61084" lon="6.02561">
        <ele>310.64</ele>
        <time>2012-06-17T14:13:38Z</time>
      </trkpt>
      <trkpt lat="48.61082" lon="6.02564">
        <ele>314.49</ele>
        <time>2012-06-17T14:13:41Z</time>
      </trkpt>
      <trkpt lat="48.6108" lon="6.02567">
        <ele>311.12</ele>
        <time>2012-06-17T14:13:43Z</time>
      </trkpt>
      <trkpt lat="48.61077" lon="6.02569">
        <ele>314.01</ele>
        <time>2012-06-17T14:13:46Z</time>
      </trkpt>
      <trkpt lat="48.61072" lon="6.02572">
        <ele>309.68</ele>
        <time>2012-06-17T14:13:51Z</time>
      </trkpt>
      <trkpt lat="48.61071" lon="6.02572">
        <ele>314.49</ele>
        <time>2012-06-17T14:13:52Z</time>
      </trkpt>
      <trkpt lat="48.61068" lon="6.02574">
        <ele>310.64</ele>
        <time>2012-06-17T14:13:55Z</time>
      </trkpt>
      <trkpt lat="48.61067" lon="6.02574">
        <ele>311.6</ele>
        <time>2012-06-17T14:13:56Z</time>
      </trkpt>
      <trkpt lat="48.61065" lon="6.02576">
        <ele>315.45</ele>
        <time>2012-06-17T14:13:58Z</time>
      </trkpt>
      <trkpt lat="48.61062" lon="6.02579">
        <ele>310.64</ele>
        <time>2012-06-17T14:14:01Z</time>
      </trkpt>
      <trkpt lat="48.6106" lon="6.02581">
        <ele>314.49</ele>
        <time>2012-06-17T14:14:03Z</time>
      </trkpt>
      <trkpt lat="48.61059" lon="6.02582">
        <ele>311.12</ele>
        <time>2012-06-17T14:14:04Z</time>
      </trkpt>
      <trkpt lat="48.61058" lon="6.02584">
        <ele>314.97</ele>
        <time>2012-06-17T14:14:06Z</time>
      </trkpt>
      <trkpt lat="48.61055" lon="6.02589">
        <ele>310.64</ele>
        <time>2012-06-17T14:14:10Z</time>
      </trkpt>
      <trkpt lat="48.61054" lon="6.0259">
        <ele>314.01</ele>
        <time>2012-06-17T14:14:11Z</time>
      </trkpt>
      <trkpt lat="48.6105" lon="6.02596">
        <ele>310.16</ele>
        <time>2012-06-17T14:14:16Z</time>
      </trkpt>
      <trkpt lat="48.6105" lon="6.02597">
        <ele>313.05</ele>
        <time>2012-06-17T14:14:17Z</time>
      </trkpt>
      <trkpt lat="48.61045" lon="6.02607">
        <ele>311.6</ele>
        <time>2012-06-17T14:14:26Z</time>
      </trkpt>
      <trkpt lat="48.61042" lon="6.02611">
        <ele>316.89</ele>
        <time>2012-06-17T14:14:30Z</time>
      </trkpt>
      <trkpt lat="48.61041" lon="6.02612">
        <ele>315.45</ele>
        <time>2012-06-17T14:14:31Z</time>
      </trkpt>
      <trkpt lat="48.6104" lon="6.02613">
        <ele>310.64</ele>
        <time>2012-06-17T14:14:33Z</time>
      </trkpt>
      <trkpt lat="48.6104" lon="6.02615">
        <ele>313.53</ele>
        <time>2012-06-17T14:14:34Z</time>
      </trkpt>
      <trkpt lat="48.61038" lon="6.02621">
        <ele>313.05</ele>
        <time>2012-06-17T14:14:39Z</time>
      </trkpt>
      <trkpt lat="48.61034" lon="6.02629">
        <ele>311.12</ele>
        <time>2012-06-17T14:14:46Z</time>
      </trkpt>
      <trkpt lat="48.61033" lon="6.02632">
        <ele>314.49</ele>
        <time>2012-06-17T14:14:49Z</time>
      </trkpt>
      <trkpt lat="48.61032" lon="6.02652">
        <ele>308.24</ele>
        <time>2012-06-17T14:15:01Z</time>
      </trkpt>
      <trkpt lat="48.61032" lon="6.02656">
        <ele>314.01</ele>
        <time>2012-06-17T14:15:03Z</time>
      </trkpt>
      <trkpt lat="48.6103" lon="6.02659">
        <ele>315.45</ele>
        <time>2012-06-17T14:15:04Z</time>
      </trkpt>
      <trkpt lat="48.61027" lon="6.02667">
        <ele>309.68</ele>
        <time>2012-06-17T14:15:10Z</time>
      </trkpt>
      <trkpt lat="48.61026" lon="6.02669">
        <ele>313.53</ele>
        <time>2012-06-17T14:15:12Z</time>
      </trkpt>
      <trkpt lat="48.61022" lon="6.02679">
        <ele>309.68</ele>
        <time>2012-06-17T14:15:20Z</time>
      </trkpt>
      <trkpt lat="48.61021" lon="6.02685">
        <ele>312.57</ele>
        <time>2012-06-17T14:15:22Z</time>
      </trkpt>
      <trkpt lat="48.61019" lon="6.02689">
        <ele>314.01</ele>
        <time>2012-06-17T14:15:24Z</time>
      </trkpt>
      <trkpt lat="48.61017" lon="6.02693">
        <ele>309.68</ele>
        <time>2012-06-17T14:15:27Z</time>
      </trkpt>
      <trkpt lat="48.61014" lon="6.02698">
        <ele>312.57</ele>
        <time>2012-06-17T14:15:32Z</time>
      </trkpt>
      <trkpt lat="48.6101" lon="6.02707">
        <ele>309.68</ele>
        <time>2012-06-17T14:15:38Z</time>
      </trkpt>
      <trkpt lat="48.6101" lon="6.02713">
        <ele>313.53</ele>
        <time>2012-06-17T14:15:41Z</time>
      </trkpt>
      <trkpt lat="48.61008" lon="6.02722">
        <ele>310.64</ele>
        <time>2012-06-17T14:15:46Z</time>
      </trkpt>
      <trkpt lat="48.61008" lon="6.02723">
        <ele>309.68</ele>
        <time>2012-06-17T14:15:48Z</time>
      </trkpt>
      <trkpt lat="48.61007" lon="6.02724">
        <ele>313.05</ele>
        <time>2012-06-17T14:15:49Z</time>
      </trkpt>
      <trkpt lat="48.61007" lon="6.02726">
        <ele>313.53</ele>
        <time>2012-06-17T14:15:50Z</time>
      </trkpt>
      <trkpt lat="48.61004" lon="6.02736">
        <ele>313.53</ele>
        <time>2012-06-17T14:15:55Z</time>
      </trkpt>
      <trkpt lat="48.61003" lon="6.0274">
        <ele>310.16</ele>
        <time>2012-06-17T14:15:57Z</time>
      </trkpt>
      <trkpt lat="48.61003" lon="6.02748">
        <ele>312.57</ele>
        <time>2012-06-17T14:16:02Z</time>
      </trkpt>
      <trkpt lat="48.61003" lon="6.0275">
        <ele>313.05</ele>
        <time>2012-06-17T14:16:03Z</time>
      </trkpt>
      <trkpt lat="48.61" lon="6.02758">
        <ele>309.68</ele>
        <time>2012-06-17T14:16:07Z</time>
      </trkpt>
      <trkpt lat="48.61" lon="6.0276">
        <ele>309.2</ele>
        <time>2012-06-17T14:16:08Z</time>
      </trkpt>
      <trkpt lat="48.61" lon="6.02771">
        <ele>312.57</ele>
        <time>2012-06-17T14:16:14Z</time>
      </trkpt>
      <trkpt lat="48.60997" lon="6.02777">
        <ele>310.16</ele>
        <time>2012-06-17T14:16:18Z</time>
      </trkpt>
      <trkpt lat="48.60996" lon="6.0278">
        <ele>307.28</ele>
        <time>2012-06-17T14:16:20Z</time>
      </trkpt>
      <trkpt lat="48.60995" lon="6.02781">
        <ele>312.09</ele>
        <time>2012-06-17T14:16:21Z</time>
      </trkpt>
      <trkpt lat="48.60995" lon="6.02783">
        <ele>310.16</ele>
        <time>2012-06-17T14:16:22Z</time>
      </trkpt>
      <trkpt lat="48.60992" lon="6.02788">
        <ele>311.6</ele>
        <time>2012-06-17T14:16:25Z</time>
      </trkpt>
      <trkpt lat="48.60985" lon="6.02802">
        <ele>308.24</ele>
        <time>2012-06-17T14:16:34Z</time>
      </trkpt>
      <trkpt lat="48.60985" lon="6.02806">
        <ele>311.6</ele>
        <time>2012-06-17T14:16:36Z</time>
      </trkpt>
      <trkpt lat="48.60984" lon="6.02807">
        <ele>312.57</ele>
        <time>2012-06-17T14:16:37Z</time>
      </trkpt>
      <trkpt lat="48.60982" lon="6.02814">
        <ele>308.72</ele>
        <time>2012-06-17T14:16:41Z</time>
      </trkpt>
      <trkpt lat="48.60981" lon="6.02815">
        <ele>308.72</ele>
        <time>2012-06-17T14:16:42Z</time>
      </trkpt>
      <trkpt lat="48.6098" lon="6.02817">
        <ele>311.6</ele>
        <time>2012-06-17T14:16:44Z</time>
      </trkpt>
      <trkpt lat="48.60979" lon="6.02818">
        <ele>308.24</ele>
        <time>2012-06-17T14:16:45Z</time>
      </trkpt>
      <trkpt lat="48.60978" lon="6.02819">
        <ele>308.72</ele>
        <time>2012-06-17T14:16:46Z</time>
      </trkpt>
      <trkpt lat="48.60971" lon="6.02834">
        <ele>307.76</ele>
        <time>2012-06-17T14:16:57Z</time>
      </trkpt>
      <trkpt lat="48.6097" lon="6.02838">
        <ele>314.01</ele>
        <time>2012-06-17T14:16:59Z</time>
      </trkpt>
      <trkpt lat="48.60968" lon="6.02842">
        <ele>310.16</ele>
        <time>2012-06-17T14:17:02Z</time>
      </trkpt>
      <trkpt lat="48.60965" lon="6.02851">
        <ele>313.05</ele>
        <time>2012-06-17T14:17:08Z</time>
      </trkpt>
      <trkpt lat="48.60963" lon="6.02858">
        <ele>309.68</ele>
        <time>2012-06-17T14:17:12Z</time>
      </trkpt>
      <trkpt lat="48.60963" lon="6.0286">
        <ele>308.24</ele>
        <time>2012-06-17T14:17:14Z</time>
      </trkpt>
      <trkpt lat="48.60962" lon="6.02864">
        <ele>312.09</ele>
        <time>2012-06-17T14:17:16Z</time>
      </trkpt>
      <trkpt lat="48.6096" lon="6.02875">
        <ele>308.72</ele>
        <time>2012-06-17T14:17:23Z</time>
      </trkpt>
      <trkpt lat="48.60959" lon="6.02881">
        <ele>312.09</ele>
        <time>2012-06-17T14:17:27Z</time>
      </trkpt>
      <trkpt lat="48.60958" lon="6.02884">
        <ele>308.72</ele>
        <time>2012-06-17T14:17:30Z</time>
      </trkpt>
      <trkpt lat="48.60957" lon="6.02886">
        <ele>311.12</ele>
        <time>2012-06-17T14:17:32Z</time>
      </trkpt>
      <trkpt lat="48.60956" lon="6.02888">
        <ele>308.72</ele>
        <time>2012-06-17T14:17:33Z</time>
      </trkpt>
      <trkpt lat="48.60954" lon="6.02888">
        <ele>308.24</ele>
        <time>2012-06-17T14:17:34Z</time>
      </trkpt>
      <trkpt lat="48.60949" lon="6.02896">
        <ele>308.24</ele>
        <time>2012-06-17T14:17:39Z</time>
      </trkpt>
      <trkpt lat="48.60948" lon="6.02897">
        <ele>309.2</ele>
        <time>2012-06-17T14:17:40Z</time>
      </trkpt>
      <trkpt lat="48.60947" lon="6.029">
        <ele>312.57</ele>
        <time>2012-06-17T14:17:42Z</time>
      </trkpt>
      <trkpt lat="48.60946" lon="6.02902">
        <ele>311.12</ele>
        <time>2012-06-17T14:17:43Z</time>
      </trkpt>
      <trkpt lat="48.60945" lon="6.02906">
        <ele>307.28</ele>
        <time>2012-06-17T14:17:48Z</time>
      </trkpt>
      <trkpt lat="48.60944" lon="6.02908">
        <ele>310.64</ele>
        <time>2012-06-17T14:17:49Z</time>
      </trkpt>
      <trkpt lat="48.60936" lon="6.02915">
        <ele>310.16</ele>
        <time>2012-06-17T14:17:54Z</time>
      </trkpt>
      <trkpt lat="48.60931" lon="6.02921">
        <ele>306.8</ele>
        <time>2012-06-17T14:18:06Z</time>
      </trkpt>
      <trkpt lat="48.6093" lon="6.02923">
        <ele>310.16</ele>
        <time>2012-06-17T14:18:07Z</time>
      </trkpt>
      <trkpt lat="48.60929" lon="6.02924">
        <ele>311.12</ele>
        <time>2012-06-17T14:18:08Z</time>
      </trkpt>
      <trkpt lat="48.60925" lon="6.02927">
        <ele>308.24</ele>
        <time>2012-06-17T14:18:11Z</time>
      </trkpt>
      <trkpt lat="48.60922" lon="6.02929">
        <ele>311.6</ele>
        <time>2012-06-17T14:18:13Z</time>
      </trkpt>
      <trkpt lat="48.6092" lon="6.02931">
        <ele>308.24</ele>
        <time>2012-06-17T14:18:15Z</time>
      </trkpt>
      <trkpt lat="48.60915" lon="6.02934">
        <ele>312.09</ele>
        <time>2012-06-17T14:18:19Z</time>
      </trkpt>
      <trkpt lat="48.60914" lon="6.02935">
        <ele>311.6</ele>
        <time>2012-06-17T14:18:20Z</time>
      </trkpt>
      <trkpt lat="48.60912" lon="6.02936">
        <ele>306.8</ele>
        <time>2012-06-17T14:18:22Z</time>
      </trkpt>
      <trkpt lat="48.60911" lon="6.02937">
        <ele>310.16</ele>
        <time>2012-06-17T14:18:24Z</time>
      </trkpt>
      <trkpt lat="48.60906" lon="6.02942">
        <ele>306.32</ele>
        <time>2012-06-17T14:18:28Z</time>
      </trkpt>
      <trkpt lat="48.60905" lon="6.02943">
        <ele>312.57</ele>
        <time>2012-06-17T14:18:29Z</time>
      </trkpt>
      <trkpt lat="48.60903" lon="6.02944">
        <ele>309.2</ele>
        <time>2012-06-17T14:18:30Z</time>
      </trkpt>
      <trkpt lat="48.60899" lon="6.02952">
        <ele>309.2</ele>
        <time>2012-06-17T14:18:43Z</time>
      </trkpt>
      <trkpt lat="48.60899" lon="6.02953">
        <ele>307.28</ele>
        <time>2012-06-17T14:19:01Z</time>
      </trkpt>
      <trkpt lat="48.60896" lon="6.0295">
        <ele>309.2</ele>
        <time>2012-06-17T14:19:18Z</time>
      </trkpt>
      <trkpt lat="48.60892" lon="6.02948">
        <ele>306.8</ele>
        <time>2012-06-17T14:19:36Z</time>
      </trkpt>
      <trkpt lat="48.60891" lon="6.02948">
        <ele>310.16</ele>
        <time>2012-06-17T14:19:37Z</time>
      </trkpt>
      <trkpt lat="48.60888" lon="6.02946">
        <ele>309.68</ele>
        <time>2012-06-17T14:19:39Z</time>
      </trkpt>
      <trkpt lat="48.60885" lon="6.02945">
        <ele>306.8</ele>
        <time>2012-06-17T14:19:41Z</time>
      </trkpt>
      <trkpt lat="48.60878" lon="6.02944">
        <ele>307.76</ele>
        <time>2012-06-17T14:19:47Z</time>
      </trkpt>
      <trkpt lat="48.60875" lon="6.02944">
        <ele>303.91</ele>
        <time>2012-06-17T14:19:49Z</time>
      </trkpt>
      <trkpt lat="48.60875" lon="6.02944">
        <ele>305.36</ele>
        <time>2012-06-17T14:19:50Z</time>
      </trkpt>
      <trkpt lat="48.6087" lon="6.02942">
        <ele>308.24</ele>
        <time>2012-06-17T14:19:53Z</time>
      </trkpt>
      <trkpt lat="48.60867" lon="6.0294">
        <ele>308.24</ele>
        <time>2012-06-17T14:20:04Z</time>
      </trkpt>
      <trkpt lat="48.60852" lon="6.02933">
        <ele>308.24</ele>
        <time>2012-06-17T14:20:08Z</time>
      </trkpt>
      <trkpt lat="48.60848" lon="6.02932">
        <ele>303.91</ele>
        <time>2012-06-17T14:20:11Z</time>
      </trkpt>
      <trkpt lat="48.60843" lon="6.0293">
        <ele>307.28</ele>
        <time>2012-06-17T14:20:14Z</time>
      </trkpt>
      <trkpt lat="48.60837" lon="6.02925">
        <ele>306.8</ele>
        <time>2012-06-17T14:20:26Z</time>
      </trkpt>
      <trkpt lat="48.60836" lon="6.02928">
        <ele>301.99</ele>
        <time>2012-06-17T14:20:29Z</time>
      </trkpt>
      <trkpt lat="48.60836" lon="6.02933">
        <ele>303.43</ele>
        <time>2012-06-17T14:20:32Z</time>
      </trkpt>
      <trkpt lat="48.60835" lon="6.02938">
        <ele>304.88</ele>
        <time>2012-06-17T14:20:35Z</time>
      </trkpt>
      <trkpt lat="48.60834" lon="6.0294">
        <ele>307.76</ele>
        <time>2012-06-17T14:20:37Z</time>
      </trkpt>
      <trkpt lat="48.60832" lon="6.02944">
        <ele>301.99</ele>
        <time>2012-06-17T14:20:40Z</time>
      </trkpt>
      <trkpt lat="48.60831" lon="6.02949">
        <ele>305.84</ele>
        <time>2012-06-17T14:20:42Z</time>
      </trkpt>
      <trkpt lat="48.6083" lon="6.02952">
        <ele>310.16</ele>
        <time>2012-06-17T14:20:44Z</time>
      </trkpt>
      <trkpt lat="48.60831" lon="6.02955">
        <ele>302.47</ele>
        <time>2012-06-17T14:20:46Z</time>
      </trkpt>
      <trkpt lat="48.60831" lon="6.02956">
        <ele>308.24</ele>
        <time>2012-06-17T14:20:47Z</time>
      </trkpt>
      <trkpt lat="48.6083" lon="6.02961">
        <ele>310.16</ele>
        <time>2012-06-17T14:20:49Z</time>
      </trkpt>
      <trkpt lat="48.6083" lon="6.02963">
        <ele>303.91</ele>
        <time>2012-06-17T14:20:50Z</time>
      </trkpt>
      <trkpt lat="48.6083" lon="6.02964">
        <ele>308.72</ele>
        <time>2012-06-17T14:20:51Z</time>
      </trkpt>
      <trkpt lat="48.60829" lon="6.0297">
        <ele>312.57</ele>
        <time>2012-06-17T14:20:55Z</time>
      </trkpt>
      <trkpt lat="48.60829" lon="6.02971">
        <ele>305.84</ele>
        <time>2012-06-17T14:20:56Z</time>
      </trkpt>
      <trkpt lat="48.60829" lon="6.02975">
        <ele>309.68</ele>
        <time>2012-06-17T14:20:58Z</time>
      </trkpt>
      <trkpt lat="48.60829" lon="6.0298">
        <ele>310.64</ele>
        <time>2012-06-17T14:21:00Z</time>
      </trkpt>
      <trkpt lat="48.60829" lon="6.02981">
        <ele>301.03</ele>
        <time>2012-06-17T14:21:02Z</time>
      </trkpt>
      <trkpt lat="48.60829" lon="6.0298">
        <ele>314.01</ele>
        <time>2012-06-17T14:21:03Z</time>
      </trkpt>
      <trkpt lat="48.60827" lon="6.02979">
        <ele>305.36</ele>
        <time>2012-06-17T14:21:04Z</time>
      </trkpt>
      <trkpt lat="48.60826" lon="6.02978">
        <ele>309.68</ele>
        <time>2012-06-17T14:21:05Z</time>
      </trkpt>
      <trkpt lat="48.60825" lon="6.02978">
        <ele>303.43</ele>
        <time>2012-06-17T14:21:07Z</time>
      </trkpt>
      <trkpt lat="48.60824" lon="6.02977">
        <ele>306.32</ele>
        <time>2012-06-17T14:21:08Z</time>
      </trkpt>
      <trkpt lat="48.60824" lon="6.02977">
        <ele>309.2</ele>
        <time>2012-06-17T14:21:09Z</time>
      </trkpt>
      <trkpt lat="48.60824" lon="6.02976">
        <ele>308.72</ele>
        <time>2012-06-17T14:21:10Z</time>
      </trkpt>
      <trkpt lat="48.60824" lon="6.02976">
        <ele>314.01</ele>
        <time>2012-06-17T14:21:11Z</time>
      </trkpt>
      <trkpt lat="48.60824" lon="6.02977">
        <ele>310.64</ele>
        <time>2012-06-17T14:21:12Z</time>
      </trkpt>
      <trkpt lat="48.60824" lon="6.02978">
        <ele>309.2</ele>
        <time>2012-06-17T14:21:14Z</time>
      </trkpt>
      <trkpt lat="48.60825" lon="6.02977">
        <ele>307.28</ele>
        <time>2012-06-17T14:21:37Z</time>
      </trkpt>
      <trkpt lat="48.60824" lon="6.02976">
        <ele>308.24</ele>
        <time>2012-06-17T14:22:02Z</time>
      </trkpt>
      <trkpt lat="48.60824" lon="6.02975">
        <ele>304.39</ele>
        <time>2012-06-17T14:22:07Z</time>
      </trkpt>
      <trkpt lat="48.60824" lon="6.02975">
        <ele>308.72</ele>
        <time>2012-06-17T14:22:08Z</time>
      </trkpt>
      <trkpt lat="48.60824" lon="6.02975">
        <ele>304.39</ele>
        <time>2012-06-17T14:22:10Z</time>
      </trkpt>
      <trkpt lat="48.60824" lon="6.02976">
        <ele>307.28</ele>
        <time>2012-06-17T14:22:11Z</time>
      </trkpt>
      <trkpt lat="48.60822" lon="6.02983">
        <ele>307.28</ele>
        <time>2012-06-17T14:22:15Z</time>
      </trkpt>
      <trkpt lat="48.60822" lon="6.02986">
        <ele>307.28</ele>
        <time>2012-06-17T14:22:17Z</time>
      </trkpt>
      <trkpt lat="48.6082" lon="6.02992">
        <ele>309.2</ele>
        <time>2012-06-17T14:22:20Z</time>
      </trkpt>
      <trkpt lat="48.60817" lon="6.03001">
        <ele>305.84</ele>
        <time>2012-06-17T14:22:25Z</time>
      </trkpt>
      <trkpt lat="48.60817" lon="6.03005">
        <ele>309.68</ele>
        <time>2012-06-17T14:22:27Z</time>
      </trkpt>
      <trkpt lat="48.60817" lon="6.03011">
        <ele>309.2</ele>
        <time>2012-06-17T14:22:30Z</time>
      </trkpt>
      <trkpt lat="48.60817" lon="6.03021">
        <ele>307.76</ele>
        <time>2012-06-17T14:22:36Z</time>
      </trkpt>
      <trkpt lat="48.60816" lon="6.03027">
        <ele>309.68</ele>
        <time>2012-06-17T14:22:39Z</time>
      </trkpt>
      <trkpt lat="48.60814" lon="6.03042">
        <ele>308.24</ele>
        <time>2012-06-17T14:22:47Z</time>
      </trkpt>
      <trkpt lat="48.60814" lon="6.03062">
        <ele>305.36</ele>
        <time>2012-06-17T14:22:57Z</time>
      </trkpt>
      <trkpt lat="48.60812" lon="6.03068">
        <ele>310.16</ele>
        <time>2012-06-17T14:23:00Z</time>
      </trkpt>
      <trkpt lat="48.60806" lon="6.03085">
        <ele>310.64</ele>
        <time>2012-06-17T14:23:11Z</time>
      </trkpt>
      <trkpt lat="48.60805" lon="6.0309">
        <ele>306.32</ele>
        <time>2012-06-17T14:23:14Z</time>
      </trkpt>
      <trkpt lat="48.60805" lon="6.03091">
        <ele>308.72</ele>
        <time>2012-06-17T14:23:15Z</time>
      </trkpt>
      <trkpt lat="48.60804" lon="6.03093">
        <ele>310.16</ele>
        <time>2012-06-17T14:23:17Z</time>
      </trkpt>
      <trkpt lat="48.60803" lon="6.03098">
        <ele>308.72</ele>
        <time>2012-06-17T14:23:19Z</time>
      </trkpt>
      <trkpt lat="48.60803" lon="6.03101">
        <ele>310.16</ele>
        <time>2012-06-17T14:23:21Z</time>
      </trkpt>
      <trkpt lat="48.60799" lon="6.03112">
        <ele>309.2</ele>
        <time>2012-06-17T14:23:26Z</time>
      </trkpt>
      <trkpt lat="48.60798" lon="6.03118">
        <ele>308.72</ele>
        <time>2012-06-17T14:23:30Z</time>
      </trkpt>
      <trkpt lat="48.60795" lon="6.03123">
        <ele>309.68</ele>
        <time>2012-06-17T14:23:34Z</time>
      </trkpt>
      <trkpt lat="48.60792" lon="6.03149">
        <ele>309.2</ele>
        <time>2012-06-17T14:23:49Z</time>
      </trkpt>
      <trkpt lat="48.60792" lon="6.0315">
        <ele>308.24</ele>
        <time>2012-06-17T14:24:09Z</time>
      </trkpt>
      <trkpt lat="48.60789" lon="6.03167">
        <ele>309.68</ele>
        <time>2012-06-17T14:24:20Z</time>
      </trkpt>
      <trkpt lat="48.60789" lon="6.03183">
        <ele>308.72</ele>
        <time>2012-06-17T14:24:28Z</time>
      </trkpt>
      <trkpt lat="48.60785" lon="6.03193">
        <ele>310.64</ele>
        <time>2012-06-17T14:24:35Z</time>
      </trkpt>
      <trkpt lat="48.60783" lon="6.03197">
        <ele>307.28</ele>
        <time>2012-06-17T14:24:37Z</time>
      </trkpt>
      <trkpt lat="48.60782" lon="6.03198">
        <ele>308.24</ele>
        <time>2012-06-17T14:24:38Z</time>
      </trkpt>
      <trkpt lat="48.60781" lon="6.03201">
        <ele>311.6</ele>
        <time>2012-06-17T14:24:40Z</time>
      </trkpt>
      <trkpt lat="48.60779" lon="6.03203">
        <ele>306.8</ele>
        <time>2012-06-17T14:24:42Z</time>
      </trkpt>
      <trkpt lat="48.60779" lon="6.03204">
        <ele>311.12</ele>
        <time>2012-06-17T14:24:43Z</time>
      </trkpt>
      <trkpt lat="48.60776" lon="6.03209">
        <ele>305.36</ele>
        <time>2012-06-17T14:24:47Z</time>
      </trkpt>
      <trkpt lat="48.60776" lon="6.0321">
        <ele>311.6</ele>
        <time>2012-06-17T14:24:48Z</time>
      </trkpt>
      <trkpt lat="48.60776" lon="6.03211">
        <ele>307.76</ele>
        <time>2012-06-17T14:24:51Z</time>
      </trkpt>
      <trkpt lat="48.60776" lon="6.03213">
        <ele>311.12</ele>
        <time>2012-06-17T14:24:52Z</time>
      </trkpt>
      <trkpt lat="48.60776" lon="6.03217">
        <ele>314.49</ele>
        <time>2012-06-17T14:24:54Z</time>
      </trkpt>
      <trkpt lat="48.60775" lon="6.03219">
        <ele>311.12</ele>
        <time>2012-06-17T14:24:55Z</time>
      </trkpt>
      <trkpt lat="48.60774" lon="6.03224">
        <ele>314.01</ele>
        <time>2012-06-17T14:24:58Z</time>
      </trkpt>
      <trkpt lat="48.60773" lon="6.03226">
        <ele>314.01</ele>
        <time>2012-06-17T14:24:59Z</time>
      </trkpt>
      <trkpt lat="48.60773" lon="6.03226">
        <ele>309.68</ele>
        <time>2012-06-17T14:25:00Z</time>
      </trkpt>
      <trkpt lat="48.60773" lon="6.03226">
        <ele>311.12</ele>
        <time>2012-06-17T14:25:01Z</time>
      </trkpt>
      <trkpt lat="48.60772" lon="6.0323">
        <ele>317.85</ele>
        <time>2012-06-17T14:25:03Z</time>
      </trkpt>
      <trkpt lat="48.60771" lon="6.03231">
        <ele>310.16</ele>
        <time>2012-06-17T14:25:04Z</time>
      </trkpt>
      <trkpt lat="48.60771" lon="6.03233">
        <ele>313.53</ele>
        <time>2012-06-17T14:25:06Z</time>
      </trkpt>
      <trkpt lat="48.60769" lon="6.03241">
        <ele>311.6</ele>
        <time>2012-06-17T14:25:10Z</time>
      </trkpt>
      <trkpt lat="48.60766" lon="6.03244">
        <ele>315.45</ele>
        <time>2012-06-17T14:25:13Z</time>
      </trkpt>
      <trkpt lat="48.60766" lon="6.03244">
        <ele>312.57</ele>
        <time>2012-06-17T14:25:14Z</time>
      </trkpt>
      <trkpt lat="48.60764" lon="6.03246">
        <ele>315.93</ele>
        <time>2012-06-17T14:25:17Z</time>
      </trkpt>
      <trkpt lat="48.60763" lon="6.03247">
        <ele>312.09</ele>
        <time>2012-06-17T14:25:18Z</time>
      </trkpt>
      <trkpt lat="48.60763" lon="6.03247">
        <ele>313.05</ele>
        <time>2012-06-17T14:25:19Z</time>
      </trkpt>
      <trkpt lat="48.60761" lon="6.0325">
        <ele>315.45</ele>
        <time>2012-06-17T14:25:21Z</time>
      </trkpt>
      <trkpt lat="48.6076" lon="6.03252">
        <ele>311.12</ele>
        <time>2012-06-17T14:25:22Z</time>
      </trkpt>
      <trkpt lat="48.6076" lon="6.03253">
        <ele>311.6</ele>
        <time>2012-06-17T14:25:23Z</time>
      </trkpt>
      <trkpt lat="48.6076" lon="6.03253">
        <ele>314.49</ele>
        <time>2012-06-17T14:25:25Z</time>
      </trkpt>
      <trkpt lat="48.60757" lon="6.03255">
        <ele>307.28</ele>
        <time>2012-06-17T14:25:27Z</time>
      </trkpt>
      <trkpt lat="48.60756" lon="6.03256">
        <ele>314.97</ele>
        <time>2012-06-17T14:25:28Z</time>
      </trkpt>
      <trkpt lat="48.60753" lon="6.0326">
        <ele>309.2</ele>
        <time>2012-06-17T14:25:31Z</time>
      </trkpt>
      <trkpt lat="48.60752" lon="6.03261">
        <ele>314.49</ele>
        <time>2012-06-17T14:25:32Z</time>
      </trkpt>
      <trkpt lat="48.60749" lon="6.03263">
        <ele>315.93</ele>
        <time>2012-06-17T14:25:34Z</time>
      </trkpt>
      <trkpt lat="48.60746" lon="6.03267">
        <ele>311.12</ele>
        <time>2012-06-17T14:25:37Z</time>
      </trkpt>
      <trkpt lat="48.60745" lon="6.03268">
        <ele>314.97</ele>
        <time>2012-06-17T14:25:38Z</time>
      </trkpt>
      <trkpt lat="48.60742" lon="6.03272">
        <ele>315.45</ele>
        <time>2012-06-17T14:25:42Z</time>
      </trkpt>
      <trkpt lat="48.6074" lon="6.03273">
        <ele>315.93</ele>
        <time>2012-06-17T14:25:44Z</time>
      </trkpt>
      <trkpt lat="48.60739" lon="6.03274">
        <ele>312.57</ele>
        <time>2012-06-17T14:25:45Z</time>
      </trkpt>
      <trkpt lat="48.60738" lon="6.03275">
        <ele>315.93</ele>
        <time>2012-06-17T14:25:46Z</time>
      </trkpt>
      <trkpt lat="48.60731" lon="6.03282">
        <ele>315.45</ele>
        <time>2012-06-17T14:25:56Z</time>
      </trkpt>
      <trkpt lat="48.60726" lon="6.0329">
        <ele>314.49</ele>
        <time>2012-06-17T14:26:01Z</time>
      </trkpt>
      <trkpt lat="48.60724" lon="6.03293">
        <ele>318.33</ele>
        <time>2012-06-17T14:26:03Z</time>
      </trkpt>
      <trkpt lat="48.6072" lon="6.03299">
        <ele>314.97</ele>
        <time>2012-06-17T14:26:07Z</time>
      </trkpt>
      <trkpt lat="48.60717" lon="6.03304">
        <ele>318.81</ele>
        <time>2012-06-17T14:26:10Z</time>
      </trkpt>
      <trkpt lat="48.60716" lon="6.03305">
        <ele>315.45</ele>
        <time>2012-06-17T14:26:11Z</time>
      </trkpt>
      <trkpt lat="48.60715" lon="6.03306">
        <ele>316.41</ele>
        <time>2012-06-17T14:26:12Z</time>
      </trkpt>
      <trkpt lat="48.60713" lon="6.03309">
        <ele>319.78</ele>
        <time>2012-06-17T14:26:14Z</time>
      </trkpt>
      <trkpt lat="48.60709" lon="6.03313">
        <ele>315.93</ele>
        <time>2012-06-17T14:26:18Z</time>
      </trkpt>
      <trkpt lat="48.60706" lon="6.03316">
        <ele>320.26</ele>
        <time>2012-06-17T14:26:21Z</time>
      </trkpt>
      <trkpt lat="48.60705" lon="6.03318">
        <ele>316.89</ele>
        <time>2012-06-17T14:26:22Z</time>
      </trkpt>
      <trkpt lat="48.60702" lon="6.03322">
        <ele>318.81</ele>
        <time>2012-06-17T14:26:26Z</time>
      </trkpt>
      <trkpt lat="48.60701" lon="6.03323">
        <ele>314.97</ele>
        <time>2012-06-17T14:26:27Z</time>
      </trkpt>
      <trkpt lat="48.60699" lon="6.03325">
        <ele>318.81</ele>
        <time>2012-06-17T14:26:28Z</time>
      </trkpt>
      <trkpt lat="48.60698" lon="6.03326">
        <ele>314.97</ele>
        <time>2012-06-17T14:26:29Z</time>
      </trkpt>
      <trkpt lat="48.60698" lon="6.03328">
        <ele>318.33</ele>
        <time>2012-06-17T14:26:30Z</time>
      </trkpt>
      <trkpt lat="48.60695" lon="6.03335">
        <ele>319.78</ele>
        <time>2012-06-17T14:26:36Z</time>
      </trkpt>
      <trkpt lat="48.60693" lon="6.03337">
        <ele>315.93</ele>
        <time>2012-06-17T14:26:38Z</time>
      </trkpt>
      <trkpt lat="48.60692" lon="6.03337">
        <ele>318.33</ele>
        <time>2012-06-17T14:26:39Z</time>
      </trkpt>
      <trkpt lat="48.60689" lon="6.03342">
        <ele>319.78</ele>
        <time>2012-06-17T14:26:43Z</time>
      </trkpt>
      <trkpt lat="48.60686" lon="6.03346">
        <ele>316.41</ele>
        <time>2012-06-17T14:26:46Z</time>
      </trkpt>
      <trkpt lat="48.60684" lon="6.03349">
        <ele>320.26</ele>
        <time>2012-06-17T14:26:48Z</time>
      </trkpt>
      <trkpt lat="48.60682" lon="6.03351">
        <ele>317.85</ele>
        <time>2012-06-17T14:26:50Z</time>
      </trkpt>
      <trkpt lat="48.60681" lon="6.03352">
        <ele>318.33</ele>
        <time>2012-06-17T14:26:51Z</time>
      </trkpt>
      <trkpt lat="48.60677" lon="6.03358">
        <ele>321.22</ele>
        <time>2012-06-17T14:26:56Z</time>
      </trkpt>
      <trkpt lat="48.60677" lon="6.03359">
        <ele>316.89</ele>
        <time>2012-06-17T14:26:57Z</time>
      </trkpt>
      <trkpt lat="48.60677" lon="6.03361">
        <ele>318.33</ele>
        <time>2012-06-17T14:26:58Z</time>
      </trkpt>
      <trkpt lat="48.60676" lon="6.03364">
        <ele>322.18</ele>
        <time>2012-06-17T14:27:00Z</time>
      </trkpt>
      <trkpt lat="48.60676" lon="6.03365">
        <ele>317.37</ele>
        <time>2012-06-17T14:27:01Z</time>
      </trkpt>
      <trkpt lat="48.60676" lon="6.03365">
        <ele>320.26</ele>
        <time>2012-06-17T14:27:02Z</time>
      </trkpt>
      <trkpt lat="48.60674" lon="6.03368">
        <ele>322.18</ele>
        <time>2012-06-17T14:27:04Z</time>
      </trkpt>
      <trkpt lat="48.60673" lon="6.03368">
        <ele>316.89</ele>
        <time>2012-06-17T14:27:06Z</time>
      </trkpt>
      <trkpt lat="48.60672" lon="6.03369">
        <ele>320.74</ele>
        <time>2012-06-17T14:27:07Z</time>
      </trkpt>
      <trkpt lat="48.60671" lon="6.03371">
        <ele>324.1</ele>
        <time>2012-06-17T14:27:09Z</time>
      </trkpt>
      <trkpt lat="48.6067" lon="6.03373">
        <ele>318.81</ele>
        <time>2012-06-17T14:27:10Z</time>
      </trkpt>
      <trkpt lat="48.6067" lon="6.03373">
        <ele>320.74</ele>
        <time>2012-06-17T14:27:11Z</time>
      </trkpt>
      <trkpt lat="48.60669" lon="6.03373">
        <ele>323.14</ele>
        <time>2012-06-17T14:27:12Z</time>
      </trkpt>
      <trkpt lat="48.60667" lon="6.03376">
        <ele>318.81</ele>
        <time>2012-06-17T14:27:14Z</time>
      </trkpt>
      <trkpt lat="48.60666" lon="6.03377">
        <ele>321.22</ele>
        <time>2012-06-17T14:27:15Z</time>
      </trkpt>
      <trkpt lat="48.60665" lon="6.03379">
        <ele>322.18</ele>
        <time>2012-06-17T14:27:17Z</time>
      </trkpt>
      <trkpt lat="48.60662" lon="6.03382">
        <ele>317.37</ele>
        <time>2012-06-17T14:27:20Z</time>
      </trkpt>
      <trkpt lat="48.60661" lon="6.03383">
        <ele>323.14</ele>
        <time>2012-06-17T14:27:21Z</time>
      </trkpt>
      <trkpt lat="48.60659" lon="6.03387">
        <ele>321.22</ele>
        <time>2012-06-17T14:27:24Z</time>
      </trkpt>
      <trkpt lat="48.60656" lon="6.0339">
        <ele>325.06</ele>
        <time>2012-06-17T14:27:28Z</time>
      </trkpt>
      <trkpt lat="48.60656" lon="6.03391">
        <ele>321.22</ele>
        <time>2012-06-17T14:27:29Z</time>
      </trkpt>
      <trkpt lat="48.60653" lon="6.03394">
        <ele>325.06</ele>
        <time>2012-06-17T14:27:32Z</time>
      </trkpt>
      <trkpt lat="48.60651" lon="6.03395">
        <ele>321.22</ele>
        <time>2012-06-17T14:27:33Z</time>
      </trkpt>
      <trkpt lat="48.60647" lon="6.03398">
        <ele>324.58</ele>
        <time>2012-06-17T14:27:36Z</time>
      </trkpt>
      <trkpt lat="48.60645" lon="6.034">
        <ele>321.7</ele>
        <time>2012-06-17T14:27:38Z</time>
      </trkpt>
      <trkpt lat="48.6064" lon="6.03404">
        <ele>326.02</ele>
        <time>2012-06-17T14:27:42Z</time>
      </trkpt>
      <trkpt lat="48.60636" lon="6.03407">
        <ele>325.06</ele>
        <time>2012-06-17T14:27:45Z</time>
      </trkpt>
      <trkpt lat="48.60634" lon="6.03408">
        <ele>322.18</ele>
        <time>2012-06-17T14:27:47Z</time>
      </trkpt>
      <trkpt lat="48.60633" lon="6.03411">
        <ele>326.5</ele>
        <time>2012-06-17T14:27:49Z</time>
      </trkpt>
      <trkpt lat="48.60632" lon="6.03411">
        <ele>319.3</ele>
        <time>2012-06-17T14:27:50Z</time>
      </trkpt>
      <trkpt lat="48.60632" lon="6.03413">
        <ele>325.06</ele>
        <time>2012-06-17T14:27:51Z</time>
      </trkpt>
      <trkpt lat="48.60626" lon="6.03418">
        <ele>323.62</ele>
        <time>2012-06-17T14:27:56Z</time>
      </trkpt>
      <trkpt lat="48.60624" lon="6.03421">
        <ele>326.5</ele>
        <time>2012-06-17T14:27:58Z</time>
      </trkpt>
      <trkpt lat="48.60623" lon="6.03421">
        <ele>321.22</ele>
        <time>2012-06-17T14:27:59Z</time>
      </trkpt>
      <trkpt lat="48.60622" lon="6.03422">
        <ele>326.02</ele>
        <time>2012-06-17T14:28:00Z</time>
      </trkpt>
      <trkpt lat="48.60621" lon="6.03426">
        <ele>322.18</ele>
        <time>2012-06-17T14:28:03Z</time>
      </trkpt>
      <trkpt lat="48.6062" lon="6.03426">
        <ele>326.5</ele>
        <time>2012-06-17T14:28:04Z</time>
      </trkpt>
      <trkpt lat="48.60616" lon="6.03429">
        <ele>324.58</ele>
        <time>2012-06-17T14:28:07Z</time>
      </trkpt>
      <trkpt lat="48.60613" lon="6.03433">
        <ele>328.43</ele>
        <time>2012-06-17T14:28:10Z</time>
      </trkpt>
      <trkpt lat="48.60613" lon="6.03434">
        <ele>324.58</ele>
        <time>2012-06-17T14:28:11Z</time>
      </trkpt>
      <trkpt lat="48.6061" lon="6.03436">
        <ele>327.47</ele>
        <time>2012-06-17T14:28:14Z</time>
      </trkpt>
      <trkpt lat="48.60609" lon="6.03438">
        <ele>323.14</ele>
        <time>2012-06-17T14:28:15Z</time>
      </trkpt>
      <trkpt lat="48.60608" lon="6.03439">
        <ele>327.47</ele>
        <time>2012-06-17T14:28:16Z</time>
      </trkpt>
      <trkpt lat="48.60606" lon="6.03442">
        <ele>323.62</ele>
        <time>2012-06-17T14:28:19Z</time>
      </trkpt>
      <trkpt lat="48.60606" lon="6.03443">
        <ele>328.43</ele>
        <time>2012-06-17T14:28:20Z</time>
      </trkpt>
      <trkpt lat="48.60605" lon="6.03444">
        <ele>327.95</ele>
        <time>2012-06-17T14:28:21Z</time>
      </trkpt>
      <trkpt lat="48.60603" lon="6.03447">
        <ele>320.74</ele>
        <time>2012-06-17T14:28:24Z</time>
      </trkpt>
      <trkpt lat="48.60602" lon="6.03447">
        <ele>327.95</ele>
        <time>2012-06-17T14:28:25Z</time>
      </trkpt>
      <trkpt lat="48.60589" lon="6.03459">
        <ele>326.99</ele>
        <time>2012-06-17T14:28:38Z</time>
      </trkpt>
      <trkpt lat="48.60587" lon="6.03461">
        <ele>330.83</ele>
        <time>2012-06-17T14:28:40Z</time>
      </trkpt>
      <trkpt lat="48.60586" lon="6.03462">
        <ele>326.5</ele>
        <time>2012-06-17T14:28:41Z</time>
      </trkpt>
      <trkpt lat="48.60584" lon="6.03464">
        <ele>329.87</ele>
        <time>2012-06-17T14:28:43Z</time>
      </trkpt>
      <trkpt lat="48.60579" lon="6.0347">
        <ele>330.83</ele>
        <time>2012-06-17T14:28:49Z</time>
      </trkpt>
      <trkpt lat="48.60579" lon="6.03471">
        <ele>327.95</ele>
        <time>2012-06-17T14:28:50Z</time>
      </trkpt>
      <trkpt lat="48.60579" lon="6.03472">
        <ele>329.39</ele>
        <time>2012-06-17T14:28:51Z</time>
      </trkpt>
      <trkpt lat="48.60578" lon="6.03475">
        <ele>326.02</ele>
        <time>2012-06-17T14:28:54Z</time>
      </trkpt>
      <trkpt lat="48.60577" lon="6.03476">
        <ele>329.87</ele>
        <time>2012-06-17T14:28:55Z</time>
      </trkpt>
      <trkpt lat="48.60576" lon="6.03476">
        <ele>330.35</ele>
        <time>2012-06-17T14:28:56Z</time>
      </trkpt>
      <trkpt lat="48.60573" lon="6.03479">
        <ele>327.47</ele>
        <time>2012-06-17T14:28:59Z</time>
      </trkpt>
      <trkpt lat="48.60572" lon="6.03479">
        <ele>329.39</ele>
        <time>2012-06-17T14:29:00Z</time>
      </trkpt>
      <trkpt lat="48.6057" lon="6.03482">
        <ele>330.35</ele>
        <time>2012-06-17T14:29:02Z</time>
      </trkpt>
      <trkpt lat="48.60569" lon="6.03482">
        <ele>326.99</ele>
        <time>2012-06-17T14:29:03Z</time>
      </trkpt>
      <trkpt lat="48.60569" lon="6.03483">
        <ele>331.31</ele>
        <time>2012-06-17T14:29:04Z</time>
      </trkpt>
      <trkpt lat="48.60563" lon="6.03488">
        <ele>326.99</ele>
        <time>2012-06-17T14:29:11Z</time>
      </trkpt>
      <trkpt lat="48.6056" lon="6.0349">
        <ele>326.99</ele>
        <time>2012-06-17T14:29:14Z</time>
      </trkpt>
      <trkpt lat="48.60559" lon="6.03491">
        <ele>332.75</ele>
        <time>2012-06-17T14:29:15Z</time>
      </trkpt>
      <trkpt lat="48.60558" lon="6.03494">
        <ele>326.02</ele>
        <time>2012-06-17T14:29:17Z</time>
      </trkpt>
      <trkpt lat="48.60557" lon="6.03495">
        <ele>332.75</ele>
        <time>2012-06-17T14:29:18Z</time>
      </trkpt>
      <trkpt lat="48.60556" lon="6.03498">
        <ele>329.39</ele>
        <time>2012-06-17T14:29:20Z</time>
      </trkpt>
      <trkpt lat="48.60553" lon="6.035">
        <ele>334.2</ele>
        <time>2012-06-17T14:29:23Z</time>
      </trkpt>
      <trkpt lat="48.60553" lon="6.035">
        <ele>329.87</ele>
        <time>2012-06-17T14:29:24Z</time>
      </trkpt>
      <trkpt lat="48.60552" lon="6.03501">
        <ele>336.12</ele>
        <time>2012-06-17T14:29:26Z</time>
      </trkpt>
      <trkpt lat="48.60551" lon="6.03502">
        <ele>332.75</ele>
        <time>2012-06-17T14:29:27Z</time>
      </trkpt>
      <trkpt lat="48.60549" lon="6.03503">
        <ele>337.56</ele>
        <time>2012-06-17T14:29:29Z</time>
      </trkpt>
      <trkpt lat="48.60548" lon="6.03504">
        <ele>332.75</ele>
        <time>2012-06-17T14:29:30Z</time>
      </trkpt>
      <trkpt lat="48.60546" lon="6.03505">
        <ele>337.08</ele>
        <time>2012-06-17T14:29:33Z</time>
      </trkpt>
      <trkpt lat="48.60545" lon="6.03506">
        <ele>337.08</ele>
        <time>2012-06-17T14:29:34Z</time>
      </trkpt>
      <trkpt lat="48.60545" lon="6.03506">
        <ele>330.83</ele>
        <time>2012-06-17T14:29:35Z</time>
      </trkpt>
      <trkpt lat="48.60544" lon="6.03507">
        <ele>335.16</ele>
        <time>2012-06-17T14:29:36Z</time>
      </trkpt>
      <trkpt lat="48.60542" lon="6.03511">
        <ele>334.2</ele>
        <time>2012-06-17T14:29:39Z</time>
      </trkpt>
      <trkpt lat="48.6054" lon="6.03514">
        <ele>330.35</ele>
        <time>2012-06-17T14:29:41Z</time>
      </trkpt>
      <trkpt lat="48.6054" lon="6.03515">
        <ele>335.16</ele>
        <time>2012-06-17T14:29:42Z</time>
      </trkpt>
      <trkpt lat="48.60539" lon="6.03517">
        <ele>329.39</ele>
        <time>2012-06-17T14:29:44Z</time>
      </trkpt>
      <trkpt lat="48.60538" lon="6.03518">
        <ele>336.12</ele>
        <time>2012-06-17T14:29:45Z</time>
      </trkpt>
      <trkpt lat="48.60537" lon="6.0352">
        <ele>337.08</ele>
        <time>2012-06-17T14:29:47Z</time>
      </trkpt>
      <trkpt lat="48.60536" lon="6.0352">
        <ele>333.71</ele>
        <time>2012-06-17T14:29:48Z</time>
      </trkpt>
      <trkpt lat="48.60535" lon="6.03521">
        <ele>337.56</ele>
        <time>2012-06-17T14:29:49Z</time>
      </trkpt>
      <trkpt lat="48.60533" lon="6.03523">
        <ele>330.83</ele>
        <time>2012-06-17T14:29:53Z</time>
      </trkpt>
      <trkpt lat="48.60533" lon="6.03524">
        <ele>337.08</ele>
        <time>2012-06-17T14:29:54Z</time>
      </trkpt>
      <trkpt lat="48.60531" lon="6.03526">
        <ele>329.87</ele>
        <time>2012-06-17T14:29:56Z</time>
      </trkpt>
      <trkpt lat="48.6053" lon="6.03526">
        <ele>331.79</ele>
        <time>2012-06-17T14:29:57Z</time>
      </trkpt>
      <trkpt lat="48.60529" lon="6.03527">
        <ele>339</ele>
        <time>2012-06-17T14:29:58Z</time>
      </trkpt>
      <trkpt lat="48.60528" lon="6.03529">
        <ele>334.2</ele>
        <time>2012-06-17T14:30:00Z</time>
      </trkpt>
      <trkpt lat="48.60525" lon="6.03532">
        <ele>330.35</ele>
        <time>2012-06-17T14:30:03Z</time>
      </trkpt>
      <trkpt lat="48.60524" lon="6.03534">
        <ele>339.48</ele>
        <time>2012-06-17T14:30:04Z</time>
      </trkpt>
      <trkpt lat="48.60523" lon="6.03537">
        <ele>335.16</ele>
        <time>2012-06-17T14:30:06Z</time>
      </trkpt>
      <trkpt lat="48.60522" lon="6.03539">
        <ele>335.64</ele>
        <time>2012-06-17T14:30:08Z</time>
      </trkpt>
      <trkpt lat="48.60521" lon="6.03542">
        <ele>340.92</ele>
        <time>2012-06-17T14:30:10Z</time>
      </trkpt>
      <trkpt lat="48.6052" lon="6.03543">
        <ele>333.71</ele>
        <time>2012-06-17T14:30:11Z</time>
      </trkpt>
      <trkpt lat="48.6052" lon="6.03544">
        <ele>339.96</ele>
        <time>2012-06-17T14:30:12Z</time>
      </trkpt>
      <trkpt lat="48.60518" lon="6.03547">
        <ele>334.68</ele>
        <time>2012-06-17T14:30:15Z</time>
      </trkpt>
      <trkpt lat="48.60517" lon="6.03548">
        <ele>339.48</ele>
        <time>2012-06-17T14:30:16Z</time>
      </trkpt>
      <trkpt lat="48.60515" lon="6.03551">
        <ele>332.27</ele>
        <time>2012-06-17T14:30:18Z</time>
      </trkpt>
      <trkpt lat="48.60514" lon="6.03552">
        <ele>340.44</ele>
        <time>2012-06-17T14:30:19Z</time>
      </trkpt>
      <trkpt lat="48.60512" lon="6.03553">
        <ele>335.16</ele>
        <time>2012-06-17T14:30:21Z</time>
      </trkpt>
      <trkpt lat="48.60511" lon="6.03554">
        <ele>340.92</ele>
        <time>2012-06-17T14:30:22Z</time>
      </trkpt>
      <trkpt lat="48.60509" lon="6.03556">
        <ele>335.16</ele>
        <time>2012-06-17T14:30:24Z</time>
      </trkpt>
      <trkpt lat="48.60508" lon="6.03556">
        <ele>340.44</ele>
        <time>2012-06-17T14:30:25Z</time>
      </trkpt>
      <trkpt lat="48.60506" lon="6.03558">
        <ele>343.81</ele>
        <time>2012-06-17T14:30:27Z</time>
      </trkpt>
      <trkpt lat="48.60505" lon="6.03558">
        <ele>334.68</ele>
        <time>2012-06-17T14:30:28Z</time>
      </trkpt>
      <trkpt lat="48.60504" lon="6.03559">
        <ele>341.41</ele>
        <time>2012-06-17T14:30:29Z</time>
      </trkpt>
      <trkpt lat="48.60503" lon="6.0356">
        <ele>337.56</ele>
        <time>2012-06-17T14:30:31Z</time>
      </trkpt>
      <trkpt lat="48.60502" lon="6.03561">
        <ele>341.89</ele>
        <time>2012-06-17T14:30:32Z</time>
      </trkpt>
      <trkpt lat="48.605" lon="6.03564">
        <ele>337.08</ele>
        <time>2012-06-17T14:30:34Z</time>
      </trkpt>
      <trkpt lat="48.60499" lon="6.03564">
        <ele>341.89</ele>
        <time>2012-06-17T14:30:35Z</time>
      </trkpt>
      <trkpt lat="48.60498" lon="6.03566">
        <ele>343.33</ele>
        <time>2012-06-17T14:30:37Z</time>
      </trkpt>
      <trkpt lat="48.60497" lon="6.03568">
        <ele>340.44</ele>
        <time>2012-06-17T14:30:38Z</time>
      </trkpt>
      <trkpt lat="48.60493" lon="6.03572">
        <ele>339</ele>
        <time>2012-06-17T14:30:42Z</time>
      </trkpt>
      <trkpt lat="48.60492" lon="6.03573">
        <ele>342.37</ele>
        <time>2012-06-17T14:30:43Z</time>
      </trkpt>
      <trkpt lat="48.6049" lon="6.03576">
        <ele>340.92</ele>
        <time>2012-06-17T14:30:46Z</time>
      </trkpt>
      <trkpt lat="48.60488" lon="6.03578">
        <ele>342.37</ele>
        <time>2012-06-17T14:30:48Z</time>
      </trkpt>
      <trkpt lat="48.60488" lon="6.03579">
        <ele>338.04</ele>
        <time>2012-06-17T14:30:49Z</time>
      </trkpt>
      <trkpt lat="48.60487" lon="6.0358">
        <ele>338.52</ele>
        <time>2012-06-17T14:30:50Z</time>
      </trkpt>
      <trkpt lat="48.60486" lon="6.03582">
        <ele>343.33</ele>
        <time>2012-06-17T14:30:51Z</time>
      </trkpt>
      <trkpt lat="48.60486" lon="6.03583">
        <ele>343.33</ele>
        <time>2012-06-17T14:30:52Z</time>
      </trkpt>
      <trkpt lat="48.60485" lon="6.03585">
        <ele>339</ele>
        <time>2012-06-17T14:30:54Z</time>
      </trkpt>
      <trkpt lat="48.60482" lon="6.03587">
        <ele>339</ele>
        <time>2012-06-17T14:30:57Z</time>
      </trkpt>
      <trkpt lat="48.60482" lon="6.03588">
        <ele>343.33</ele>
        <time>2012-06-17T14:30:58Z</time>
      </trkpt>
      <trkpt lat="48.60477" lon="6.03597">
        <ele>343.81</ele>
        <time>2012-06-17T14:31:06Z</time>
      </trkpt>
      <trkpt lat="48.60471" lon="6.03609">
        <ele>343.33</ele>
        <time>2012-06-17T14:31:17Z</time>
      </trkpt>
      <trkpt lat="48.60471" lon="6.0361">
        <ele>347.17</ele>
        <time>2012-06-17T14:31:18Z</time>
      </trkpt>
      <trkpt lat="48.60469" lon="6.03612">
        <ele>342.85</ele>
        <time>2012-06-17T14:31:20Z</time>
      </trkpt>
      <trkpt lat="48.60469" lon="6.03613">
        <ele>346.69</ele>
        <time>2012-06-17T14:31:21Z</time>
      </trkpt>
      <trkpt lat="48.60467" lon="6.03615">
        <ele>341.89</ele>
        <time>2012-06-17T14:31:23Z</time>
      </trkpt>
      <trkpt lat="48.60466" lon="6.03616">
        <ele>346.69</ele>
        <time>2012-06-17T14:31:24Z</time>
      </trkpt>
      <trkpt lat="48.60464" lon="6.0362">
        <ele>350.54</ele>
        <time>2012-06-17T14:31:27Z</time>
      </trkpt>
      <trkpt lat="48.60464" lon="6.03621">
        <ele>346.21</ele>
        <time>2012-06-17T14:31:28Z</time>
      </trkpt>
      <trkpt lat="48.60461" lon="6.03627">
        <ele>345.25</ele>
        <time>2012-06-17T14:31:32Z</time>
      </trkpt>
      <trkpt lat="48.60459" lon="6.0363">
        <ele>345.73</ele>
        <time>2012-06-17T14:31:35Z</time>
      </trkpt>
      <trkpt lat="48.60459" lon="6.03631">
        <ele>348.62</ele>
        <time>2012-06-17T14:31:36Z</time>
      </trkpt>
      <trkpt lat="48.60458" lon="6.03633">
        <ele>350.06</ele>
        <time>2012-06-17T14:31:38Z</time>
      </trkpt>
      <trkpt lat="48.60458" lon="6.03633">
        <ele>346.69</ele>
        <time>2012-06-17T14:31:39Z</time>
      </trkpt>
      <trkpt lat="48.60457" lon="6.03634">
        <ele>348.62</ele>
        <time>2012-06-17T14:31:40Z</time>
      </trkpt>
      <trkpt lat="48.60455" lon="6.03637">
        <ele>344.77</ele>
        <time>2012-06-17T14:31:43Z</time>
      </trkpt>
      <trkpt lat="48.60453" lon="6.03639">
        <ele>343.81</ele>
        <time>2012-06-17T14:31:46Z</time>
      </trkpt>
      <trkpt lat="48.60452" lon="6.0364">
        <ele>350.06</ele>
        <time>2012-06-17T14:31:47Z</time>
      </trkpt>
      <trkpt lat="48.6045" lon="6.03645">
        <ele>346.69</ele>
        <time>2012-06-17T14:31:50Z</time>
      </trkpt>
      <trkpt lat="48.60449" lon="6.03646">
        <ele>348.62</ele>
        <time>2012-06-17T14:31:51Z</time>
      </trkpt>
      <trkpt lat="48.60446" lon="6.03652">
        <ele>349.1</ele>
        <time>2012-06-17T14:31:55Z</time>
      </trkpt>
      <trkpt lat="48.60443" lon="6.03655">
        <ele>345.73</ele>
        <time>2012-06-17T14:31:58Z</time>
      </trkpt>
      <trkpt lat="48.60442" lon="6.03656">
        <ele>351.5</ele>
        <time>2012-06-17T14:31:59Z</time>
      </trkpt>
      <trkpt lat="48.60438" lon="6.03665">
        <ele>347.65</ele>
        <time>2012-06-17T14:32:07Z</time>
      </trkpt>
      <trkpt lat="48.60438" lon="6.03667">
        <ele>350.54</ele>
        <time>2012-06-17T14:32:08Z</time>
      </trkpt>
      <trkpt lat="48.60435" lon="6.03672">
        <ele>351.02</ele>
        <time>2012-06-17T14:32:12Z</time>
      </trkpt>
      <trkpt lat="48.60434" lon="6.03679">
        <ele>350.54</ele>
        <time>2012-06-17T14:32:24Z</time>
      </trkpt>
      <trkpt lat="48.60434" lon="6.03679">
        <ele>351.5</ele>
        <time>2012-06-17T14:32:51Z</time>
      </trkpt>
      <trkpt lat="48.60434" lon="6.03679">
        <ele>351.02</ele>
        <time>2012-06-17T14:33:19Z</time>
      </trkpt>
      <trkpt lat="48.6043" lon="6.03685">
        <ele>351.5</ele>
        <time>2012-06-17T14:33:43Z</time>
      </trkpt>
      <trkpt lat="48.60429" lon="6.03688">
        <ele>347.65</ele>
        <time>2012-06-17T14:33:46Z</time>
      </trkpt>
      <trkpt lat="48.60427" lon="6.03694">
        <ele>352.94</ele>
        <time>2012-06-17T14:33:49Z</time>
      </trkpt>
      <trkpt lat="48.60425" lon="6.03697">
        <ele>350.06</ele>
        <time>2012-06-17T14:33:51Z</time>
      </trkpt>
      <trkpt lat="48.60425" lon="6.03699">
        <ele>353.42</ele>
        <time>2012-06-17T14:33:53Z</time>
      </trkpt>
      <trkpt lat="48.60424" lon="6.037">
        <ele>353.9</ele>
        <time>2012-06-17T14:33:54Z</time>
      </trkpt>
      <trkpt lat="48.60423" lon="6.03702">
        <ele>350.54</ele>
        <time>2012-06-17T14:33:55Z</time>
      </trkpt>
      <trkpt lat="48.60423" lon="6.03703">
        <ele>354.38</ele>
        <time>2012-06-17T14:33:56Z</time>
      </trkpt>
      <trkpt lat="48.60422" lon="6.03704">
        <ele>351.02</ele>
        <time>2012-06-17T14:33:57Z</time>
      </trkpt>
      <trkpt lat="48.60421" lon="6.03707">
        <ele>353.9</ele>
        <time>2012-06-17T14:33:59Z</time>
      </trkpt>
      <trkpt lat="48.6042" lon="6.0371">
        <ele>354.38</ele>
        <time>2012-06-17T14:34:01Z</time>
      </trkpt>
      <trkpt lat="48.60419" lon="6.03712">
        <ele>350.06</ele>
        <time>2012-06-17T14:34:03Z</time>
      </trkpt>
      <trkpt lat="48.60418" lon="6.03713">
        <ele>352.94</ele>
        <time>2012-06-17T14:34:04Z</time>
      </trkpt>
      <trkpt lat="48.60412" lon="6.03728">
        <ele>351.02</ele>
        <time>2012-06-17T14:34:14Z</time>
      </trkpt>
      <trkpt lat="48.60411" lon="6.03729">
        <ele>354.86</ele>
        <time>2012-06-17T14:34:15Z</time>
      </trkpt>
      <trkpt lat="48.60411" lon="6.03731">
        <ele>356.31</ele>
        <time>2012-06-17T14:34:16Z</time>
      </trkpt>
      <trkpt lat="48.60409" lon="6.03734">
        <ele>352.46</ele>
        <time>2012-06-17T14:34:18Z</time>
      </trkpt>
      <trkpt lat="48.60408" lon="6.03735">
        <ele>353.42</ele>
        <time>2012-06-17T14:34:19Z</time>
      </trkpt>
      <trkpt lat="48.60406" lon="6.03738">
        <ele>357.27</ele>
        <time>2012-06-17T14:34:22Z</time>
      </trkpt>
      <trkpt lat="48.60403" lon="6.03743">
        <ele>352.94</ele>
        <time>2012-06-17T14:34:26Z</time>
      </trkpt>
      <trkpt lat="48.604" lon="6.03748">
        <ele>356.79</ele>
        <time>2012-06-17T14:34:29Z</time>
      </trkpt>
      <trkpt lat="48.60397" lon="6.03752">
        <ele>355.34</ele>
        <time>2012-06-17T14:34:32Z</time>
      </trkpt>
      <trkpt lat="48.60392" lon="6.03766">
        <ele>358.71</ele>
        <time>2012-06-17T14:34:41Z</time>
      </trkpt>
      <trkpt lat="48.60392" lon="6.03767">
        <ele>355.34</ele>
        <time>2012-06-17T14:34:42Z</time>
      </trkpt>
      <trkpt lat="48.6039" lon="6.0377">
        <ele>358.71</ele>
        <time>2012-06-17T14:34:45Z</time>
      </trkpt>
      <trkpt lat="48.60389" lon="6.03774">
        <ele>354.38</ele>
        <time>2012-06-17T14:34:47Z</time>
      </trkpt>
      <trkpt lat="48.60388" lon="6.03776">
        <ele>358.23</ele>
        <time>2012-06-17T14:34:48Z</time>
      </trkpt>
      <trkpt lat="48.60378" lon="6.038">
        <ele>359.19</ele>
        <time>2012-06-17T14:35:05Z</time>
      </trkpt>
      <trkpt lat="48.60367" lon="6.03817">
        <ele>356.79</ele>
        <time>2012-06-17T14:35:19Z</time>
      </trkpt>
      <trkpt lat="48.60363" lon="6.03824">
        <ele>360.15</ele>
        <time>2012-06-17T14:35:24Z</time>
      </trkpt>
      <trkpt lat="48.6036" lon="6.03832">
        <ele>356.79</ele>
        <time>2012-06-17T14:35:33Z</time>
      </trkpt>
      <trkpt lat="48.60358" lon="6.03837">
        <ele>360.15</ele>
        <time>2012-06-17T14:35:36Z</time>
      </trkpt>
      <trkpt lat="48.60355" lon="6.03846">
        <ele>360.15</ele>
        <time>2012-06-17T14:35:42Z</time>
      </trkpt>
      <trkpt lat="48.60353" lon="6.03848">
        <ele>358.23</ele>
        <time>2012-06-17T14:35:44Z</time>
      </trkpt>
      <trkpt lat="48.60351" lon="6.03852">
        <ele>360.15</ele>
        <time>2012-06-17T14:35:47Z</time>
      </trkpt>
      <trkpt lat="48.60348" lon="6.03864">
        <ele>359.67</ele>
        <time>2012-06-17T14:35:55Z</time>
      </trkpt>
      <trkpt lat="48.60345" lon="6.03868">
        <ele>359.19</ele>
        <time>2012-06-17T14:35:59Z</time>
      </trkpt>
      <trkpt lat="48.60337" lon="6.03881">
        <ele>359.19</ele>
        <time>2012-06-17T14:36:09Z</time>
      </trkpt>
      <trkpt lat="48.60336" lon="6.03883">
        <ele>359.67</ele>
        <time>2012-06-17T14:36:10Z</time>
      </trkpt>
      <trkpt lat="48.60329" lon="6.03896">
        <ele>354.38</ele>
        <time>2012-06-17T14:36:20Z</time>
      </trkpt>
      <trkpt lat="48.60328" lon="6.03897">
        <ele>362.55</ele>
        <time>2012-06-17T14:36:21Z</time>
      </trkpt>
      <trkpt lat="48.60327" lon="6.03902">
        <ele>358.71</ele>
        <time>2012-06-17T14:36:26Z</time>
      </trkpt>
      <trkpt lat="48.60327" lon="6.03902">
        <ele>359.67</ele>
        <time>2012-06-17T14:36:54Z</time>
      </trkpt>
      <trkpt lat="48.60327" lon="6.03902">
        <ele>360.15</ele>
        <time>2012-06-17T14:37:24Z</time>
      </trkpt>
      <trkpt lat="48.60327" lon="6.03902">
        <ele>354.86</ele>
        <time>2012-06-17T14:37:33Z</time>
      </trkpt>
      <trkpt lat="48.60327" lon="6.03903">
        <ele>359.67</ele>
        <time>2012-06-17T14:37:34Z</time>
      </trkpt>
      <trkpt lat="48.60324" lon="6.03908">
        <ele>360.63</ele>
        <time>2012-06-17T14:37:40Z</time>
      </trkpt>
      <trkpt lat="48.60322" lon="6.03914">
        <ele>360.63</ele>
        <time>2012-06-17T14:37:45Z</time>
      </trkpt>
      <trkpt lat="48.60319" lon="6.0392">
        <ele>360.63</ele>
        <time>2012-06-17T14:37:52Z</time>
      </trkpt>
      <trkpt lat="48.60314" lon="6.03928">
        <ele>361.11</ele>
        <time>2012-06-17T14:37:58Z</time>
      </trkpt>
      <trkpt lat="48.60312" lon="6.03931">
        <ele>357.75</ele>
        <time>2012-06-17T14:38:00Z</time>
      </trkpt>
      <trkpt lat="48.60311" lon="6.03934">
        <ele>361.11</ele>
        <time>2012-06-17T14:38:02Z</time>
      </trkpt>
      <trkpt lat="48.60311" lon="6.03935">
        <ele>351.02</ele>
        <time>2012-06-17T14:38:04Z</time>
      </trkpt>
      <trkpt lat="48.60311" lon="6.03935">
        <ele>360.15</ele>
        <time>2012-06-17T14:38:05Z</time>
      </trkpt>
      <trkpt lat="48.60311" lon="6.03935">
        <ele>366.4</ele>
        <time>2012-06-17T14:38:07Z</time>
      </trkpt>
      <trkpt lat="48.60311" lon="6.03936">
        <ele>362.07</ele>
        <time>2012-06-17T14:38:08Z</time>
      </trkpt>
      <trkpt lat="48.60308" lon="6.0394">
        <ele>361.11</ele>
        <time>2012-06-17T14:38:11Z</time>
      </trkpt>
      <trkpt lat="48.60304" lon="6.03947">
        <ele>359.19</ele>
        <time>2012-06-17T14:38:17Z</time>
      </trkpt>
      <trkpt lat="48.60302" lon="6.03955">
        <ele>359.67</ele>
        <time>2012-06-17T14:38:22Z</time>
      </trkpt>
      <trkpt lat="48.60301" lon="6.03963">
        <ele>359.19</ele>
        <time>2012-06-17T14:38:33Z</time>
      </trkpt>
      <trkpt lat="48.60298" lon="6.03971">
        <ele>359.67</ele>
        <time>2012-06-17T14:38:44Z</time>
      </trkpt>
      <trkpt lat="48.60295" lon="6.03982">
        <ele>358.71</ele>
        <time>2012-06-17T14:38:51Z</time>
      </trkpt>
      <trkpt lat="48.60291" lon="6.03989">
        <ele>359.67</ele>
        <time>2012-06-17T14:38:56Z</time>
      </trkpt>
      <trkpt lat="48.60289" lon="6.03994">
        <ele>358.23</ele>
        <time>2012-06-17T14:38:59Z</time>
      </trkpt>
      <trkpt lat="48.60281" lon="6.04014">
        <ele>354.38</ele>
        <time>2012-06-17T14:39:13Z</time>
      </trkpt>
      <trkpt lat="48.60281" lon="6.04015">
        <ele>358.71</ele>
        <time>2012-06-17T14:39:14Z</time>
      </trkpt>
      <trkpt lat="48.60276" lon="6.04037">
        <ele>358.23</ele>
        <time>2012-06-17T14:39:27Z</time>
      </trkpt>
      <trkpt lat="48.60277" lon="6.04045">
        <ele>356.79</ele>
        <time>2012-06-17T14:39:33Z</time>
      </trkpt>
      <trkpt lat="48.6027" lon="6.04067">
        <ele>359.19</ele>
        <time>2012-06-17T14:39:47Z</time>
      </trkpt>
      <trkpt lat="48.60263" lon="6.04076">
        <ele>359.19</ele>
        <time>2012-06-17T14:39:54Z</time>
      </trkpt>
      <trkpt lat="48.6026" lon="6.0408">
        <ele>355.83</ele>
        <time>2012-06-17T14:40:00Z</time>
      </trkpt>
      <trkpt lat="48.6026" lon="6.04081">
        <ele>358.71</ele>
        <time>2012-06-17T14:40:01Z</time>
      </trkpt>
      <trkpt lat="48.60259" lon="6.04083">
        <ele>360.15</ele>
        <time>2012-06-17T14:40:02Z</time>
      </trkpt>
      <trkpt lat="48.60258" lon="6.04088">
        <ele>361.11</ele>
        <time>2012-06-17T14:40:04Z</time>
      </trkpt>
      <trkpt lat="48.60257" lon="6.04089">
        <ele>357.75</ele>
        <time>2012-06-17T14:40:05Z</time>
      </trkpt>
      <trkpt lat="48.60256" lon="6.04091">
        <ele>359.67</ele>
        <time>2012-06-17T14:40:06Z</time>
      </trkpt>
      <trkpt lat="48.60252" lon="6.04096">
        <ele>359.19</ele>
        <time>2012-06-17T14:40:11Z</time>
      </trkpt>
      <trkpt lat="48.60251" lon="6.04098">
        <ele>363.04</ele>
        <time>2012-06-17T14:40:13Z</time>
      </trkpt>
      <trkpt lat="48.60249" lon="6.04101">
        <ele>354.86</ele>
        <time>2012-06-17T14:40:15Z</time>
      </trkpt>
      <trkpt lat="48.60249" lon="6.04103">
        <ele>362.07</ele>
        <time>2012-06-17T14:40:16Z</time>
      </trkpt>
      <trkpt lat="48.60249" lon="6.04109">
        <ele>357.75</ele>
        <time>2012-06-17T14:40:19Z</time>
      </trkpt>
      <trkpt lat="48.60248" lon="6.04111">
        <ele>359.19</ele>
        <time>2012-06-17T14:40:20Z</time>
      </trkpt>
      <trkpt lat="48.60247" lon="6.04112">
        <ele>362.55</ele>
        <time>2012-06-17T14:40:21Z</time>
      </trkpt>
      <trkpt lat="48.60241" lon="6.04125">
        <ele>358.71</ele>
        <time>2012-06-17T14:40:30Z</time>
      </trkpt>
      <trkpt lat="48.60241" lon="6.04125">
        <ele>359.67</ele>
        <time>2012-06-17T14:40:31Z</time>
      </trkpt>
      <trkpt lat="48.6024" lon="6.04126">
        <ele>363.52</ele>
        <time>2012-06-17T14:40:32Z</time>
      </trkpt>
      <trkpt lat="48.60239" lon="6.04129">
        <ele>360.15</ele>
        <time>2012-06-17T14:40:34Z</time>
      </trkpt>
      <trkpt lat="48.60238" lon="6.04132">
        <ele>363.52</ele>
        <time>2012-06-17T14:40:36Z</time>
      </trkpt>
      <trkpt lat="48.60235" lon="6.04139">
        <ele>360.63</ele>
        <time>2012-06-17T14:40:41Z</time>
      </trkpt>
      <trkpt lat="48.60235" lon="6.04141">
        <ele>364.48</ele>
        <time>2012-06-17T14:40:42Z</time>
      </trkpt>
      <trkpt lat="48.60234" lon="6.04144">
        <ele>361.59</ele>
        <time>2012-06-17T14:40:45Z</time>
      </trkpt>
      <trkpt lat="48.60233" lon="6.04147">
        <ele>364.48</ele>
        <time>2012-06-17T14:40:47Z</time>
      </trkpt>
      <trkpt lat="48.60232" lon="6.04152">
        <ele>362.07</ele>
        <time>2012-06-17T14:40:50Z</time>
      </trkpt>
      <trkpt lat="48.6023" lon="6.0416">
        <ele>366.4</ele>
        <time>2012-06-17T14:40:54Z</time>
      </trkpt>
      <trkpt lat="48.60229" lon="6.04161">
        <ele>362.55</ele>
        <time>2012-06-17T14:40:55Z</time>
      </trkpt>
      <trkpt lat="48.60228" lon="6.04163">
        <ele>366.4</ele>
        <time>2012-06-17T14:40:57Z</time>
      </trkpt>
      <trkpt lat="48.60227" lon="6.04164">
        <ele>364.48</ele>
        <time>2012-06-17T14:40:58Z</time>
      </trkpt>
      <trkpt lat="48.60221" lon="6.04175">
        <ele>363.52</ele>
        <time>2012-06-17T14:41:05Z</time>
      </trkpt>
      <trkpt lat="48.60221" lon="6.04177">
        <ele>365.44</ele>
        <time>2012-06-17T14:41:06Z</time>
      </trkpt>
      <trkpt lat="48.60219" lon="6.04182">
        <ele>363.04</ele>
        <time>2012-06-17T14:41:10Z</time>
      </trkpt>
      <trkpt lat="48.60219" lon="6.04186">
        <ele>366.4</ele>
        <time>2012-06-17T14:41:12Z</time>
      </trkpt>
      <trkpt lat="48.60217" lon="6.0419">
        <ele>363.04</ele>
        <time>2012-06-17T14:41:16Z</time>
      </trkpt>
      <trkpt lat="48.60217" lon="6.04192">
        <ele>365.92</ele>
        <time>2012-06-17T14:41:17Z</time>
      </trkpt>
      <trkpt lat="48.60211" lon="6.04199">
        <ele>367.36</ele>
        <time>2012-06-17T14:41:23Z</time>
      </trkpt>
      <trkpt lat="48.6021" lon="6.04201">
        <ele>364</ele>
        <time>2012-06-17T14:41:25Z</time>
      </trkpt>
      <trkpt lat="48.6021" lon="6.04201">
        <ele>367.36</ele>
        <time>2012-06-17T14:41:26Z</time>
      </trkpt>
      <trkpt lat="48.60205" lon="6.04213">
        <ele>367.36</ele>
        <time>2012-06-17T14:41:32Z</time>
      </trkpt>
      <trkpt lat="48.60203" lon="6.04216">
        <ele>365.92</ele>
        <time>2012-06-17T14:41:36Z</time>
      </trkpt>
      <trkpt lat="48.60202" lon="6.0422">
        <ele>367.36</ele>
        <time>2012-06-17T14:41:38Z</time>
      </trkpt>
      <trkpt lat="48.60199" lon="6.04227">
        <ele>365.44</ele>
        <time>2012-06-17T14:41:42Z</time>
      </trkpt>
      <trkpt lat="48.60197" lon="6.04231">
        <ele>368.8</ele>
        <time>2012-06-17T14:41:45Z</time>
      </trkpt>
      <trkpt lat="48.60196" lon="6.04232">
        <ele>364</ele>
        <time>2012-06-17T14:41:46Z</time>
      </trkpt>
      <trkpt lat="48.60196" lon="6.04234">
        <ele>365.92</ele>
        <time>2012-06-17T14:41:47Z</time>
      </trkpt>
      <trkpt lat="48.60195" lon="6.04237">
        <ele>369.28</ele>
        <time>2012-06-17T14:41:49Z</time>
      </trkpt>
      <trkpt lat="48.60193" lon="6.04241">
        <ele>365.44</ele>
        <time>2012-06-17T14:41:52Z</time>
      </trkpt>
      <trkpt lat="48.60192" lon="6.04244">
        <ele>368.8</ele>
        <time>2012-06-17T14:41:54Z</time>
      </trkpt>
      <trkpt lat="48.60191" lon="6.04245">
        <ele>369.28</ele>
        <time>2012-06-17T14:41:55Z</time>
      </trkpt>
      <trkpt lat="48.60188" lon="6.04253">
        <ele>364</ele>
        <time>2012-06-17T14:42:00Z</time>
      </trkpt>
      <trkpt lat="48.60188" lon="6.04255">
        <ele>369.28</ele>
        <time>2012-06-17T14:42:02Z</time>
      </trkpt>
      <trkpt lat="48.60187" lon="6.04257">
        <ele>369.28</ele>
        <time>2012-06-17T14:42:03Z</time>
      </trkpt>
      <trkpt lat="48.60185" lon="6.0426">
        <ele>364</ele>
        <time>2012-06-17T14:42:05Z</time>
      </trkpt>
      <trkpt lat="48.60185" lon="6.04261">
        <ele>366.88</ele>
        <time>2012-06-17T14:42:06Z</time>
      </trkpt>
      <trkpt lat="48.60183" lon="6.04265">
        <ele>370.73</ele>
        <time>2012-06-17T14:42:09Z</time>
      </trkpt>
      <trkpt lat="48.60183" lon="6.04266">
        <ele>365.92</ele>
        <time>2012-06-17T14:42:10Z</time>
      </trkpt>
      <trkpt lat="48.60183" lon="6.04268">
        <ele>366.4</ele>
        <time>2012-06-17T14:42:11Z</time>
      </trkpt>
      <trkpt lat="48.60182" lon="6.04271">
        <ele>369.76</ele>
        <time>2012-06-17T14:42:13Z</time>
      </trkpt>
      <trkpt lat="48.60181" lon="6.04273">
        <ele>369.76</ele>
        <time>2012-06-17T14:42:14Z</time>
      </trkpt>
      <trkpt lat="48.6018" lon="6.04275">
        <ele>368.32</ele>
        <time>2012-06-17T14:42:16Z</time>
      </trkpt>
      <trkpt lat="48.60177" lon="6.04285">
        <ele>368.32</ele>
        <time>2012-06-17T14:42:22Z</time>
      </trkpt>
      <trkpt lat="48.60175" lon="6.04289">
        <ele>371.21</ele>
        <time>2012-06-17T14:42:24Z</time>
      </trkpt>
      <trkpt lat="48.60174" lon="6.04293">
        <ele>369.28</ele>
        <time>2012-06-17T14:42:27Z</time>
      </trkpt>
      <trkpt lat="48.60173" lon="6.04295">
        <ele>371.21</ele>
        <time>2012-06-17T14:42:29Z</time>
      </trkpt>
      <trkpt lat="48.60172" lon="6.04297">
        <ele>363.04</ele>
        <time>2012-06-17T14:42:31Z</time>
      </trkpt>
      <trkpt lat="48.60172" lon="6.04299">
        <ele>368.8</ele>
        <time>2012-06-17T14:42:32Z</time>
      </trkpt>
      <trkpt lat="48.60169" lon="6.04304">
        <ele>371.69</ele>
        <time>2012-06-17T14:42:35Z</time>
      </trkpt>
      <trkpt lat="48.60167" lon="6.0431">
        <ele>369.28</ele>
        <time>2012-06-17T14:42:38Z</time>
      </trkpt>
      <trkpt lat="48.60164" lon="6.04317">
        <ele>373.13</ele>
        <time>2012-06-17T14:42:44Z</time>
      </trkpt>
      <trkpt lat="48.60164" lon="6.04317">
        <ele>366.88</ele>
        <time>2012-06-17T14:42:45Z</time>
      </trkpt>
      <trkpt lat="48.60164" lon="6.0432">
        <ele>371.69</ele>
        <time>2012-06-17T14:42:46Z</time>
      </trkpt>
      <trkpt lat="48.60163" lon="6.04325">
        <ele>372.65</ele>
        <time>2012-06-17T14:42:48Z</time>
      </trkpt>
      <trkpt lat="48.60163" lon="6.04328">
        <ele>369.76</ele>
        <time>2012-06-17T14:42:50Z</time>
      </trkpt>
      <trkpt lat="48.60162" lon="6.04331">
        <ele>372.65</ele>
        <time>2012-06-17T14:42:52Z</time>
      </trkpt>
      <trkpt lat="48.60161" lon="6.04332">
        <ele>372.65</ele>
        <time>2012-06-17T14:42:53Z</time>
      </trkpt>
      <trkpt lat="48.6016" lon="6.04332">
        <ele>369.28</ele>
        <time>2012-06-17T14:42:54Z</time>
      </trkpt>
      <trkpt lat="48.60157" lon="6.04339">
        <ele>372.65</ele>
        <time>2012-06-17T14:42:58Z</time>
      </trkpt>
      <trkpt lat="48.60153" lon="6.04353">
        <ele>368.8</ele>
        <time>2012-06-17T14:43:05Z</time>
      </trkpt>
      <trkpt lat="48.60153" lon="6.04353">
        <ele>373.13</ele>
        <time>2012-06-17T14:43:06Z</time>
      </trkpt>
      <trkpt lat="48.60152" lon="6.04355">
        <ele>368.8</ele>
        <time>2012-06-17T14:43:07Z</time>
      </trkpt>
      <trkpt lat="48.60152" lon="6.04358">
        <ele>373.61</ele>
        <time>2012-06-17T14:43:08Z</time>
      </trkpt>
      <trkpt lat="48.6015" lon="6.04365">
        <ele>373.13</ele>
        <time>2012-06-17T14:43:13Z</time>
      </trkpt>
      <trkpt lat="48.60147" lon="6.04372">
        <ele>369.76</ele>
        <time>2012-06-17T14:43:17Z</time>
      </trkpt>
      <trkpt lat="48.60146" lon="6.04374">
        <ele>374.09</ele>
        <time>2012-06-17T14:43:18Z</time>
      </trkpt>
      <trkpt lat="48.60146" lon="6.04375">
        <ele>375.53</ele>
        <time>2012-06-17T14:43:19Z</time>
      </trkpt>
      <trkpt lat="48.60145" lon="6.04381">
        <ele>371.69</ele>
        <time>2012-06-17T14:43:23Z</time>
      </trkpt>
      <trkpt lat="48.60145" lon="6.04383">
        <ele>375.05</ele>
        <time>2012-06-17T14:43:24Z</time>
      </trkpt>
      <trkpt lat="48.60144" lon="6.04385">
        <ele>375.05</ele>
        <time>2012-06-17T14:43:25Z</time>
      </trkpt>
      <trkpt lat="48.60143" lon="6.04389">
        <ele>373.13</ele>
        <time>2012-06-17T14:43:28Z</time>
      </trkpt>
      <trkpt lat="48.6014" lon="6.04401">
        <ele>376.01</ele>
        <time>2012-06-17T14:43:36Z</time>
      </trkpt>
      <trkpt lat="48.60138" lon="6.04407">
        <ele>371.21</ele>
        <time>2012-06-17T14:43:39Z</time>
      </trkpt>
      <trkpt lat="48.60137" lon="6.04408">
        <ele>375.53</ele>
        <time>2012-06-17T14:43:40Z</time>
      </trkpt>
      <trkpt lat="48.60136" lon="6.0441">
        <ele>376.49</ele>
        <time>2012-06-17T14:43:41Z</time>
      </trkpt>
      <trkpt lat="48.60135" lon="6.04413">
        <ele>373.13</ele>
        <time>2012-06-17T14:43:43Z</time>
      </trkpt>
      <trkpt lat="48.60134" lon="6.04414">
        <ele>373.13</ele>
        <time>2012-06-17T14:43:44Z</time>
      </trkpt>
      <trkpt lat="48.60133" lon="6.04419">
        <ele>376.97</ele>
        <time>2012-06-17T14:43:47Z</time>
      </trkpt>
      <trkpt lat="48.60133" lon="6.04422">
        <ele>373.61</ele>
        <time>2012-06-17T14:43:49Z</time>
      </trkpt>
      <trkpt lat="48.6013" lon="6.04428">
        <ele>371.69</ele>
        <time>2012-06-17T14:43:53Z</time>
      </trkpt>
      <trkpt lat="48.60129" lon="6.04429">
        <ele>376.97</ele>
        <time>2012-06-17T14:43:54Z</time>
      </trkpt>
      <trkpt lat="48.60127" lon="6.04432">
        <ele>377.94</ele>
        <time>2012-06-17T14:43:56Z</time>
      </trkpt>
      <trkpt lat="48.60126" lon="6.04436">
        <ele>375.53</ele>
        <time>2012-06-17T14:43:59Z</time>
      </trkpt>
      <trkpt lat="48.60124" lon="6.04439">
        <ele>378.42</ele>
        <time>2012-06-17T14:44:01Z</time>
      </trkpt>
      <trkpt lat="48.60122" lon="6.04442">
        <ele>373.13</ele>
        <time>2012-06-17T14:44:05Z</time>
      </trkpt>
      <trkpt lat="48.60121" lon="6.04443">
        <ele>377.45</ele>
        <time>2012-06-17T14:44:06Z</time>
      </trkpt>
      <trkpt lat="48.60115" lon="6.04452">
        <ele>379.86</ele>
        <time>2012-06-17T14:44:18Z</time>
      </trkpt>
      <trkpt lat="48.60114" lon="6.04456">
        <ele>376.97</ele>
        <time>2012-06-17T14:44:20Z</time>
      </trkpt>
      <trkpt lat="48.60113" lon="6.04459">
        <ele>378.42</ele>
        <time>2012-06-17T14:44:22Z</time>
      </trkpt>
      <trkpt lat="48.60111" lon="6.0446">
        <ele>376.97</ele>
        <time>2012-06-17T14:44:24Z</time>
      </trkpt>
      <trkpt lat="48.60109" lon="6.04462">
        <ele>378.9</ele>
        <time>2012-06-17T14:44:26Z</time>
      </trkpt>
      <trkpt lat="48.60104" lon="6.04467">
        <ele>379.38</ele>
        <time>2012-06-17T14:44:30Z</time>
      </trkpt>
      <trkpt lat="48.601" lon="6.0447">
        <ele>375.53</ele>
        <time>2012-06-17T14:44:33Z</time>
      </trkpt>
      <trkpt lat="48.601" lon="6.04472">
        <ele>379.38</ele>
        <time>2012-06-17T14:44:34Z</time>
      </trkpt>
      <trkpt lat="48.60096" lon="6.04477">
        <ele>376.97</ele>
        <time>2012-06-17T14:44:38Z</time>
      </trkpt>
      <trkpt lat="48.60093" lon="6.0448">
        <ele>373.13</ele>
        <time>2012-06-17T14:44:41Z</time>
      </trkpt>
      <trkpt lat="48.60092" lon="6.0448">
        <ele>381.3</ele>
        <time>2012-06-17T14:44:42Z</time>
      </trkpt>
      <trkpt lat="48.60085" lon="6.04494">
        <ele>377.94</ele>
        <time>2012-06-17T14:44:53Z</time>
      </trkpt>
      <trkpt lat="48.60083" lon="6.04499">
        <ele>379.86</ele>
        <time>2012-06-17T14:44:56Z</time>
      </trkpt>
      <trkpt lat="48.60079" lon="6.04507">
        <ele>379.38</ele>
        <time>2012-06-17T14:45:02Z</time>
      </trkpt>
      <trkpt lat="48.60074" lon="6.04515">
        <ele>380.82</ele>
        <time>2012-06-17T14:45:08Z</time>
      </trkpt>
      <trkpt lat="48.60073" lon="6.04517">
        <ele>375.05</ele>
        <time>2012-06-17T14:45:10Z</time>
      </trkpt>
      <trkpt lat="48.60072" lon="6.04518">
        <ele>380.82</ele>
        <time>2012-06-17T14:45:11Z</time>
      </trkpt>
      <trkpt lat="48.60063" lon="6.04536">
        <ele>381.3</ele>
        <time>2012-06-17T14:45:25Z</time>
      </trkpt>
      <trkpt lat="48.60059" lon="6.0454">
        <ele>381.3</ele>
        <time>2012-06-17T14:45:29Z</time>
      </trkpt>
      <trkpt lat="48.60054" lon="6.04545">
        <ele>379.86</ele>
        <time>2012-06-17T14:45:33Z</time>
      </trkpt>
      <trkpt lat="48.60052" lon="6.04546">
        <ele>382.26</ele>
        <time>2012-06-17T14:45:35Z</time>
      </trkpt>
      <trkpt lat="48.60049" lon="6.04548">
        <ele>373.61</ele>
        <time>2012-06-17T14:45:38Z</time>
      </trkpt>
      <trkpt lat="48.60048" lon="6.04549">
        <ele>381.78</ele>
        <time>2012-06-17T14:45:39Z</time>
      </trkpt>
      <trkpt lat="48.60045" lon="6.04551">
        <ele>381.78</ele>
        <time>2012-06-17T14:45:43Z</time>
      </trkpt>
      <trkpt lat="48.60041" lon="6.04558">
        <ele>380.82</ele>
        <time>2012-06-17T14:45:48Z</time>
      </trkpt>
      <trkpt lat="48.60039" lon="6.04565">
        <ele>383.22</ele>
        <time>2012-06-17T14:45:53Z</time>
      </trkpt>
      <trkpt lat="48.60038" lon="6.04569">
        <ele>379.86</ele>
        <time>2012-06-17T14:45:55Z</time>
      </trkpt>
      <trkpt lat="48.60031" lon="6.04582">
        <ele>383.22</ele>
        <time>2012-06-17T14:46:05Z</time>
      </trkpt>
      <trkpt lat="48.60026" lon="6.04586">
        <ele>381.78</ele>
        <time>2012-06-17T14:46:10Z</time>
      </trkpt>
      <trkpt lat="48.60024" lon="6.04589">
        <ele>383.7</ele>
        <time>2012-06-17T14:46:12Z</time>
      </trkpt>
      <trkpt lat="48.60017" lon="6.04599">
        <ele>384.18</ele>
        <time>2012-06-17T14:46:21Z</time>
      </trkpt>
      <trkpt lat="48.60011" lon="6.04604">
        <ele>381.3</ele>
        <time>2012-06-17T14:46:25Z</time>
      </trkpt>
      <trkpt lat="48.6001" lon="6.04604">
        <ele>381.78</ele>
        <time>2012-06-17T14:46:26Z</time>
      </trkpt>
      <trkpt lat="48.60009" lon="6.04605">
        <ele>383.7</ele>
        <time>2012-06-17T14:46:27Z</time>
      </trkpt>
      <trkpt lat="48.60002" lon="6.04613">
        <ele>379.38</ele>
        <time>2012-06-17T14:46:34Z</time>
      </trkpt>
      <trkpt lat="48.6" lon="6.04614">
        <ele>384.18</ele>
        <time>2012-06-17T14:46:35Z</time>
      </trkpt>
      <trkpt lat="48.59997" lon="6.04616">
        <ele>383.22</ele>
        <time>2012-06-17T14:46:40Z</time>
      </trkpt>
      <trkpt lat="48.59991" lon="6.04623">
        <ele>386.11</ele>
        <time>2012-06-17T14:46:54Z</time>
      </trkpt>
      <trkpt lat="48.59992" lon="6.04624">
        <ele>380.82</ele>
        <time>2012-06-17T14:46:58Z</time>
      </trkpt>
      <trkpt lat="48.59992" lon="6.04624">
        <ele>385.15</ele>
        <time>2012-06-17T14:46:59Z</time>
      </trkpt>
      <trkpt lat="48.59992" lon="6.04625">
        <ele>383.7</ele>
        <time>2012-06-17T14:47:02Z</time>
      </trkpt>
      <trkpt lat="48.59979" lon="6.04645">
        <ele>385.15</ele>
        <time>2012-06-17T14:47:16Z</time>
      </trkpt>
      <trkpt lat="48.59979" lon="6.04645">
        <ele>384.66</ele>
        <time>2012-06-17T14:47:17Z</time>
      </trkpt>
      <trkpt lat="48.59975" lon="6.04643">
        <ele>385.15</ele>
        <time>2012-06-17T14:47:21Z</time>
      </trkpt>
      <trkpt lat="48.5997" lon="6.04645">
        <ele>381.78</ele>
        <time>2012-06-17T14:47:31Z</time>
      </trkpt>
      <trkpt lat="48.59966" lon="6.04648">
        <ele>384.66</ele>
        <time>2012-06-17T14:47:33Z</time>
      </trkpt>
      <trkpt lat="48.5996" lon="6.04652">
        <ele>384.66</ele>
        <time>2012-06-17T14:47:42Z</time>
      </trkpt>
      <trkpt lat="48.59952" lon="6.04657">
        <ele>385.15</ele>
        <time>2012-06-17T14:47:49Z</time>
      </trkpt>
      <trkpt lat="48.59938" lon="6.04677">
        <ele>384.18</ele>
        <time>2012-06-17T14:48:06Z</time>
      </trkpt>
      <trkpt lat="48.59927" lon="6.04693">
        <ele>384.18</ele>
        <time>2012-06-17T14:48:18Z</time>
      </trkpt>
      <trkpt lat="48.59923" lon="6.04702">
        <ele>381.78</ele>
        <time>2012-06-17T14:48:24Z</time>
      </trkpt>
      <trkpt lat="48.59922" lon="6.04703">
        <ele>382.74</ele>
        <time>2012-06-17T14:48:25Z</time>
      </trkpt>
      <trkpt lat="48.59917" lon="6.04709">
        <ele>383.7</ele>
        <time>2012-06-17T14:48:37Z</time>
      </trkpt>
      <trkpt lat="48.59916" lon="6.04709">
        <ele>384.18</ele>
        <time>2012-06-17T14:48:51Z</time>
      </trkpt>
      <trkpt lat="48.59916" lon="6.04713">
        <ele>382.26</ele>
        <time>2012-06-17T14:48:54Z</time>
      </trkpt>
      <trkpt lat="48.59917" lon="6.04726">
        <ele>381.3</ele>
        <time>2012-06-17T14:49:06Z</time>
      </trkpt>
      <trkpt lat="48.59919" lon="6.0473">
        <ele>382.74</ele>
        <time>2012-06-17T14:49:12Z</time>
      </trkpt>
      <trkpt lat="48.59923" lon="6.04736">
        <ele>381.78</ele>
        <time>2012-06-17T14:49:17Z</time>
      </trkpt>
      <trkpt lat="48.59923" lon="6.04736">
        <ele>383.7</ele>
        <time>2012-06-17T14:49:21Z</time>
      </trkpt>
      <trkpt lat="48.59929" lon="6.04749">
        <ele>384.18</ele>
        <time>2012-06-17T14:49:32Z</time>
      </trkpt>
      <trkpt lat="48.59932" lon="6.04755">
        <ele>381.78</ele>
        <time>2012-06-17T14:49:38Z</time>
      </trkpt>
      <trkpt lat="48.5994" lon="6.04793">
        <ele>382.74</ele>
        <time>2012-06-17T14:49:46Z</time>
      </trkpt>
      <trkpt lat="48.59945" lon="6.04818">
        <ele>383.7</ele>
        <time>2012-06-17T14:49:50Z</time>
      </trkpt>
      <trkpt lat="48.59949" lon="6.04831">
        <ele>383.7</ele>
        <time>2012-06-17T14:49:57Z</time>
      </trkpt>
      <trkpt lat="48.59953" lon="6.04847">
        <ele>382.74</ele>
        <time>2012-06-17T14:50:04Z</time>
      </trkpt>
      <trkpt lat="48.59955" lon="6.04857">
        <ele>383.7</ele>
        <time>2012-06-17T14:50:09Z</time>
      </trkpt>
      <trkpt lat="48.59958" lon="6.04863">
        <ele>380.82</ele>
        <time>2012-06-17T14:50:13Z</time>
      </trkpt>
      <trkpt lat="48.59959" lon="6.04871">
        <ele>385.15</ele>
        <time>2012-06-17T14:50:18Z</time>
      </trkpt>
      <trkpt lat="48.59962" lon="6.04875">
        <ele>381.78</ele>
        <time>2012-06-17T14:50:21Z</time>
      </trkpt>
      <trkpt lat="48.59965" lon="6.04885">
        <ele>383.7</ele>
        <time>2012-06-17T14:50:34Z</time>
      </trkpt>
      <trkpt lat="48.59965" lon="6.04885">
        <ele>384.18</ele>
        <time>2012-06-17T14:51:05Z</time>
      </trkpt>
      <trkpt lat="48.59975" lon="6.04893">
        <ele>384.66</ele>
        <time>2012-06-17T14:51:18Z</time>
      </trkpt>
      <trkpt lat="48.5998" lon="6.04897">
        <ele>385.63</ele>
        <time>2012-06-17T14:51:25Z</time>
      </trkpt>
      <trkpt lat="48.59988" lon="6.04904">
        <ele>382.26</ele>
        <time>2012-06-17T14:51:32Z</time>
      </trkpt>
      <trkpt lat="48.59991" lon="6.04907">
        <ele>386.11</ele>
        <time>2012-06-17T14:51:34Z</time>
      </trkpt>
      <trkpt lat="48.59992" lon="6.04908">
        <ele>386.11</ele>
        <time>2012-06-17T14:51:35Z</time>
      </trkpt>
      <trkpt lat="48.59997" lon="6.04914">
        <ele>384.66</ele>
        <time>2012-06-17T14:51:39Z</time>
      </trkpt>
      <trkpt lat="48.6001" lon="6.04928">
        <ele>386.59</ele>
        <time>2012-06-17T14:51:52Z</time>
      </trkpt>
      <trkpt lat="48.60013" lon="6.04933">
        <ele>387.07</ele>
        <time>2012-06-17T14:51:56Z</time>
      </trkpt>
      <trkpt lat="48.60019" lon="6.0494">
        <ele>385.15</ele>
        <time>2012-06-17T14:52:03Z</time>
      </trkpt>
      <trkpt lat="48.60022" lon="6.04945">
        <ele>387.07</ele>
        <time>2012-06-17T14:52:06Z</time>
      </trkpt>
      <trkpt lat="48.60031" lon="6.04959">
        <ele>388.03</ele>
        <time>2012-06-17T14:52:16Z</time>
      </trkpt>
      <trkpt lat="48.60034" lon="6.04965">
        <ele>386.59</ele>
        <time>2012-06-17T14:52:21Z</time>
      </trkpt>
      <trkpt lat="48.60037" lon="6.04972">
        <ele>387.55</ele>
        <time>2012-06-17T14:52:25Z</time>
      </trkpt>
      <trkpt lat="48.60048" lon="6.04994">
        <ele>388.03</ele>
        <time>2012-06-17T14:52:42Z</time>
      </trkpt>
      <trkpt lat="48.60055" lon="6.05005">
        <ele>388.51</ele>
        <time>2012-06-17T14:52:49Z</time>
      </trkpt>
      <trkpt lat="48.60057" lon="6.05009">
        <ele>387.07</ele>
        <time>2012-06-17T14:52:52Z</time>
      </trkpt>
      <trkpt lat="48.60064" lon="6.0502">
        <ele>388.51</ele>
        <time>2012-06-17T14:53:03Z</time>
      </trkpt>
      <trkpt lat="48.60069" lon="6.05028">
        <ele>387.55</ele>
        <time>2012-06-17T14:53:10Z</time>
      </trkpt>
      <trkpt lat="48.60072" lon="6.05034">
        <ele>388.99</ele>
        <time>2012-06-17T14:53:13Z</time>
      </trkpt>
      <trkpt lat="48.60074" lon="6.05037">
        <ele>388.51</ele>
        <time>2012-06-17T14:53:15Z</time>
      </trkpt>
      <trkpt lat="48.60083" lon="6.05052">
        <ele>389.47</ele>
        <time>2012-06-17T14:53:26Z</time>
      </trkpt>
      <trkpt lat="48.60088" lon="6.05061">
        <ele>388.03</ele>
        <time>2012-06-17T14:53:31Z</time>
      </trkpt>
      <trkpt lat="48.6009" lon="6.05064">
        <ele>389.47</ele>
        <time>2012-06-17T14:53:33Z</time>
      </trkpt>
      <trkpt lat="48.6009" lon="6.05064">
        <ele>388.03</ele>
        <time>2012-06-17T14:53:35Z</time>
      </trkpt>
      <trkpt lat="48.6009" lon="6.05064">
        <ele>388.03</ele>
        <time>2012-06-17T14:53:36Z</time>
      </trkpt>
      <trkpt lat="48.60099" lon="6.05078">
        <ele>389.47</ele>
        <time>2012-06-17T14:53:50Z</time>
      </trkpt>
      <trkpt lat="48.60099" lon="6.05081">
        <ele>389.47</ele>
        <time>2012-06-17T14:53:53Z</time>
      </trkpt>
      <trkpt lat="48.60105" lon="6.05094">
        <ele>388.99</ele>
        <time>2012-06-17T14:54:04Z</time>
      </trkpt>
      <trkpt lat="48.60118" lon="6.05109">
        <ele>389.95</ele>
        <time>2012-06-17T14:54:17Z</time>
      </trkpt>
      <trkpt lat="48.60125" lon="6.05123">
        <ele>388.03</ele>
        <time>2012-06-17T14:54:28Z</time>
      </trkpt>
      <trkpt lat="48.60134" lon="6.05135">
        <ele>390.43</ele>
        <time>2012-06-17T14:54:39Z</time>
      </trkpt>
      <trkpt lat="48.60136" lon="6.05137">
        <ele>388.51</ele>
        <time>2012-06-17T14:54:41Z</time>
      </trkpt>
      <trkpt lat="48.60137" lon="6.05139">
        <ele>390.43</ele>
        <time>2012-06-17T14:54:43Z</time>
      </trkpt>
      <trkpt lat="48.60146" lon="6.05148">
        <ele>388.99</ele>
        <time>2012-06-17T14:54:54Z</time>
      </trkpt>
      <trkpt lat="48.60147" lon="6.05151">
        <ele>390.43</ele>
        <time>2012-06-17T14:54:56Z</time>
      </trkpt>
      <trkpt lat="48.60152" lon="6.05167">
        <ele>389.95</ele>
        <time>2012-06-17T14:55:05Z</time>
      </trkpt>
      <trkpt lat="48.60158" lon="6.05176">
        <ele>389.95</ele>
        <time>2012-06-17T14:55:13Z</time>
      </trkpt>
      <trkpt lat="48.60161" lon="6.05181">
        <ele>390.91</ele>
        <time>2012-06-17T14:55:16Z</time>
      </trkpt>
      <trkpt lat="48.60166" lon="6.05187">
        <ele>389.47</ele>
        <time>2012-06-17T14:55:22Z</time>
      </trkpt>
      <trkpt lat="48.60167" lon="6.0519">
        <ele>390.91</ele>
        <time>2012-06-17T14:55:24Z</time>
      </trkpt>
      <trkpt lat="48.60172" lon="6.05198">
        <ele>388.03</ele>
        <time>2012-06-17T14:55:31Z</time>
      </trkpt>
      <trkpt lat="48.60173" lon="6.052">
        <ele>390.91</ele>
        <time>2012-06-17T14:55:33Z</time>
      </trkpt>
      <trkpt lat="48.60178" lon="6.05203">
        <ele>389.47</ele>
        <time>2012-06-17T14:55:37Z</time>
      </trkpt>
      <trkpt lat="48.60181" lon="6.0521">
        <ele>390.91</ele>
        <time>2012-06-17T14:55:49Z</time>
      </trkpt>
      <trkpt lat="48.60181" lon="6.0521">
        <ele>390.91</ele>
        <time>2012-06-17T14:56:16Z</time>
      </trkpt>
      <trkpt lat="48.60181" lon="6.05209">
        <ele>390.91</ele>
        <time>2012-06-17T14:56:49Z</time>
      </trkpt>
      <trkpt lat="48.60181" lon="6.05212">
        <ele>390.43</ele>
        <time>2012-06-17T14:57:08Z</time>
      </trkpt>
      <trkpt lat="48.60186" lon="6.05218">
        <ele>389.47</ele>
        <time>2012-06-17T14:57:20Z</time>
      </trkpt>
      <trkpt lat="48.6019" lon="6.05222">
        <ele>390.91</ele>
        <time>2012-06-17T14:57:24Z</time>
      </trkpt>
      <trkpt lat="48.60192" lon="6.05232">
        <ele>389.47</ele>
        <time>2012-06-17T14:57:28Z</time>
      </trkpt>
      <trkpt lat="48.60196" lon="6.05243">
        <ele>390.91</ele>
        <time>2012-06-17T14:57:35Z</time>
      </trkpt>
      <trkpt lat="48.60198" lon="6.05247">
        <ele>391.87</ele>
        <time>2012-06-17T14:57:37Z</time>
      </trkpt>
      <trkpt lat="48.6021" lon="6.05267">
        <ele>391.39</ele>
        <time>2012-06-17T14:57:51Z</time>
      </trkpt>
      <trkpt lat="48.60225" lon="6.05287">
        <ele>390.43</ele>
        <time>2012-06-17T14:58:05Z</time>
      </trkpt>
      <trkpt lat="48.60226" lon="6.0529">
        <ele>391.87</ele>
        <time>2012-06-17T14:58:08Z</time>
      </trkpt>
      <trkpt lat="48.60239" lon="6.05309">
        <ele>389.95</ele>
        <time>2012-06-17T14:58:20Z</time>
      </trkpt>
      <trkpt lat="48.6024" lon="6.05312">
        <ele>391.39</ele>
        <time>2012-06-17T14:58:22Z</time>
      </trkpt>
      <trkpt lat="48.60241" lon="6.05314">
        <ele>390.91</ele>
        <time>2012-06-17T14:58:24Z</time>
      </trkpt>
      <trkpt lat="48.60243" lon="6.05317">
        <ele>389.95</ele>
        <time>2012-06-17T14:58:26Z</time>
      </trkpt>
      <trkpt lat="48.60258" lon="6.05334">
        <ele>390.43</ele>
        <time>2012-06-17T14:58:40Z</time>
      </trkpt>
      <trkpt lat="48.60259" lon="6.05334">
        <ele>390.43</ele>
        <time>2012-06-17T14:58:41Z</time>
      </trkpt>
      <trkpt lat="48.60259" lon="6.05335">
        <ele>389.95</ele>
        <time>2012-06-17T14:58:42Z</time>
      </trkpt>
      <trkpt lat="48.60262" lon="6.05341">
        <ele>392.84</ele>
        <time>2012-06-17T14:58:46Z</time>
      </trkpt>
      <trkpt lat="48.60271" lon="6.05349">
        <ele>390.91</ele>
        <time>2012-06-17T14:58:55Z</time>
      </trkpt>
      <trkpt lat="48.60273" lon="6.05354">
        <ele>390.43</ele>
        <time>2012-06-17T14:58:58Z</time>
      </trkpt>
      <trkpt lat="48.60285" lon="6.05367">
        <ele>390.43</ele>
        <time>2012-06-17T14:59:10Z</time>
      </trkpt>
      <trkpt lat="48.60287" lon="6.05368">
        <ele>391.87</ele>
        <time>2012-06-17T14:59:12Z</time>
      </trkpt>
      <trkpt lat="48.60289" lon="6.0537">
        <ele>390.43</ele>
        <time>2012-06-17T14:59:15Z</time>
      </trkpt>
      <trkpt lat="48.60292" lon="6.05373">
        <ele>390.91</ele>
        <time>2012-06-17T14:59:18Z</time>
      </trkpt>
      <trkpt lat="48.60298" lon="6.05383">
        <ele>391.87</ele>
        <time>2012-06-17T14:59:23Z</time>
      </trkpt>
      <trkpt lat="48.60313" lon="6.05401">
        <ele>390.43</ele>
        <time>2012-06-17T14:59:37Z</time>
      </trkpt>
      <trkpt lat="48.60313" lon="6.05403">
        <ele>389.95</ele>
        <time>2012-06-17T14:59:39Z</time>
      </trkpt>
      <trkpt lat="48.60327" lon="6.0542">
        <ele>389.95</ele>
        <time>2012-06-17T14:59:52Z</time>
      </trkpt>
      <trkpt lat="48.60332" lon="6.05425">
        <ele>389.95</ele>
        <time>2012-06-17T15:00:02Z</time>
      </trkpt>
      <trkpt lat="48.60335" lon="6.05429">
        <ele>388.03</ele>
        <time>2012-06-17T15:00:20Z</time>
      </trkpt>
      <trkpt lat="48.60352" lon="6.05443">
        <ele>388.51</ele>
        <time>2012-06-17T15:00:34Z</time>
      </trkpt>
      <trkpt lat="48.60369" lon="6.05459">
        <ele>389.47</ele>
        <time>2012-06-17T15:00:48Z</time>
      </trkpt>
      <trkpt lat="48.60381" lon="6.05472">
        <ele>388.99</ele>
        <time>2012-06-17T15:01:02Z</time>
      </trkpt>
      <trkpt lat="48.60382" lon="6.05475">
        <ele>388.03</ele>
        <time>2012-06-17T15:01:04Z</time>
      </trkpt>
      <trkpt lat="48.60387" lon="6.05483">
        <ele>388.99</ele>
        <time>2012-06-17T15:01:09Z</time>
      </trkpt>
      <trkpt lat="48.60402" lon="6.05494">
        <ele>387.07</ele>
        <time>2012-06-17T15:01:22Z</time>
      </trkpt>
      <trkpt lat="48.60405" lon="6.05499">
        <ele>387.55</ele>
        <time>2012-06-17T15:01:28Z</time>
      </trkpt>
      <trkpt lat="48.60409" lon="6.05503">
        <ele>386.11</ele>
        <time>2012-06-17T15:01:31Z</time>
      </trkpt>
      <trkpt lat="48.60432" lon="6.05521">
        <ele>387.07</ele>
        <time>2012-06-17T15:01:45Z</time>
      </trkpt>
      <trkpt lat="48.60439" lon="6.05526">
        <ele>386.11</ele>
        <time>2012-06-17T15:01:54Z</time>
      </trkpt>
      <trkpt lat="48.60449" lon="6.05536">
        <ele>387.07</ele>
        <time>2012-06-17T15:02:02Z</time>
      </trkpt>
      <trkpt lat="48.60458" lon="6.05549">
        <ele>385.15</ele>
        <time>2012-06-17T15:02:13Z</time>
      </trkpt>
      <trkpt lat="48.60465" lon="6.05558">
        <ele>385.15</ele>
        <time>2012-06-17T15:02:20Z</time>
      </trkpt>
      <trkpt lat="48.60478" lon="6.05572">
        <ele>384.66</ele>
        <time>2012-06-17T15:02:29Z</time>
      </trkpt>
      <trkpt lat="48.60483" lon="6.05581">
        <ele>379.86</ele>
        <time>2012-06-17T15:02:41Z</time>
      </trkpt>
      <trkpt lat="48.60484" lon="6.05581">
        <ele>383.22</ele>
        <time>2012-06-17T15:02:42Z</time>
      </trkpt>
      <trkpt lat="48.60484" lon="6.05582">
        <ele>385.15</ele>
        <time>2012-06-17T15:02:44Z</time>
      </trkpt>
      <trkpt lat="48.60486" lon="6.05577">
        <ele>385.15</ele>
        <time>2012-06-17T15:02:48Z</time>
      </trkpt>
      <trkpt lat="48.60488" lon="6.05571">
        <ele>385.63</ele>
        <time>2012-06-17T15:02:53Z</time>
      </trkpt>
      <trkpt lat="48.60489" lon="6.05586">
        <ele>385.15</ele>
        <time>2012-06-17T15:02:57Z</time>
      </trkpt>
      <trkpt lat="48.60496" lon="6.05608">
        <ele>385.63</ele>
        <time>2012-06-17T15:03:09Z</time>
      </trkpt>
      <trkpt lat="48.60506" lon="6.05622">
        <ele>384.18</ele>
        <time>2012-06-17T15:03:20Z</time>
      </trkpt>
      <trkpt lat="48.60507" lon="6.05627">
        <ele>384.18</ele>
        <time>2012-06-17T15:03:22Z</time>
      </trkpt>
      <trkpt lat="48.6051" lon="6.05661">
        <ele>384.18</ele>
        <time>2012-06-17T15:03:36Z</time>
      </trkpt>
      <trkpt lat="48.60514" lon="6.05676">
        <ele>382.74</ele>
        <time>2012-06-17T15:03:44Z</time>
      </trkpt>
      <trkpt lat="48.60514" lon="6.05678">
        <ele>385.15</ele>
        <time>2012-06-17T15:03:45Z</time>
      </trkpt>
      <trkpt lat="48.60517" lon="6.05694">
        <ele>384.66</ele>
        <time>2012-06-17T15:03:54Z</time>
      </trkpt>
      <trkpt lat="48.60515" lon="6.05721">
        <ele>383.7</ele>
        <time>2012-06-17T15:04:06Z</time>
      </trkpt>
      <trkpt lat="48.60513" lon="6.05726">
        <ele>382.26</ele>
        <time>2012-06-17T15:04:10Z</time>
      </trkpt>
      <trkpt lat="48.60512" lon="6.05728">
        <ele>383.7</ele>
        <time>2012-06-17T15:04:11Z</time>
      </trkpt>
      <trkpt lat="48.60511" lon="6.05731">
        <ele>384.66</ele>
        <time>2012-06-17T15:04:13Z</time>
      </trkpt>
      <trkpt lat="48.60501" lon="6.05744">
        <ele>383.7</ele>
        <time>2012-06-17T15:04:24Z</time>
      </trkpt>
      <trkpt lat="48.60495" lon="6.05754">
        <ele>385.15</ele>
        <time>2012-06-17T15:04:30Z</time>
      </trkpt>
      <trkpt lat="48.60491" lon="6.05758">
        <ele>383.22</ele>
        <time>2012-06-17T15:04:34Z</time>
      </trkpt>
      <trkpt lat="48.60489" lon="6.05761">
        <ele>383.7</ele>
        <time>2012-06-17T15:04:37Z</time>
      </trkpt>
      <trkpt lat="48.60484" lon="6.05766">
        <ele>383.7</ele>
        <time>2012-06-17T15:04:43Z</time>
      </trkpt>
      <trkpt lat="48.60481" lon="6.05768">
        <ele>386.11</ele>
        <time>2012-06-17T15:04:46Z</time>
      </trkpt>
      <trkpt lat="48.60478" lon="6.05771">
        <ele>383.7</ele>
        <time>2012-06-17T15:04:49Z</time>
      </trkpt>
      <trkpt lat="48.60476" lon="6.05772">
        <ele>383.7</ele>
        <time>2012-06-17T15:04:52Z</time>
      </trkpt>
      <trkpt lat="48.60474" lon="6.05775">
        <ele>385.15</ele>
        <time>2012-06-17T15:04:55Z</time>
      </trkpt>
      <trkpt lat="48.60467" lon="6.0578">
        <ele>383.7</ele>
        <time>2012-06-17T15:05:00Z</time>
      </trkpt>
      <trkpt lat="48.60457" lon="6.0579">
        <ele>385.63</ele>
        <time>2012-06-17T15:05:10Z</time>
      </trkpt>
      <trkpt lat="48.6045" lon="6.05799">
        <ele>382.26</ele>
        <time>2012-06-17T15:05:19Z</time>
      </trkpt>
      <trkpt lat="48.60446" lon="6.05803">
        <ele>384.66</ele>
        <time>2012-06-17T15:05:23Z</time>
      </trkpt>
      <trkpt lat="48.60444" lon="6.05805">
        <ele>384.66</ele>
        <time>2012-06-17T15:05:25Z</time>
      </trkpt>
      <trkpt lat="48.60436" lon="6.05814">
        <ele>384.18</ele>
        <time>2012-06-17T15:05:36Z</time>
      </trkpt>
      <trkpt lat="48.6043" lon="6.0582">
        <ele>383.7</ele>
        <time>2012-06-17T15:05:40Z</time>
      </trkpt>
      <trkpt lat="48.60423" lon="6.0583">
        <ele>381.78</ele>
        <time>2012-06-17T15:05:46Z</time>
      </trkpt>
      <trkpt lat="48.60422" lon="6.05833">
        <ele>384.66</ele>
        <time>2012-06-17T15:05:48Z</time>
      </trkpt>
      <trkpt lat="48.60413" lon="6.05842">
        <ele>383.22</ele>
        <time>2012-06-17T15:05:56Z</time>
      </trkpt>
      <trkpt lat="48.60406" lon="6.05849">
        <ele>384.18</ele>
        <time>2012-06-17T15:06:03Z</time>
      </trkpt>
      <trkpt lat="48.60401" lon="6.05856">
        <ele>385.15</ele>
        <time>2012-06-17T15:06:10Z</time>
      </trkpt>
      <trkpt lat="48.60396" lon="6.05861">
        <ele>386.11</ele>
        <time>2012-06-17T15:06:16Z</time>
      </trkpt>
      <trkpt lat="48.60391" lon="6.0587">
        <ele>384.66</ele>
        <time>2012-06-17T15:06:22Z</time>
      </trkpt>
      <trkpt lat="48.60388" lon="6.05872">
        <ele>385.63</ele>
        <time>2012-06-17T15:06:24Z</time>
      </trkpt>
      <trkpt lat="48.60384" lon="6.05876">
        <ele>386.59</ele>
        <time>2012-06-17T15:06:29Z</time>
      </trkpt>
      <trkpt lat="48.60381" lon="6.05877">
        <ele>387.55</ele>
        <time>2012-06-17T15:06:31Z</time>
      </trkpt>
      <trkpt lat="48.6038" lon="6.05879">
        <ele>383.7</ele>
        <time>2012-06-17T15:06:33Z</time>
      </trkpt>
      <trkpt lat="48.60377" lon="6.0588">
        <ele>387.07</ele>
        <time>2012-06-17T15:06:35Z</time>
      </trkpt>
      <trkpt lat="48.60375" lon="6.05882">
        <ele>383.7</ele>
        <time>2012-06-17T15:06:38Z</time>
      </trkpt>
      <trkpt lat="48.60375" lon="6.05883">
        <ele>385.63</ele>
        <time>2012-06-17T15:06:39Z</time>
      </trkpt>
      <trkpt lat="48.60373" lon="6.05886">
        <ele>388.51</ele>
        <time>2012-06-17T15:06:41Z</time>
      </trkpt>
      <trkpt lat="48.60371" lon="6.05887">
        <ele>388.51</ele>
        <time>2012-06-17T15:06:43Z</time>
      </trkpt>
      <trkpt lat="48.6037" lon="6.05888">
        <ele>385.15</ele>
        <time>2012-06-17T15:06:44Z</time>
      </trkpt>
      <trkpt lat="48.60362" lon="6.05897">
        <ele>387.07</ele>
        <time>2012-06-17T15:06:53Z</time>
      </trkpt>
      <trkpt lat="48.60361" lon="6.059">
        <ele>388.03</ele>
        <time>2012-06-17T15:06:55Z</time>
      </trkpt>
      <trkpt lat="48.60359" lon="6.05905">
        <ele>386.59</ele>
        <time>2012-06-17T15:06:59Z</time>
      </trkpt>
      <trkpt lat="48.60355" lon="6.05909">
        <ele>388.99</ele>
        <time>2012-06-17T15:07:02Z</time>
      </trkpt>
      <trkpt lat="48.60354" lon="6.05911">
        <ele>387.07</ele>
        <time>2012-06-17T15:07:04Z</time>
      </trkpt>
      <trkpt lat="48.60353" lon="6.05913">
        <ele>387.55</ele>
        <time>2012-06-17T15:07:06Z</time>
      </trkpt>
      <trkpt lat="48.6035" lon="6.05923">
        <ele>388.99</ele>
        <time>2012-06-17T15:07:12Z</time>
      </trkpt>
      <trkpt lat="48.60347" lon="6.05929">
        <ele>389.47</ele>
        <time>2012-06-17T15:07:24Z</time>
      </trkpt>
      <trkpt lat="48.60345" lon="6.05935">
        <ele>388.99</ele>
        <time>2012-06-17T15:07:32Z</time>
      </trkpt>
      <trkpt lat="48.6034" lon="6.05952">
        <ele>389.47</ele>
        <time>2012-06-17T15:07:46Z</time>
      </trkpt>
      <trkpt lat="48.6034" lon="6.05953">
        <ele>389.47</ele>
        <time>2012-06-17T15:07:52Z</time>
      </trkpt>
      <trkpt lat="48.60341" lon="6.05965">
        <ele>388.99</ele>
        <time>2012-06-17T15:07:57Z</time>
      </trkpt>
      <trkpt lat="48.60341" lon="6.05968">
        <ele>387.55</ele>
        <time>2012-06-17T15:07:59Z</time>
      </trkpt>
      <trkpt lat="48.60341" lon="6.05972">
        <ele>389.47</ele>
        <time>2012-06-17T15:08:01Z</time>
      </trkpt>
      <trkpt lat="48.6034" lon="6.05981">
        <ele>390.43</ele>
        <time>2012-06-17T15:08:05Z</time>
      </trkpt>
      <trkpt lat="48.60339" lon="6.05997">
        <ele>389.95</ele>
        <time>2012-06-17T15:08:16Z</time>
      </trkpt>
      <trkpt lat="48.60339" lon="6.06002">
        <ele>389.95</ele>
        <time>2012-06-17T15:08:18Z</time>
      </trkpt>
      <trkpt lat="48.60338" lon="6.06018">
        <ele>389.47</ele>
        <time>2012-06-17T15:08:29Z</time>
      </trkpt>
      <trkpt lat="48.60338" lon="6.06018">
        <ele>388.99</ele>
        <time>2012-06-17T15:08:56Z</time>
      </trkpt>
      <trkpt lat="48.60338" lon="6.06019">
        <ele>389.47</ele>
        <time>2012-06-17T15:09:23Z</time>
      </trkpt>
      <trkpt lat="48.60339" lon="6.06018">
        <ele>389.95</ele>
        <time>2012-06-17T15:09:52Z</time>
      </trkpt>
      <trkpt lat="48.60339" lon="6.06018">
        <ele>386.59</ele>
        <time>2012-06-17T15:10:15Z</time>
      </trkpt>
      <trkpt lat="48.6034" lon="6.0602">
        <ele>389.95</ele>
        <time>2012-06-17T15:10:18Z</time>
      </trkpt>
      <trkpt lat="48.6034" lon="6.06022">
        <ele>384.66</ele>
        <time>2012-06-17T15:10:27Z</time>
      </trkpt>
      <trkpt lat="48.6034" lon="6.06023">
        <ele>389.47</ele>
        <time>2012-06-17T15:10:28Z</time>
      </trkpt>
      <trkpt lat="48.6034" lon="6.06023">
        <ele>388.03</ele>
        <time>2012-06-17T15:10:29Z</time>
      </trkpt>
      <trkpt lat="48.6034" lon="6.06034">
        <ele>389.95</ele>
        <time>2012-06-17T15:10:34Z</time>
      </trkpt>
      <trkpt lat="48.6034" lon="6.0604">
        <ele>390.91</ele>
        <time>2012-06-17T15:10:37Z</time>
      </trkpt>
      <trkpt lat="48.60339" lon="6.06048">
        <ele>388.99</ele>
        <time>2012-06-17T15:10:40Z</time>
      </trkpt>
      <trkpt lat="48.60339" lon="6.0605">
        <ele>390.43</ele>
        <time>2012-06-17T15:10:41Z</time>
      </trkpt>
      <trkpt lat="48.60339" lon="6.06071">
        <ele>391.39</ele>
        <time>2012-06-17T15:10:52Z</time>
      </trkpt>
      <trkpt lat="48.60339" lon="6.06073">
        <ele>390.91</ele>
        <time>2012-06-17T15:10:53Z</time>
      </trkpt>
      <trkpt lat="48.6034" lon="6.06075">
        <ele>389.95</ele>
        <time>2012-06-17T15:10:55Z</time>
      </trkpt>
      <trkpt lat="48.6034" lon="6.06077">
        <ele>389.47</ele>
        <time>2012-06-17T15:10:57Z</time>
      </trkpt>
      <trkpt lat="48.6034" lon="6.06084">
        <ele>390.43</ele>
        <time>2012-06-17T15:11:00Z</time>
      </trkpt>
      <trkpt lat="48.6034" lon="6.06095">
        <ele>389.47</ele>
        <time>2012-06-17T15:11:05Z</time>
      </trkpt>
      <trkpt lat="48.60339" lon="6.061">
        <ele>390.43</ele>
        <time>2012-06-17T15:11:07Z</time>
      </trkpt>
      <trkpt lat="48.60339" lon="6.06109">
        <ele>391.39</ele>
        <time>2012-06-17T15:11:11Z</time>
      </trkpt>
      <trkpt lat="48.60339" lon="6.06134">
        <ele>389.47</ele>
        <time>2012-06-17T15:11:23Z</time>
      </trkpt>
      <trkpt lat="48.6034" lon="6.06146">
        <ele>389.47</ele>
        <time>2012-06-17T15:11:32Z</time>
      </trkpt>
      <trkpt lat="48.6034" lon="6.06156">
        <ele>390.91</ele>
        <time>2012-06-17T15:11:36Z</time>
      </trkpt>
      <trkpt lat="48.60338" lon="6.06185">
        <ele>391.39</ele>
        <time>2012-06-17T15:11:48Z</time>
      </trkpt>
      <trkpt lat="48.60339" lon="6.06197">
        <ele>390.91</ele>
        <time>2012-06-17T15:11:55Z</time>
      </trkpt>
      <trkpt lat="48.60343" lon="6.0621">
        <ele>390.91</ele>
        <time>2012-06-17T15:12:05Z</time>
      </trkpt>
      <trkpt lat="48.60351" lon="6.06225">
        <ele>390.43</ele>
        <time>2012-06-17T15:12:13Z</time>
      </trkpt>
      <trkpt lat="48.60361" lon="6.06239">
        <ele>388.99</ele>
        <time>2012-06-17T15:12:25Z</time>
      </trkpt>
      <trkpt lat="48.60367" lon="6.06243">
        <ele>389.95</ele>
        <time>2012-06-17T15:12:31Z</time>
      </trkpt>
      <trkpt lat="48.60371" lon="6.06247">
        <ele>388.51</ele>
        <time>2012-06-17T15:12:34Z</time>
      </trkpt>
      <trkpt lat="48.6038" lon="6.06259">
        <ele>389.95</ele>
        <time>2012-06-17T15:12:42Z</time>
      </trkpt>
      <trkpt lat="48.60398" lon="6.0628">
        <ele>388.51</ele>
        <time>2012-06-17T15:12:57Z</time>
      </trkpt>
      <trkpt lat="48.60404" lon="6.06291">
        <ele>387.07</ele>
        <time>2012-06-17T15:13:06Z</time>
      </trkpt>
      <trkpt lat="48.60408" lon="6.06295">
        <ele>388.51</ele>
        <time>2012-06-17T15:13:10Z</time>
      </trkpt>
      <trkpt lat="48.60411" lon="6.06298">
        <ele>387.55</ele>
        <time>2012-06-17T15:13:13Z</time>
      </trkpt>
      <trkpt lat="48.60416" lon="6.06302">
        <ele>388.03</ele>
        <time>2012-06-17T15:13:18Z</time>
      </trkpt>
      <trkpt lat="48.60426" lon="6.06313">
        <ele>387.55</ele>
        <time>2012-06-17T15:13:25Z</time>
      </trkpt>
      <trkpt lat="48.60431" lon="6.06322">
        <ele>386.11</ele>
        <time>2012-06-17T15:13:30Z</time>
      </trkpt>
      <trkpt lat="48.60435" lon="6.06326">
        <ele>386.59</ele>
        <time>2012-06-17T15:13:33Z</time>
      </trkpt>
      <trkpt lat="48.60442" lon="6.06331">
        <ele>385.63</ele>
        <time>2012-06-17T15:13:39Z</time>
      </trkpt>
      <trkpt lat="48.60448" lon="6.06338">
        <ele>385.15</ele>
        <time>2012-06-17T15:13:48Z</time>
      </trkpt>
      <trkpt lat="48.60452" lon="6.06344">
        <ele>385.15</ele>
        <time>2012-06-17T15:13:52Z</time>
      </trkpt>
      <trkpt lat="48.60468" lon="6.06366">
        <ele>385.63</ele>
        <time>2012-06-17T15:14:06Z</time>
      </trkpt>
      <trkpt lat="48.60473" lon="6.06375">
        <ele>384.18</ele>
        <time>2012-06-17T15:14:12Z</time>
      </trkpt>
      <trkpt lat="48.60481" lon="6.06389">
        <ele>384.66</ele>
        <time>2012-06-17T15:14:24Z</time>
      </trkpt>
      <trkpt lat="48.60485" lon="6.06397">
        <ele>383.7</ele>
        <time>2012-06-17T15:14:28Z</time>
      </trkpt>
      <trkpt lat="48.60487" lon="6.06401">
        <ele>384.66</ele>
        <time>2012-06-17T15:14:30Z</time>
      </trkpt>
      <trkpt lat="48.60492" lon="6.0641">
        <ele>383.7</ele>
        <time>2012-06-17T15:14:36Z</time>
      </trkpt>
      <trkpt lat="48.60494" lon="6.06415">
        <ele>383.7</ele>
        <time>2012-06-17T15:14:40Z</time>
      </trkpt>
      <trkpt lat="48.60498" lon="6.06424">
        <ele>384.66</ele>
        <time>2012-06-17T15:14:45Z</time>
      </trkpt>
      <trkpt lat="48.60499" lon="6.06426">
        <ele>385.15</ele>
        <time>2012-06-17T15:14:46Z</time>
      </trkpt>
      <trkpt lat="48.60502" lon="6.06436">
        <ele>383.7</ele>
        <time>2012-06-17T15:14:51Z</time>
      </trkpt>
      <trkpt lat="48.60503" lon="6.06439">
        <ele>385.15</ele>
        <time>2012-06-17T15:14:53Z</time>
      </trkpt>
      <trkpt lat="48.60507" lon="6.06445">
        <ele>383.22</ele>
        <time>2012-06-17T15:14:59Z</time>
      </trkpt>
      <trkpt lat="48.6051" lon="6.06452">
        <ele>384.66</ele>
        <time>2012-06-17T15:15:03Z</time>
      </trkpt>
      <trkpt lat="48.60518" lon="6.06471">
        <ele>384.66</ele>
        <time>2012-06-17T15:15:15Z</time>
      </trkpt>
      <trkpt lat="48.60519" lon="6.06473">
        <ele>384.66</ele>
        <time>2012-06-17T15:15:16Z</time>
      </trkpt>
      <trkpt lat="48.60525" lon="6.06489">
        <ele>384.66</ele>
        <time>2012-06-17T15:15:26Z</time>
      </trkpt>
      <trkpt lat="48.60524" lon="6.06492">
        <ele>386.11</ele>
        <time>2012-06-17T15:15:28Z</time>
      </trkpt>
      <trkpt lat="48.60522" lon="6.06494">
        <ele>383.7</ele>
        <time>2012-06-17T15:15:30Z</time>
      </trkpt>
      <trkpt lat="48.6052" lon="6.06499">
        <ele>384.66</ele>
        <time>2012-06-17T15:15:43Z</time>
      </trkpt>
      <trkpt lat="48.60522" lon="6.06496">
        <ele>382.26</ele>
        <time>2012-06-17T15:15:46Z</time>
      </trkpt>
      <trkpt lat="48.60525" lon="6.06487">
        <ele>383.7</ele>
        <time>2012-06-17T15:15:52Z</time>
      </trkpt>
      <trkpt lat="48.60535" lon="6.06474">
        <ele>381.78</ele>
        <time>2012-06-17T15:16:01Z</time>
      </trkpt>
      <trkpt lat="48.60536" lon="6.0647">
        <ele>382.26</ele>
        <time>2012-06-17T15:16:05Z</time>
      </trkpt>
      <trkpt lat="48.60538" lon="6.06467">
        <ele>382.26</ele>
        <time>2012-06-17T15:16:07Z</time>
      </trkpt>
      <trkpt lat="48.6054" lon="6.06464">
        <ele>380.82</ele>
        <time>2012-06-17T15:16:09Z</time>
      </trkpt>
      <trkpt lat="48.60554" lon="6.06454">
        <ele>379.86</ele>
        <time>2012-06-17T15:16:20Z</time>
      </trkpt>
      <trkpt lat="48.60558" lon="6.06453">
        <ele>380.82</ele>
        <time>2012-06-17T15:16:32Z</time>
      </trkpt>
      <trkpt lat="48.60561" lon="6.0645">
        <ele>379.86</ele>
        <time>2012-06-17T15:16:39Z</time>
      </trkpt>
      <trkpt lat="48.60569" lon="6.06446">
        <ele>378.9</ele>
        <time>2012-06-17T15:16:53Z</time>
      </trkpt>
      <trkpt lat="48.60586" lon="6.0643">
        <ele>377.94</ele>
        <time>2012-06-17T15:17:06Z</time>
      </trkpt>
      <trkpt lat="48.60595" lon="6.06423">
        <ele>376.49</ele>
        <time>2012-06-17T15:17:18Z</time>
      </trkpt>
      <trkpt lat="48.60601" lon="6.06419">
        <ele>376.49</ele>
        <time>2012-06-17T15:17:22Z</time>
      </trkpt>
      <trkpt lat="48.60605" lon="6.06418">
        <ele>376.01</ele>
        <time>2012-06-17T15:17:25Z</time>
      </trkpt>
      <trkpt lat="48.60609" lon="6.06415">
        <ele>376.49</ele>
        <time>2012-06-17T15:17:28Z</time>
      </trkpt>
      <trkpt lat="48.60614" lon="6.06413">
        <ele>375.05</ele>
        <time>2012-06-17T15:17:31Z</time>
      </trkpt>
      <trkpt lat="48.60618" lon="6.06409">
        <ele>374.09</ele>
        <time>2012-06-17T15:17:37Z</time>
      </trkpt>
      <trkpt lat="48.60621" lon="6.06406">
        <ele>373.61</ele>
        <time>2012-06-17T15:17:40Z</time>
      </trkpt>
      <trkpt lat="48.60623" lon="6.06403">
        <ele>374.57</ele>
        <time>2012-06-17T15:17:42Z</time>
      </trkpt>
      <trkpt lat="48.60637" lon="6.06397">
        <ele>373.61</ele>
        <time>2012-06-17T15:17:53Z</time>
      </trkpt>
      <trkpt lat="48.60643" lon="6.06392">
        <ele>372.65</ele>
        <time>2012-06-17T15:18:00Z</time>
      </trkpt>
      <trkpt lat="48.60658" lon="6.0638">
        <ele>371.21</ele>
        <time>2012-06-17T15:18:12Z</time>
      </trkpt>
      <trkpt lat="48.60666" lon="6.06373">
        <ele>370.73</ele>
        <time>2012-06-17T15:18:21Z</time>
      </trkpt>
      <trkpt lat="48.60679" lon="6.06361">
        <ele>371.21</ele>
        <time>2012-06-17T15:18:32Z</time>
      </trkpt>
      <trkpt lat="48.60683" lon="6.06359">
        <ele>369.76</ele>
        <time>2012-06-17T15:18:35Z</time>
      </trkpt>
      <trkpt lat="48.60688" lon="6.06356">
        <ele>368.8</ele>
        <time>2012-06-17T15:18:42Z</time>
      </trkpt>
      <trkpt lat="48.6069" lon="6.06353">
        <ele>369.28</ele>
        <time>2012-06-17T15:18:45Z</time>
      </trkpt>
      <trkpt lat="48.607" lon="6.06344">
        <ele>367.36</ele>
        <time>2012-06-17T15:18:55Z</time>
      </trkpt>
      <trkpt lat="48.60701" lon="6.06343">
        <ele>367.36</ele>
        <time>2012-06-17T15:18:57Z</time>
      </trkpt>
      <trkpt lat="48.60713" lon="6.06329">
        <ele>366.4</ele>
        <time>2012-06-17T15:19:09Z</time>
      </trkpt>
      <trkpt lat="48.60715" lon="6.06327">
        <ele>367.36</ele>
        <time>2012-06-17T15:19:13Z</time>
      </trkpt>
      <trkpt lat="48.60729" lon="6.06311">
        <ele>365.44</ele>
        <time>2012-06-17T15:19:25Z</time>
      </trkpt>
      <trkpt lat="48.60734" lon="6.06303">
        <ele>365.92</ele>
        <time>2012-06-17T15:19:32Z</time>
      </trkpt>
      <trkpt lat="48.60738" lon="6.063">
        <ele>366.88</ele>
        <time>2012-06-17T15:19:36Z</time>
      </trkpt>
      <trkpt lat="48.60751" lon="6.06287">
        <ele>364.96</ele>
        <time>2012-06-17T15:19:46Z</time>
      </trkpt>
      <trkpt lat="48.60752" lon="6.06284">
        <ele>365.92</ele>
        <time>2012-06-17T15:19:49Z</time>
      </trkpt>
      <trkpt lat="48.60758" lon="6.06275">
        <ele>365.92</ele>
        <time>2012-06-17T15:19:55Z</time>
      </trkpt>
      <trkpt lat="48.60759" lon="6.06271">
        <ele>365.92</ele>
        <time>2012-06-17T15:19:58Z</time>
      </trkpt>
      <trkpt lat="48.60768" lon="6.0626">
        <ele>364.48</ele>
        <time>2012-06-17T15:20:12Z</time>
      </trkpt>
      <trkpt lat="48.60772" lon="6.06252">
        <ele>362.55</ele>
        <time>2012-06-17T15:20:17Z</time>
      </trkpt>
      <trkpt lat="48.60781" lon="6.06233">
        <ele>362.55</ele>
        <time>2012-06-17T15:20:30Z</time>
      </trkpt>
      <trkpt lat="48.60785" lon="6.06229">
        <ele>363.52</ele>
        <time>2012-06-17T15:20:33Z</time>
      </trkpt>
      <trkpt lat="48.60793" lon="6.06221">
        <ele>362.55</ele>
        <time>2012-06-17T15:20:40Z</time>
      </trkpt>
      <trkpt lat="48.60799" lon="6.06209">
        <ele>362.55</ele>
        <time>2012-06-17T15:20:47Z</time>
      </trkpt>
      <trkpt lat="48.60807" lon="6.06191">
        <ele>363.04</ele>
        <time>2012-06-17T15:20:59Z</time>
      </trkpt>
      <trkpt lat="48.60811" lon="6.06183">
        <ele>362.55</ele>
        <time>2012-06-17T15:21:05Z</time>
      </trkpt>
      <trkpt lat="48.60817" lon="6.06175">
        <ele>362.55</ele>
        <time>2012-06-17T15:21:10Z</time>
      </trkpt>
      <trkpt lat="48.60825" lon="6.06166">
        <ele>361.59</ele>
        <time>2012-06-17T15:21:17Z</time>
      </trkpt>
      <trkpt lat="48.60835" lon="6.06158">
        <ele>361.59</ele>
        <time>2012-06-17T15:21:28Z</time>
      </trkpt>
      <trkpt lat="48.60853" lon="6.06145">
        <ele>359.67</ele>
        <time>2012-06-17T15:21:45Z</time>
      </trkpt>
      <trkpt lat="48.60857" lon="6.06141">
        <ele>361.11</ele>
        <time>2012-06-17T15:21:48Z</time>
      </trkpt>
      <trkpt lat="48.60872" lon="6.0613">
        <ele>358.71</ele>
        <time>2012-06-17T15:22:00Z</time>
      </trkpt>
      <trkpt lat="48.60887" lon="6.0612">
        <ele>359.19</ele>
        <time>2012-06-17T15:22:14Z</time>
      </trkpt>
      <trkpt lat="48.60887" lon="6.06118">
        <ele>358.23</ele>
        <time>2012-06-17T15:22:17Z</time>
      </trkpt>
      <trkpt lat="48.60901" lon="6.06105">
        <ele>357.27</ele>
        <time>2012-06-17T15:22:31Z</time>
      </trkpt>
      <trkpt lat="48.6091" lon="6.06095">
        <ele>357.75</ele>
        <time>2012-06-17T15:22:40Z</time>
      </trkpt>
      <trkpt lat="48.60924" lon="6.06088">
        <ele>355.34</ele>
        <time>2012-06-17T15:22:54Z</time>
      </trkpt>
      <trkpt lat="48.60934" lon="6.06085">
        <ele>352.46</ele>
        <time>2012-06-17T15:23:05Z</time>
      </trkpt>
      <trkpt lat="48.60936" lon="6.06084">
        <ele>352.46</ele>
        <time>2012-06-17T15:23:07Z</time>
      </trkpt>
      <trkpt lat="48.60951" lon="6.06083">
        <ele>350.06</ele>
        <time>2012-06-17T15:23:22Z</time>
      </trkpt>
      <trkpt lat="48.60968" lon="6.06085">
        <ele>348.13</ele>
        <time>2012-06-17T15:23:35Z</time>
      </trkpt>
      <trkpt lat="48.60983" lon="6.06085">
        <ele>346.21</ele>
        <time>2012-06-17T15:23:54Z</time>
      </trkpt>
      <trkpt lat="48.61002" lon="6.06084">
        <ele>343.33</ele>
        <time>2012-06-17T15:24:13Z</time>
      </trkpt>
      <trkpt lat="48.61017" lon="6.06086">
        <ele>341.41</ele>
        <time>2012-06-17T15:24:30Z</time>
      </trkpt>
      <trkpt lat="48.61026" lon="6.06088">
        <ele>339.96</ele>
        <time>2012-06-17T15:24:36Z</time>
      </trkpt>
      <trkpt lat="48.61031" lon="6.0609">
        <ele>339</ele>
        <time>2012-06-17T15:24:42Z</time>
      </trkpt>
      <trkpt lat="48.61051" lon="6.06089">
        <ele>336.12</ele>
        <time>2012-06-17T15:24:56Z</time>
      </trkpt>
      <trkpt lat="48.61054" lon="6.06086">
        <ele>337.56</ele>
        <time>2012-06-17T15:25:00Z</time>
      </trkpt>
      <trkpt lat="48.61059" lon="6.06077">
        <ele>338.52</ele>
        <time>2012-06-17T15:25:08Z</time>
      </trkpt>
      <trkpt lat="48.61061" lon="6.06074">
        <ele>336.6</ele>
        <time>2012-06-17T15:25:11Z</time>
      </trkpt>
      <trkpt lat="48.61063" lon="6.06071">
        <ele>338.52</ele>
        <time>2012-06-17T15:25:13Z</time>
      </trkpt>
      <trkpt lat="48.61069" lon="6.06064">
        <ele>339</ele>
        <time>2012-06-17T15:25:20Z</time>
      </trkpt>
      <trkpt lat="48.61082" lon="6.06057">
        <ele>337.56</ele>
        <time>2012-06-17T15:25:33Z</time>
      </trkpt>
      <trkpt lat="48.61096" lon="6.06051">
        <ele>338.04</ele>
        <time>2012-06-17T15:25:44Z</time>
      </trkpt>
      <trkpt lat="48.611" lon="6.06048">
        <ele>339.96</ele>
        <time>2012-06-17T15:25:47Z</time>
      </trkpt>
      <trkpt lat="48.61104" lon="6.06045">
        <ele>338.52</ele>
        <time>2012-06-17T15:25:51Z</time>
      </trkpt>
      <trkpt lat="48.61112" lon="6.06042">
        <ele>339.48</ele>
        <time>2012-06-17T15:25:57Z</time>
      </trkpt>
      <trkpt lat="48.6112" lon="6.0604">
        <ele>338.04</ele>
        <time>2012-06-17T15:26:03Z</time>
      </trkpt>
      <trkpt lat="48.61121" lon="6.06039">
        <ele>339</ele>
        <time>2012-06-17T15:26:05Z</time>
      </trkpt>
      <trkpt lat="48.61134" lon="6.06026">
        <ele>339</ele>
        <time>2012-06-17T15:26:17Z</time>
      </trkpt>
      <trkpt lat="48.61138" lon="6.0602">
        <ele>339</ele>
        <time>2012-06-17T15:26:21Z</time>
      </trkpt>
      <trkpt lat="48.61148" lon="6.06004">
        <ele>338.52</ele>
        <time>2012-06-17T15:26:36Z</time>
      </trkpt>
      <trkpt lat="48.61149" lon="6.06002">
        <ele>339</ele>
        <time>2012-06-17T15:26:38Z</time>
      </trkpt>
      <trkpt lat="48.61157" lon="6.05985">
        <ele>339.48</ele>
        <time>2012-06-17T15:26:48Z</time>
      </trkpt>
      <trkpt lat="48.61165" lon="6.05972">
        <ele>339</ele>
        <time>2012-06-17T15:26:58Z</time>
      </trkpt>
      <trkpt lat="48.61167" lon="6.05965">
        <ele>339</ele>
        <time>2012-06-17T15:27:04Z</time>
      </trkpt>
      <trkpt lat="48.61169" lon="6.05961">
        <ele>339</ele>
        <time>2012-06-17T15:27:06Z</time>
      </trkpt>
      <trkpt lat="48.61185" lon="6.0594">
        <ele>338.52</ele>
        <time>2012-06-17T15:27:21Z</time>
      </trkpt>
      <trkpt lat="48.61189" lon="6.05935">
        <ele>337.08</ele>
        <time>2012-06-17T15:27:25Z</time>
      </trkpt>
      <trkpt lat="48.61207" lon="6.05921">
        <ele>337.56</ele>
        <time>2012-06-17T15:27:40Z</time>
      </trkpt>
      <trkpt lat="48.61207" lon="6.0592">
        <ele>337.56</ele>
        <time>2012-06-17T15:27:41Z</time>
      </trkpt>
      <trkpt lat="48.6121" lon="6.05917">
        <ele>339</ele>
        <time>2012-06-17T15:27:44Z</time>
      </trkpt>
      <trkpt lat="48.61212" lon="6.05915">
        <ele>337.56</ele>
        <time>2012-06-17T15:27:46Z</time>
      </trkpt>
      <trkpt lat="48.61214" lon="6.05913">
        <ele>339.48</ele>
        <time>2012-06-17T15:27:48Z</time>
      </trkpt>
      <trkpt lat="48.61222" lon="6.05907">
        <ele>337.56</ele>
        <time>2012-06-17T15:27:54Z</time>
      </trkpt>
      <trkpt lat="48.61226" lon="6.05906">
        <ele>339.48</ele>
        <time>2012-06-17T15:27:57Z</time>
      </trkpt>
      <trkpt lat="48.61232" lon="6.05905">
        <ele>339</ele>
        <time>2012-06-17T15:28:01Z</time>
      </trkpt>
      <trkpt lat="48.61246" lon="6.0589">
        <ele>337.08</ele>
        <time>2012-06-17T15:28:15Z</time>
      </trkpt>
      <trkpt lat="48.61256" lon="6.05881">
        <ele>337.56</ele>
        <time>2012-06-17T15:28:23Z</time>
      </trkpt>
      <trkpt lat="48.61272" lon="6.05868">
        <ele>337.56</ele>
        <time>2012-06-17T15:28:37Z</time>
      </trkpt>
      <trkpt lat="48.61277" lon="6.05862">
        <ele>337.08</ele>
        <time>2012-06-17T15:28:43Z</time>
      </trkpt>
      <trkpt lat="48.6128" lon="6.05859">
        <ele>338.52</ele>
        <time>2012-06-17T15:28:46Z</time>
      </trkpt>
      <trkpt lat="48.61292" lon="6.05846">
        <ele>337.08</ele>
        <time>2012-06-17T15:28:57Z</time>
      </trkpt>
      <trkpt lat="48.61303" lon="6.05839">
        <ele>338.04</ele>
        <time>2012-06-17T15:29:07Z</time>
      </trkpt>
      <trkpt lat="48.61307" lon="6.05835">
        <ele>337.56</ele>
        <time>2012-06-17T15:29:10Z</time>
      </trkpt>
      <trkpt lat="48.61322" lon="6.0582">
        <ele>337.56</ele>
        <time>2012-06-17T15:29:25Z</time>
      </trkpt>
      <trkpt lat="48.61332" lon="6.0581">
        <ele>336.12</ele>
        <time>2012-06-17T15:29:33Z</time>
      </trkpt>
      <trkpt lat="48.61347" lon="6.0579">
        <ele>336.12</ele>
        <time>2012-06-17T15:29:50Z</time>
      </trkpt>
      <trkpt lat="48.61348" lon="6.05789">
        <ele>336.6</ele>
        <time>2012-06-17T15:29:51Z</time>
      </trkpt>
      <trkpt lat="48.61355" lon="6.05779">
        <ele>336.12</ele>
        <time>2012-06-17T15:29:58Z</time>
      </trkpt>
      <trkpt lat="48.61359" lon="6.05771">
        <ele>335.64</ele>
        <time>2012-06-17T15:30:05Z</time>
      </trkpt>
      <trkpt lat="48.61365" lon="6.05762">
        <ele>336.6</ele>
        <time>2012-06-17T15:30:11Z</time>
      </trkpt>
      <trkpt lat="48.61376" lon="6.05748">
        <ele>335.16</ele>
        <time>2012-06-17T15:30:23Z</time>
      </trkpt>
      <trkpt lat="48.61378" lon="6.05745">
        <ele>334.68</ele>
        <time>2012-06-17T15:30:25Z</time>
      </trkpt>
      <trkpt lat="48.6138" lon="6.05741">
        <ele>336.6</ele>
        <time>2012-06-17T15:30:27Z</time>
      </trkpt>
      <trkpt lat="48.61391" lon="6.05723">
        <ele>335.64</ele>
        <time>2012-06-17T15:30:39Z</time>
      </trkpt>
      <trkpt lat="48.61397" lon="6.05708">
        <ele>335.64</ele>
        <time>2012-06-17T15:30:49Z</time>
      </trkpt>
      <trkpt lat="48.614" lon="6.05701">
        <ele>336.6</ele>
        <time>2012-06-17T15:30:53Z</time>
      </trkpt>
      <trkpt lat="48.61409" lon="6.0569">
        <ele>335.16</ele>
        <time>2012-06-17T15:31:01Z</time>
      </trkpt>
      <trkpt lat="48.6141" lon="6.05687">
        <ele>336.12</ele>
        <time>2012-06-17T15:31:05Z</time>
      </trkpt>
      <trkpt lat="48.61413" lon="6.05679">
        <ele>334.2</ele>
        <time>2012-06-17T15:31:09Z</time>
      </trkpt>
      <trkpt lat="48.61426" lon="6.05658">
        <ele>336.12</ele>
        <time>2012-06-17T15:31:21Z</time>
      </trkpt>
      <trkpt lat="48.61433" lon="6.05644">
        <ele>334.68</ele>
        <time>2012-06-17T15:31:32Z</time>
      </trkpt>
      <trkpt lat="48.6144" lon="6.05636">
        <ele>336.12</ele>
        <time>2012-06-17T15:31:37Z</time>
      </trkpt>
      <trkpt lat="48.61447" lon="6.05627">
        <ele>335.16</ele>
        <time>2012-06-17T15:31:43Z</time>
      </trkpt>
      <trkpt lat="48.6145" lon="6.05621">
        <ele>335.16</ele>
        <time>2012-06-17T15:31:48Z</time>
      </trkpt>
      <trkpt lat="48.61454" lon="6.05615">
        <ele>335.64</ele>
        <time>2012-06-17T15:31:53Z</time>
      </trkpt>
      <trkpt lat="48.61456" lon="6.05612">
        <ele>335.16</ele>
        <time>2012-06-17T15:31:56Z</time>
      </trkpt>
      <trkpt lat="48.61467" lon="6.05599">
        <ele>334.68</ele>
        <time>2012-06-17T15:32:05Z</time>
      </trkpt>
      <trkpt lat="48.61472" lon="6.05592">
        <ele>334.2</ele>
        <time>2012-06-17T15:32:12Z</time>
      </trkpt>
      <trkpt lat="48.61475" lon="6.05585">
        <ele>336.12</ele>
        <time>2012-06-17T15:32:16Z</time>
      </trkpt>
      <trkpt lat="48.61481" lon="6.05575">
        <ele>334.68</ele>
        <time>2012-06-17T15:32:22Z</time>
      </trkpt>
      <trkpt lat="48.61483" lon="6.05566">
        <ele>334.2</ele>
        <time>2012-06-17T15:32:28Z</time>
      </trkpt>
      <trkpt lat="48.61484" lon="6.05563">
        <ele>336.12</ele>
        <time>2012-06-17T15:32:30Z</time>
      </trkpt>
      <trkpt lat="48.61488" lon="6.05556">
        <ele>335.64</ele>
        <time>2012-06-17T15:32:35Z</time>
      </trkpt>
      <trkpt lat="48.61491" lon="6.0555">
        <ele>336.12</ele>
        <time>2012-06-17T15:32:38Z</time>
      </trkpt>
      <trkpt lat="48.61496" lon="6.05543">
        <ele>335.16</ele>
        <time>2012-06-17T15:32:43Z</time>
      </trkpt>
      <trkpt lat="48.61498" lon="6.05537">
        <ele>334.68</ele>
        <time>2012-06-17T15:32:49Z</time>
      </trkpt>
      <trkpt lat="48.61503" lon="6.05525">
        <ele>335.16</ele>
        <time>2012-06-17T15:32:56Z</time>
      </trkpt>
      <trkpt lat="48.61513" lon="6.05507">
        <ele>334.2</ele>
        <time>2012-06-17T15:33:09Z</time>
      </trkpt>
      <trkpt lat="48.61519" lon="6.05494">
        <ele>335.16</ele>
        <time>2012-06-17T15:33:17Z</time>
      </trkpt>
      <trkpt lat="48.6152" lon="6.05489">
        <ele>335.64</ele>
        <time>2012-06-17T15:33:20Z</time>
      </trkpt>
      <trkpt lat="48.61524" lon="6.05484">
        <ele>335.64</ele>
        <time>2012-06-17T15:33:23Z</time>
      </trkpt>
      <trkpt lat="48.61531" lon="6.05471">
        <ele>334.2</ele>
        <time>2012-06-17T15:33:32Z</time>
      </trkpt>
      <trkpt lat="48.61532" lon="6.05467">
        <ele>334.2</ele>
        <time>2012-06-17T15:33:36Z</time>
      </trkpt>
      <trkpt lat="48.61534" lon="6.05464">
        <ele>334.2</ele>
        <time>2012-06-17T15:33:38Z</time>
      </trkpt>
      <trkpt lat="48.61538" lon="6.0546">
        <ele>335.64</ele>
        <time>2012-06-17T15:33:41Z</time>
      </trkpt>
      <trkpt lat="48.6154" lon="6.0545">
        <ele>335.64</ele>
        <time>2012-06-17T15:33:45Z</time>
      </trkpt>
      <trkpt lat="48.6155" lon="6.05429">
        <ele>333.71</ele>
        <time>2012-06-17T15:34:01Z</time>
      </trkpt>
      <trkpt lat="48.6155" lon="6.05427">
        <ele>333.71</ele>
        <time>2012-06-17T15:34:02Z</time>
      </trkpt>
      <trkpt lat="48.61555" lon="6.05413">
        <ele>334.2</ele>
        <time>2012-06-17T15:34:09Z</time>
      </trkpt>
      <trkpt lat="48.61556" lon="6.05405">
        <ele>334.2</ele>
        <time>2012-06-17T15:34:12Z</time>
      </trkpt>
      <trkpt lat="48.61559" lon="6.05401">
        <ele>333.71</ele>
        <time>2012-06-17T15:34:14Z</time>
      </trkpt>
      <trkpt lat="48.61567" lon="6.0538">
        <ele>332.27</ele>
        <time>2012-06-17T15:34:29Z</time>
      </trkpt>
      <trkpt lat="48.61576" lon="6.05348">
        <ele>333.71</ele>
        <time>2012-06-17T15:34:43Z</time>
      </trkpt>
      <trkpt lat="48.61577" lon="6.05334">
        <ele>333.71</ele>
        <time>2012-06-17T15:34:52Z</time>
      </trkpt>
      <trkpt lat="48.61583" lon="6.05319">
        <ele>334.2</ele>
        <time>2012-06-17T15:34:59Z</time>
      </trkpt>
      <trkpt lat="48.61584" lon="6.05313">
        <ele>332.27</ele>
        <time>2012-06-17T15:35:02Z</time>
      </trkpt>
      <trkpt lat="48.61587" lon="6.053">
        <ele>333.71</ele>
        <time>2012-06-17T15:35:16Z</time>
      </trkpt>
      <trkpt lat="48.61589" lon="6.05289">
        <ele>332.75</ele>
        <time>2012-06-17T15:35:20Z</time>
      </trkpt>
      <trkpt lat="48.61591" lon="6.05285">
        <ele>333.71</ele>
        <time>2012-06-17T15:35:22Z</time>
      </trkpt>
      <trkpt lat="48.61593" lon="6.05277">
        <ele>333.71</ele>
        <time>2012-06-17T15:35:25Z</time>
      </trkpt>
      <trkpt lat="48.61595" lon="6.05271">
        <ele>334.2</ele>
        <time>2012-06-17T15:35:28Z</time>
      </trkpt>
      <trkpt lat="48.61607" lon="6.05243">
        <ele>332.75</ele>
        <time>2012-06-17T15:35:40Z</time>
      </trkpt>
      <trkpt lat="48.61612" lon="6.05234">
        <ele>332.27</ele>
        <time>2012-06-17T15:35:47Z</time>
      </trkpt>
      <trkpt lat="48.61613" lon="6.0523">
        <ele>331.31</ele>
        <time>2012-06-17T15:35:55Z</time>
      </trkpt>
      <trkpt lat="48.61616" lon="6.0522">
        <ele>331.79</ele>
        <time>2012-06-17T15:36:01Z</time>
      </trkpt>
      <trkpt lat="48.61619" lon="6.05211">
        <ele>331.79</ele>
        <time>2012-06-17T15:36:04Z</time>
      </trkpt>
      <trkpt lat="48.61627" lon="6.05188">
        <ele>330.35</ele>
        <time>2012-06-17T15:36:17Z</time>
      </trkpt>
      <trkpt lat="48.61631" lon="6.05169">
        <ele>329.39</ele>
        <time>2012-06-17T15:36:28Z</time>
      </trkpt>
      <trkpt lat="48.61629" lon="6.05147">
        <ele>329.39</ele>
        <time>2012-06-17T15:36:40Z</time>
      </trkpt>
      <trkpt lat="48.61629" lon="6.05143">
        <ele>329.87</ele>
        <time>2012-06-17T15:36:42Z</time>
      </trkpt>
      <trkpt lat="48.61624" lon="6.05126">
        <ele>327.95</ele>
        <time>2012-06-17T15:36:51Z</time>
      </trkpt>
      <trkpt lat="48.61623" lon="6.05124">
        <ele>327.95</ele>
        <time>2012-06-17T15:36:52Z</time>
      </trkpt>
      <trkpt lat="48.61622" lon="6.05119">
        <ele>329.39</ele>
        <time>2012-06-17T15:36:55Z</time>
      </trkpt>
      <trkpt lat="48.61619" lon="6.05109">
        <ele>329.39</ele>
        <time>2012-06-17T15:37:00Z</time>
      </trkpt>
      <trkpt lat="48.61612" lon="6.05091">
        <ele>328.91</ele>
        <time>2012-06-17T15:37:12Z</time>
      </trkpt>
      <trkpt lat="48.61606" lon="6.05083">
        <ele>329.39</ele>
        <time>2012-06-17T15:37:17Z</time>
      </trkpt>
      <trkpt lat="48.61603" lon="6.05079">
        <ele>328.43</ele>
        <time>2012-06-17T15:37:32Z</time>
      </trkpt>
      <trkpt lat="48.61595" lon="6.05068">
        <ele>329.39</ele>
        <time>2012-06-17T15:37:43Z</time>
      </trkpt>
      <trkpt lat="48.61582" lon="6.05046">
        <ele>330.35</ele>
        <time>2012-06-17T15:37:56Z</time>
      </trkpt>
      <trkpt lat="48.61572" lon="6.05037">
        <ele>327.95</ele>
        <time>2012-06-17T15:38:06Z</time>
      </trkpt>
      <trkpt lat="48.61566" lon="6.05032">
        <ele>330.83</ele>
        <time>2012-06-17T15:38:12Z</time>
      </trkpt>
      <trkpt lat="48.61563" lon="6.05027">
        <ele>329.39</ele>
        <time>2012-06-17T15:38:15Z</time>
      </trkpt>
      <trkpt lat="48.61557" lon="6.05018">
        <ele>331.79</ele>
        <time>2012-06-17T15:38:19Z</time>
      </trkpt>
      <trkpt lat="48.61554" lon="6.05017">
        <ele>329.39</ele>
        <time>2012-06-17T15:38:22Z</time>
      </trkpt>
      <trkpt lat="48.61551" lon="6.05013">
        <ele>331.31</ele>
        <time>2012-06-17T15:38:25Z</time>
      </trkpt>
      <trkpt lat="48.6155" lon="6.05006">
        <ele>328.91</ele>
        <time>2012-06-17T15:38:28Z</time>
      </trkpt>
      <trkpt lat="48.61547" lon="6.05001">
        <ele>331.79</ele>
        <time>2012-06-17T15:38:31Z</time>
      </trkpt>
      <trkpt lat="48.61547" lon="6.04999">
        <ele>331.31</ele>
        <time>2012-06-17T15:38:32Z</time>
      </trkpt>
      <trkpt lat="48.61539" lon="6.04986">
        <ele>330.35</ele>
        <time>2012-06-17T15:38:43Z</time>
      </trkpt>
      <trkpt lat="48.61537" lon="6.0498">
        <ele>331.79</ele>
        <time>2012-06-17T15:38:45Z</time>
      </trkpt>
      <trkpt lat="48.61533" lon="6.04972">
        <ele>332.27</ele>
        <time>2012-06-17T15:38:49Z</time>
      </trkpt>
      <trkpt lat="48.61524" lon="6.04954">
        <ele>332.27</ele>
        <time>2012-06-17T15:39:01Z</time>
      </trkpt>
      <trkpt lat="48.61523" lon="6.04949">
        <ele>331.31</ele>
        <time>2012-06-17T15:39:04Z</time>
      </trkpt>
      <trkpt lat="48.61515" lon="6.04935">
        <ele>330.35</ele>
        <time>2012-06-17T15:39:15Z</time>
      </trkpt>
      <trkpt lat="48.61508" lon="6.04926">
        <ele>331.31</ele>
        <time>2012-06-17T15:39:22Z</time>
      </trkpt>
      <trkpt lat="48.61502" lon="6.04911">
        <ele>330.83</ele>
        <time>2012-06-17T15:39:31Z</time>
      </trkpt>
      <trkpt lat="48.61492" lon="6.04897">
        <ele>330.35</ele>
        <time>2012-06-17T15:39:43Z</time>
      </trkpt>
      <trkpt lat="48.61487" lon="6.04885">
        <ele>331.31</ele>
        <time>2012-06-17T15:39:48Z</time>
      </trkpt>
      <trkpt lat="48.61481" lon="6.04863">
        <ele>329.87</ele>
        <time>2012-06-17T15:39:59Z</time>
      </trkpt>
      <trkpt lat="48.61478" lon="6.04856">
        <ele>330.35</ele>
        <time>2012-06-17T15:40:06Z</time>
      </trkpt>
      <trkpt lat="48.61468" lon="6.04835">
        <ele>329.39</ele>
        <time>2012-06-17T15:40:18Z</time>
      </trkpt>
      <trkpt lat="48.61465" lon="6.04831">
        <ele>329.87</ele>
        <time>2012-06-17T15:40:21Z</time>
      </trkpt>
      <trkpt lat="48.61458" lon="6.04823">
        <ele>330.83</ele>
        <time>2012-06-17T15:40:34Z</time>
      </trkpt>
      <trkpt lat="48.61458" lon="6.04823">
        <ele>328.43</ele>
        <time>2012-06-17T15:40:46Z</time>
      </trkpt>
      <trkpt lat="48.61447" lon="6.0481">
        <ele>330.35</ele>
        <time>2012-06-17T15:40:58Z</time>
      </trkpt>
      <trkpt lat="48.61446" lon="6.04807">
        <ele>331.31</ele>
        <time>2012-06-17T15:41:00Z</time>
      </trkpt>
      <trkpt lat="48.61445" lon="6.04803">
        <ele>331.79</ele>
        <time>2012-06-17T15:41:02Z</time>
      </trkpt>
      <trkpt lat="48.6144" lon="6.04799">
        <ele>330.35</ele>
        <time>2012-06-17T15:41:06Z</time>
      </trkpt>
      <trkpt lat="48.61433" lon="6.04784">
        <ele>331.79</ele>
        <time>2012-06-17T15:41:18Z</time>
      </trkpt>
      <trkpt lat="48.61431" lon="6.04775">
        <ele>330.83</ele>
        <time>2012-06-17T15:41:22Z</time>
      </trkpt>
      <trkpt lat="48.61428" lon="6.04772">
        <ele>331.79</ele>
        <time>2012-06-17T15:41:24Z</time>
      </trkpt>
      <trkpt lat="48.61419" lon="6.04762">
        <ele>331.79</ele>
        <time>2012-06-17T15:41:30Z</time>
      </trkpt>
      <trkpt lat="48.61408" lon="6.0475">
        <ele>331.31</ele>
        <time>2012-06-17T15:41:43Z</time>
      </trkpt>
      <trkpt lat="48.61398" lon="6.04733">
        <ele>331.79</ele>
        <time>2012-06-17T15:41:56Z</time>
      </trkpt>
      <trkpt lat="48.61392" lon="6.04727">
        <ele>331.79</ele>
        <time>2012-06-17T15:42:01Z</time>
      </trkpt>
      <trkpt lat="48.61379" lon="6.04717">
        <ele>331.79</ele>
        <time>2012-06-17T15:42:12Z</time>
      </trkpt>
      <trkpt lat="48.61372" lon="6.04704">
        <ele>331.79</ele>
        <time>2012-06-17T15:42:20Z</time>
      </trkpt>
      <trkpt lat="48.6137" lon="6.047">
        <ele>332.27</ele>
        <time>2012-06-17T15:42:23Z</time>
      </trkpt>
      <trkpt lat="48.61365" lon="6.04691">
        <ele>331.79</ele>
        <time>2012-06-17T15:42:28Z</time>
      </trkpt>
      <trkpt lat="48.61361" lon="6.04684">
        <ele>331.79</ele>
        <time>2012-06-17T15:42:33Z</time>
      </trkpt>
      <trkpt lat="48.61349" lon="6.04666">
        <ele>331.79</ele>
        <time>2012-06-17T15:42:48Z</time>
      </trkpt>
      <trkpt lat="48.61337" lon="6.04653">
        <ele>329.39</ele>
        <time>2012-06-17T15:43:00Z</time>
      </trkpt>
      <trkpt lat="48.61334" lon="6.04652">
        <ele>331.31</ele>
        <time>2012-06-17T15:43:02Z</time>
      </trkpt>
      <trkpt lat="48.61333" lon="6.04652">
        <ele>330.35</ele>
        <time>2012-06-17T15:43:03Z</time>
      </trkpt>
      <trkpt lat="48.61322" lon="6.04653">
        <ele>331.79</ele>
        <time>2012-06-17T15:43:10Z</time>
      </trkpt>
      <trkpt lat="48.61307" lon="6.04651">
        <ele>330.83</ele>
        <time>2012-06-17T15:43:20Z</time>
      </trkpt>
      <trkpt lat="48.61296" lon="6.04651">
        <ele>329.87</ele>
        <time>2012-06-17T15:43:29Z</time>
      </trkpt>
      <trkpt lat="48.61289" lon="6.04649">
        <ele>331.79</ele>
        <time>2012-06-17T15:43:33Z</time>
      </trkpt>
      <trkpt lat="48.61282" lon="6.04644">
        <ele>331.79</ele>
        <time>2012-06-17T15:43:40Z</time>
      </trkpt>
      <trkpt lat="48.61278" lon="6.0464">
        <ele>332.75</ele>
        <time>2012-06-17T15:43:43Z</time>
      </trkpt>
      <trkpt lat="48.61274" lon="6.04639">
        <ele>332.75</ele>
        <time>2012-06-17T15:43:45Z</time>
      </trkpt>
      <trkpt lat="48.6127" lon="6.04637">
        <ele>331.79</ele>
        <time>2012-06-17T15:43:47Z</time>
      </trkpt>
      <trkpt lat="48.61266" lon="6.04635">
        <ele>330.35</ele>
        <time>2012-06-17T15:43:49Z</time>
      </trkpt>
      <trkpt lat="48.61264" lon="6.04634">
        <ele>332.75</ele>
        <time>2012-06-17T15:43:51Z</time>
      </trkpt>
      <trkpt lat="48.61259" lon="6.04634">
        <ele>330.35</ele>
        <time>2012-06-17T15:43:55Z</time>
      </trkpt>
      <trkpt lat="48.61251" lon="6.04623">
        <ele>332.27</ele>
        <time>2012-06-17T15:44:05Z</time>
      </trkpt>
      <trkpt lat="48.61249" lon="6.04619">
        <ele>332.27</ele>
        <time>2012-06-17T15:44:07Z</time>
      </trkpt>
      <trkpt lat="48.61244" lon="6.04619">
        <ele>332.75</ele>
        <time>2012-06-17T15:44:10Z</time>
      </trkpt>
      <trkpt lat="48.61241" lon="6.04618">
        <ele>330.35</ele>
        <time>2012-06-17T15:44:13Z</time>
      </trkpt>
      <trkpt lat="48.61227" lon="6.04612">
        <ele>332.75</ele>
        <time>2012-06-17T15:44:28Z</time>
      </trkpt>
      <trkpt lat="48.61227" lon="6.04611">
        <ele>330.35</ele>
        <time>2012-06-17T15:44:29Z</time>
      </trkpt>
      <trkpt lat="48.61219" lon="6.04611">
        <ele>330.35</ele>
        <time>2012-06-17T15:44:35Z</time>
      </trkpt>
      <trkpt lat="48.61212" lon="6.04614">
        <ele>331.79</ele>
        <time>2012-06-17T15:44:41Z</time>
      </trkpt>
      <trkpt lat="48.61209" lon="6.04613">
        <ele>329.87</ele>
        <time>2012-06-17T15:44:44Z</time>
      </trkpt>
      <trkpt lat="48.61204" lon="6.04614">
        <ele>331.79</ele>
        <time>2012-06-17T15:44:49Z</time>
      </trkpt>
      <trkpt lat="48.61199" lon="6.04614">
        <ele>331.31</ele>
        <time>2012-06-17T15:44:52Z</time>
      </trkpt>
      <trkpt lat="48.61196" lon="6.04613">
        <ele>331.79</ele>
        <time>2012-06-17T15:44:54Z</time>
      </trkpt>
      <trkpt lat="48.61188" lon="6.04614">
        <ele>331.79</ele>
        <time>2012-06-17T15:44:58Z</time>
      </trkpt>
      <trkpt lat="48.61171" lon="6.04613">
        <ele>330.83</ele>
        <time>2012-06-17T15:45:14Z</time>
      </trkpt>
      <trkpt lat="48.61162" lon="6.04609">
        <ele>331.31</ele>
        <time>2012-06-17T15:45:22Z</time>
      </trkpt>
      <trkpt lat="48.61149" lon="6.04605">
        <ele>329.87</ele>
        <time>2012-06-17T15:45:28Z</time>
      </trkpt>
      <trkpt lat="48.61145" lon="6.04601">
        <ele>331.31</ele>
        <time>2012-06-17T15:45:32Z</time>
      </trkpt>
      <trkpt lat="48.61142" lon="6.04598">
        <ele>329.39</ele>
        <time>2012-06-17T15:45:35Z</time>
      </trkpt>
      <trkpt lat="48.61139" lon="6.04578">
        <ele>327.95</ele>
        <time>2012-06-17T15:45:45Z</time>
      </trkpt>
      <trkpt lat="48.61142" lon="6.04561">
        <ele>330.83</ele>
        <time>2012-06-17T15:45:52Z</time>
      </trkpt>
      <trkpt lat="48.61145" lon="6.04554">
        <ele>330.35</ele>
        <time>2012-06-17T15:45:56Z</time>
      </trkpt>
      <trkpt lat="48.6115" lon="6.04545">
        <ele>328.43</ele>
        <time>2012-06-17T15:46:02Z</time>
      </trkpt>
      <trkpt lat="48.61152" lon="6.04542">
        <ele>329.87</ele>
        <time>2012-06-17T15:46:05Z</time>
      </trkpt>
      <trkpt lat="48.61155" lon="6.04539">
        <ele>330.35</ele>
        <time>2012-06-17T15:46:09Z</time>
      </trkpt>
      <trkpt lat="48.61166" lon="6.04527">
        <ele>329.39</ele>
        <time>2012-06-17T15:46:18Z</time>
      </trkpt>
      <trkpt lat="48.61167" lon="6.04525">
        <ele>327.95</ele>
        <time>2012-06-17T15:46:20Z</time>
      </trkpt>
      <trkpt lat="48.6117" lon="6.04523">
        <ele>328.43</ele>
        <time>2012-06-17T15:46:25Z</time>
      </trkpt>
      <trkpt lat="48.61175" lon="6.04519">
        <ele>330.35</ele>
        <time>2012-06-17T15:46:29Z</time>
      </trkpt>
      <trkpt lat="48.61178" lon="6.04517">
        <ele>330.35</ele>
        <time>2012-06-17T15:46:32Z</time>
      </trkpt>
      <trkpt lat="48.61191" lon="6.045">
        <ele>328.91</ele>
        <time>2012-06-17T15:46:43Z</time>
      </trkpt>
      <trkpt lat="48.61195" lon="6.04497">
        <ele>329.87</ele>
        <time>2012-06-17T15:46:47Z</time>
      </trkpt>
      <trkpt lat="48.61197" lon="6.04495">
        <ele>328.43</ele>
        <time>2012-06-17T15:46:50Z</time>
      </trkpt>
      <trkpt lat="48.61202" lon="6.04489">
        <ele>329.87</ele>
        <time>2012-06-17T15:46:54Z</time>
      </trkpt>
      <trkpt lat="48.61218" lon="6.04473">
        <ele>329.39</ele>
        <time>2012-06-17T15:47:06Z</time>
      </trkpt>
      <trkpt lat="48.6122" lon="6.04469">
        <ele>329.87</ele>
        <time>2012-06-17T15:47:09Z</time>
      </trkpt>
      <trkpt lat="48.61224" lon="6.04463">
        <ele>328.91</ele>
        <time>2012-06-17T15:47:13Z</time>
      </trkpt>
      <trkpt lat="48.61235" lon="6.04448">
        <ele>329.87</ele>
        <time>2012-06-17T15:47:23Z</time>
      </trkpt>
      <trkpt lat="48.61238" lon="6.04445">
        <ele>330.83</ele>
        <time>2012-06-17T15:47:25Z</time>
      </trkpt>
      <trkpt lat="48.61246" lon="6.04434">
        <ele>329.39</ele>
        <time>2012-06-17T15:47:37Z</time>
      </trkpt>
      <trkpt lat="48.61266" lon="6.04421">
        <ele>330.35</ele>
        <time>2012-06-17T15:47:52Z</time>
      </trkpt>
      <trkpt lat="48.61274" lon="6.04415">
        <ele>329.39</ele>
        <time>2012-06-17T15:47:57Z</time>
      </trkpt>
      <trkpt lat="48.61279" lon="6.04411">
        <ele>328.91</ele>
        <time>2012-06-17T15:48:04Z</time>
      </trkpt>
      <trkpt lat="48.61283" lon="6.04409">
        <ele>328.91</ele>
        <time>2012-06-17T15:48:08Z</time>
      </trkpt>
      <trkpt lat="48.61296" lon="6.04391">
        <ele>327.95</ele>
        <time>2012-06-17T15:48:23Z</time>
      </trkpt>
      <trkpt lat="48.61298" lon="6.04389">
        <ele>327.47</ele>
        <time>2012-06-17T15:48:27Z</time>
      </trkpt>
      <trkpt lat="48.61305" lon="6.04373">
        <ele>327.47</ele>
        <time>2012-06-17T15:48:39Z</time>
      </trkpt>
      <trkpt lat="48.61306" lon="6.04372">
        <ele>326.02</ele>
        <time>2012-06-17T15:48:40Z</time>
      </trkpt>
      <trkpt lat="48.61308" lon="6.04364">
        <ele>326.5</ele>
        <time>2012-06-17T15:48:49Z</time>
      </trkpt>
      <trkpt lat="48.61308" lon="6.04333">
        <ele>324.1</ele>
        <time>2012-06-17T15:49:02Z</time>
      </trkpt>
      <trkpt lat="48.61308" lon="6.04317">
        <ele>324.1</ele>
        <time>2012-06-17T15:49:13Z</time>
      </trkpt>
      <trkpt lat="48.61308" lon="6.04313">
        <ele>324.1</ele>
        <time>2012-06-17T15:49:16Z</time>
      </trkpt>
      <trkpt lat="48.61306" lon="6.04296">
        <ele>322.18</ele>
        <time>2012-06-17T15:49:24Z</time>
      </trkpt>
      <trkpt lat="48.61303" lon="6.04271">
        <ele>321.7</ele>
        <time>2012-06-17T15:49:39Z</time>
      </trkpt>
      <trkpt lat="48.61303" lon="6.04263">
        <ele>321.22</ele>
        <time>2012-06-17T15:49:42Z</time>
      </trkpt>
      <trkpt lat="48.61303" lon="6.04238">
        <ele>318.81</ele>
        <time>2012-06-17T15:49:56Z</time>
      </trkpt>
      <trkpt lat="48.613" lon="6.0423">
        <ele>319.3</ele>
        <time>2012-06-17T15:50:02Z</time>
      </trkpt>
      <trkpt lat="48.61293" lon="6.04202">
        <ele>317.85</ele>
        <time>2012-06-17T15:50:15Z</time>
      </trkpt>
      <trkpt lat="48.61295" lon="6.04192">
        <ele>316.89</ele>
        <time>2012-06-17T15:50:23Z</time>
      </trkpt>
      <trkpt lat="48.61296" lon="6.04185">
        <ele>318.33</ele>
        <time>2012-06-17T15:50:28Z</time>
      </trkpt>
      <trkpt lat="48.61295" lon="6.0418">
        <ele>318.33</ele>
        <time>2012-06-17T15:50:30Z</time>
      </trkpt>
      <trkpt lat="48.613" lon="6.04163">
        <ele>316.89</ele>
        <time>2012-06-17T15:50:44Z</time>
      </trkpt>
      <trkpt lat="48.61303" lon="6.04146">
        <ele>314.97</ele>
        <time>2012-06-17T15:50:55Z</time>
      </trkpt>
      <trkpt lat="48.61302" lon="6.04124">
        <ele>314.49</ele>
        <time>2012-06-17T15:51:06Z</time>
      </trkpt>
      <trkpt lat="48.61304" lon="6.04116">
        <ele>313.05</ele>
        <time>2012-06-17T15:51:10Z</time>
      </trkpt>
      <trkpt lat="48.61304" lon="6.04109">
        <ele>314.49</ele>
        <time>2012-06-17T15:51:13Z</time>
      </trkpt>
      <trkpt lat="48.61308" lon="6.04099">
        <ele>313.05</ele>
        <time>2012-06-17T15:51:18Z</time>
      </trkpt>
      <trkpt lat="48.61308" lon="6.04072">
        <ele>313.05</ele>
        <time>2012-06-17T15:51:30Z</time>
      </trkpt>
      <trkpt lat="48.61309" lon="6.04058">
        <ele>312.09</ele>
        <time>2012-06-17T15:51:38Z</time>
      </trkpt>
      <trkpt lat="48.6131" lon="6.04049">
        <ele>311.12</ele>
        <time>2012-06-17T15:51:42Z</time>
      </trkpt>
      <trkpt lat="48.61311" lon="6.04022">
        <ele>310.64</ele>
        <time>2012-06-17T15:51:56Z</time>
      </trkpt>
      <trkpt lat="48.61312" lon="6.04021">
        <ele>310.16</ele>
        <time>2012-06-17T15:52:01Z</time>
      </trkpt>
      <trkpt lat="48.61313" lon="6.04014">
        <ele>309.68</ele>
        <time>2012-06-17T15:52:04Z</time>
      </trkpt>
      <trkpt lat="48.61314" lon="6.04009">
        <ele>311.12</ele>
        <time>2012-06-17T15:52:06Z</time>
      </trkpt>
      <trkpt lat="48.61317" lon="6.03983">
        <ele>311.12</ele>
        <time>2012-06-17T15:52:18Z</time>
      </trkpt>
      <trkpt lat="48.61318" lon="6.03969">
        <ele>310.16</ele>
        <time>2012-06-17T15:52:25Z</time>
      </trkpt>
      <trkpt lat="48.61319" lon="6.03964">
        <ele>309.2</ele>
        <time>2012-06-17T15:52:27Z</time>
      </trkpt>
      <trkpt lat="48.61321" lon="6.03956">
        <ele>310.16</ele>
        <time>2012-06-17T15:52:31Z</time>
      </trkpt>
      <trkpt lat="48.61322" lon="6.03943">
        <ele>309.68</ele>
        <time>2012-06-17T15:52:37Z</time>
      </trkpt>
      <trkpt lat="48.61325" lon="6.03922">
        <ele>310.64</ele>
        <time>2012-06-17T15:52:50Z</time>
      </trkpt>
      <trkpt lat="48.61326" lon="6.03916">
        <ele>308.72</ele>
        <time>2012-06-17T15:52:53Z</time>
      </trkpt>
      <trkpt lat="48.61327" lon="6.03912">
        <ele>309.2</ele>
        <time>2012-06-17T15:52:55Z</time>
      </trkpt>
      <trkpt lat="48.61336" lon="6.03883">
        <ele>309.2</ele>
        <time>2012-06-17T15:53:12Z</time>
      </trkpt>
      <trkpt lat="48.61338" lon="6.03876">
        <ele>310.16</ele>
        <time>2012-06-17T15:53:15Z</time>
      </trkpt>
      <trkpt lat="48.61339" lon="6.03863">
        <ele>309.68</ele>
        <time>2012-06-17T15:53:24Z</time>
      </trkpt>
      <trkpt lat="48.6134" lon="6.03857">
        <ele>309.68</ele>
        <time>2012-06-17T15:53:26Z</time>
      </trkpt>
      <trkpt lat="48.61342" lon="6.03854">
        <ele>308.24</ele>
        <time>2012-06-17T15:53:28Z</time>
      </trkpt>
      <trkpt lat="48.61347" lon="6.0382">
        <ele>309.68</ele>
        <time>2012-06-17T15:53:42Z</time>
      </trkpt>
      <trkpt lat="48.61348" lon="6.03799">
        <ele>308.72</ele>
        <time>2012-06-17T15:53:54Z</time>
      </trkpt>
      <trkpt lat="48.61349" lon="6.03777">
        <ele>310.16</ele>
        <time>2012-06-17T15:54:04Z</time>
      </trkpt>
      <trkpt lat="48.6135" lon="6.03761">
        <ele>309.68</ele>
        <time>2012-06-17T15:54:14Z</time>
      </trkpt>
      <trkpt lat="48.61357" lon="6.03733">
        <ele>308.72</ele>
        <time>2012-06-17T15:54:28Z</time>
      </trkpt>
      <trkpt lat="48.61357" lon="6.03729">
        <ele>309.68</ele>
        <time>2012-06-17T15:54:32Z</time>
      </trkpt>
      <trkpt lat="48.6136" lon="6.03723">
        <ele>309.2</ele>
        <time>2012-06-17T15:54:37Z</time>
      </trkpt>
      <trkpt lat="48.61362" lon="6.03718">
        <ele>309.68</ele>
        <time>2012-06-17T15:54:39Z</time>
      </trkpt>
      <trkpt lat="48.61366" lon="6.03704">
        <ele>308.24</ele>
        <time>2012-06-17T15:54:44Z</time>
      </trkpt>
      <trkpt lat="48.61379" lon="6.03684">
        <ele>309.68</ele>
        <time>2012-06-17T15:54:56Z</time>
      </trkpt>
      <trkpt lat="48.61386" lon="6.03675">
        <ele>308.72</ele>
        <time>2012-06-17T15:55:02Z</time>
      </trkpt>
      <trkpt lat="48.61396" lon="6.03658">
        <ele>309.68</ele>
        <time>2012-06-17T15:55:17Z</time>
      </trkpt>
      <trkpt lat="48.61412" lon="6.03638">
        <ele>308.72</ele>
        <time>2012-06-17T15:55:29Z</time>
      </trkpt>
      <trkpt lat="48.61417" lon="6.03625">
        <ele>308.24</ele>
        <time>2012-06-17T15:55:38Z</time>
      </trkpt>
      <trkpt lat="48.61422" lon="6.03615">
        <ele>308.72</ele>
        <time>2012-06-17T15:55:46Z</time>
      </trkpt>
      <trkpt lat="48.61447" lon="6.03599">
        <ele>308.72</ele>
        <time>2012-06-17T15:56:03Z</time>
      </trkpt>
      <trkpt lat="48.61452" lon="6.03597">
        <ele>309.2</ele>
        <time>2012-06-17T15:56:09Z</time>
      </trkpt>
      <trkpt lat="48.61455" lon="6.03593">
        <ele>308.72</ele>
        <time>2012-06-17T15:56:22Z</time>
      </trkpt>
      <trkpt lat="48.61469" lon="6.03591">
        <ele>308.24</ele>
        <time>2012-06-17T15:56:39Z</time>
      </trkpt>
      <trkpt lat="48.61476" lon="6.03589">
        <ele>307.76</ele>
        <time>2012-06-17T15:56:54Z</time>
      </trkpt>
      <trkpt lat="48.61475" lon="6.03589">
        <ele>307.76</ele>
        <time>2012-06-17T15:57:27Z</time>
      </trkpt>
      <trkpt lat="48.61475" lon="6.03589">
        <ele>308.72</ele>
        <time>2012-06-17T15:57:50Z</time>
      </trkpt>
      <trkpt lat="48.61476" lon="6.03589">
        <ele>308.72</ele>
        <time>2012-06-17T15:58:14Z</time>
      </trkpt>
      <trkpt lat="48.61484" lon="6.03588">
        <ele>307.28</ele>
        <time>2012-06-17T15:58:35Z</time>
      </trkpt>
      <trkpt lat="48.61486" lon="6.03588">
        <ele>307.28</ele>
        <time>2012-06-17T15:58:36Z</time>
      </trkpt>
      <trkpt lat="48.61506" lon="6.03581">
        <ele>307.76</ele>
        <time>2012-06-17T15:58:49Z</time>
      </trkpt>
      <trkpt lat="48.61529" lon="6.03572">
        <ele>306.32</ele>
        <time>2012-06-17T15:59:06Z</time>
      </trkpt>
      <trkpt lat="48.61534" lon="6.0357">
        <ele>305.36</ele>
        <time>2012-06-17T15:59:11Z</time>
      </trkpt>
      <trkpt lat="48.61558" lon="6.03554">
        <ele>303.91</ele>
        <time>2012-06-17T15:59:29Z</time>
      </trkpt>
      <trkpt lat="48.61573" lon="6.03543">
        <ele>301.99</ele>
        <time>2012-06-17T15:59:42Z</time>
      </trkpt>
      <trkpt lat="48.61593" lon="6.03526">
        <ele>300.07</ele>
        <time>2012-06-17T15:59:59Z</time>
      </trkpt>
      <trkpt lat="48.61594" lon="6.03525">
        <ele>299.59</ele>
        <time>2012-06-17T16:00:00Z</time>
      </trkpt>
      <trkpt lat="48.61615" lon="6.03527">
        <ele>297.67</ele>
        <time>2012-06-17T16:00:15Z</time>
      </trkpt>
      <trkpt lat="48.61634" lon="6.03529">
        <ele>296.22</ele>
        <time>2012-06-17T16:00:31Z</time>
      </trkpt>
      <trkpt lat="48.61651" lon="6.03528">
        <ele>294.78</ele>
        <time>2012-06-17T16:00:42Z</time>
      </trkpt>
      <trkpt lat="48.61671" lon="6.03528">
        <ele>294.78</ele>
        <time>2012-06-17T16:00:59Z</time>
      </trkpt>
      <trkpt lat="48.61686" lon="6.03523">
        <ele>293.82</ele>
        <time>2012-06-17T16:01:07Z</time>
      </trkpt>
      <trkpt lat="48.61699" lon="6.03515">
        <ele>292.86</ele>
        <time>2012-06-17T16:01:16Z</time>
      </trkpt>
      <trkpt lat="48.61707" lon="6.03502">
        <ele>292.38</ele>
        <time>2012-06-17T16:01:25Z</time>
      </trkpt>
      <trkpt lat="48.61709" lon="6.03482">
        <ele>291.42</ele>
        <time>2012-06-17T16:01:38Z</time>
      </trkpt>
      <trkpt lat="48.61706" lon="6.03458">
        <ele>290.94</ele>
        <time>2012-06-17T16:01:54Z</time>
      </trkpt>
      <trkpt lat="48.61701" lon="6.03427">
        <ele>290.94</ele>
        <time>2012-06-17T16:02:10Z</time>
      </trkpt>
      <trkpt lat="48.61702" lon="6.03424">
        <ele>291.42</ele>
        <time>2012-06-17T16:02:11Z</time>
      </trkpt>
      <trkpt lat="48.61701" lon="6.03411">
        <ele>292.86</ele>
        <time>2012-06-17T16:02:16Z</time>
      </trkpt>
      <trkpt lat="48.61699" lon="6.03389">
        <ele>291.9</ele>
        <time>2012-06-17T16:02:27Z</time>
      </trkpt>
      <trkpt lat="48.61703" lon="6.03383">
        <ele>292.38</ele>
        <time>2012-06-17T16:02:31Z</time>
      </trkpt>
      <trkpt lat="48.61706" lon="6.03378">
        <ele>290.46</ele>
        <time>2012-06-17T16:02:46Z</time>
      </trkpt>
      <trkpt lat="48.61706" lon="6.03378">
        <ele>292.86</ele>
        <time>2012-06-17T16:02:51Z</time>
      </trkpt>
      <trkpt lat="48.61706" lon="6.03378">
        <ele>289.01</ele>
        <time>2012-06-17T16:02:52Z</time>
      </trkpt>
      <trkpt lat="48.61706" lon="6.03378">
        <ele>291.9</ele>
        <time>2012-06-17T16:02:53Z</time>
      </trkpt>
      <trkpt lat="48.61706" lon="6.03377">
        <ele>293.82</ele>
        <time>2012-06-17T16:02:55Z</time>
      </trkpt>
      <trkpt lat="48.61704" lon="6.03366">
        <ele>292.86</ele>
        <time>2012-06-17T16:03:11Z</time>
      </trkpt>
      <trkpt lat="48.61701" lon="6.0337">
        <ele>292.86</ele>
        <time>2012-06-17T16:03:43Z</time>
      </trkpt>
      <trkpt lat="48.61705" lon="6.03375">
        <ele>291.9</ele>
        <time>2012-06-17T16:03:59Z</time>
      </trkpt>
      <trkpt lat="48.61703" lon="6.0338">
        <ele>292.38</ele>
        <time>2012-06-17T16:04:13Z</time>
      </trkpt>
      <trkpt lat="48.61703" lon="6.03379">
        <ele>292.38</ele>
        <time>2012-06-17T16:04:40Z</time>
      </trkpt>
      <trkpt lat="48.61703" lon="6.0338">
        <ele>289.97</ele>
        <time>2012-06-17T16:05:03Z</time>
      </trkpt>
      <trkpt lat="48.61709" lon="6.03394">
        <ele>289.01</ele>
        <time>2012-06-17T16:05:18Z</time>
      </trkpt>
      <trkpt lat="48.61731" lon="6.03424">
        <ele>286.13</ele>
        <time>2012-06-17T16:05:35Z</time>
      </trkpt>
      <trkpt lat="48.61741" lon="6.0344">
        <ele>285.65</ele>
        <time>2012-06-17T16:05:48Z</time>
      </trkpt>
      <trkpt lat="48.61744" lon="6.03446">
        <ele>285.17</ele>
        <time>2012-06-17T16:05:53Z</time>
      </trkpt>
      <trkpt lat="48.61751" lon="6.03457">
        <ele>284.21</ele>
        <time>2012-06-17T16:06:08Z</time>
      </trkpt>
      <trkpt lat="48.61752" lon="6.03458">
        <ele>283.73</ele>
        <time>2012-06-17T16:06:38Z</time>
      </trkpt>
      <trkpt lat="48.61754" lon="6.03462">
        <ele>280.84</ele>
        <time>2012-06-17T16:06:44Z</time>
      </trkpt>
      <trkpt lat="48.61758" lon="6.03468">
        <ele>281.32</ele>
        <time>2012-06-17T16:06:51Z</time>
      </trkpt>
      <trkpt lat="48.61761" lon="6.03473">
        <ele>279.4</ele>
        <time>2012-06-17T16:06:57Z</time>
      </trkpt>
      <trkpt lat="48.61771" lon="6.03487">
        <ele>278.44</ele>
        <time>2012-06-17T16:07:13Z</time>
      </trkpt>
      <trkpt lat="48.61782" lon="6.035">
        <ele>274.59</ele>
        <time>2012-06-17T16:07:25Z</time>
      </trkpt>
      <trkpt lat="48.61793" lon="6.03514">
        <ele>274.59</ele>
        <time>2012-06-17T16:07:42Z</time>
      </trkpt>
      <trkpt lat="48.61795" lon="6.03516">
        <ele>272.67</ele>
        <time>2012-06-17T16:07:46Z</time>
      </trkpt>
      <trkpt lat="48.61802" lon="6.03522">
        <ele>271.23</ele>
        <time>2012-06-17T16:07:55Z</time>
      </trkpt>
      <trkpt lat="48.61809" lon="6.03528">
        <ele>267.86</ele>
        <time>2012-06-17T16:08:08Z</time>
      </trkpt>
      <trkpt lat="48.6183" lon="6.03563">
        <ele>267.86</ele>
        <time>2012-06-17T16:08:27Z</time>
      </trkpt>
      <trkpt lat="48.61834" lon="6.03573">
        <ele>266.42</ele>
        <time>2012-06-17T16:08:41Z</time>
      </trkpt>
      <trkpt lat="48.61846" lon="6.0359">
        <ele>265.46</ele>
        <time>2012-06-17T16:08:48Z</time>
      </trkpt>
      <trkpt lat="48.61861" lon="6.03612">
        <ele>263.06</ele>
        <time>2012-06-17T16:09:04Z</time>
      </trkpt>
      <trkpt lat="48.61876" lon="6.03628">
        <ele>261.62</ele>
        <time>2012-06-17T16:09:19Z</time>
      </trkpt>
      <trkpt lat="48.61885" lon="6.03633">
        <ele>259.21</ele>
        <time>2012-06-17T16:09:35Z</time>
      </trkpt>
      <trkpt lat="48.61891" lon="6.03636">
        <ele>256.33</ele>
        <time>2012-06-17T16:09:45Z</time>
      </trkpt>
      <trkpt lat="48.61901" lon="6.03652">
        <ele>255.37</ele>
        <time>2012-06-17T16:10:02Z</time>
      </trkpt>
      <trkpt lat="48.61906" lon="6.03666">
        <ele>252</ele>
        <time>2012-06-17T16:10:14Z</time>
      </trkpt>
      <trkpt lat="48.61907" lon="6.03687">
        <ele>248.64</ele>
        <time>2012-06-17T16:10:30Z</time>
      </trkpt>
      <trkpt lat="48.61915" lon="6.03701">
        <ele>247.2</ele>
        <time>2012-06-17T16:10:44Z</time>
      </trkpt>
      <trkpt lat="48.61929" lon="6.03731">
        <ele>245.75</ele>
        <time>2012-06-17T16:10:58Z</time>
      </trkpt>
      <trkpt lat="48.61934" lon="6.03738">
        <ele>243.83</ele>
        <time>2012-06-17T16:11:03Z</time>
      </trkpt>
      <trkpt lat="48.61936" lon="6.03745">
        <ele>243.35</ele>
        <time>2012-06-17T16:11:07Z</time>
      </trkpt>
      <trkpt lat="48.61937" lon="6.03746">
        <ele>243.35</ele>
        <time>2012-06-17T16:11:08Z</time>
      </trkpt>
      <trkpt lat="48.61938" lon="6.03748">
        <ele>243.83</ele>
        <time>2012-06-17T16:11:10Z</time>
      </trkpt>
      <trkpt lat="48.61946" lon="6.03763">
        <ele>242.39</ele>
        <time>2012-06-17T16:11:23Z</time>
      </trkpt>
      <trkpt lat="48.61954" lon="6.03779">
        <ele>240.47</ele>
        <time>2012-06-17T16:11:36Z</time>
      </trkpt>
      <trkpt lat="48.61957" lon="6.03784">
        <ele>241.91</ele>
        <time>2012-06-17T16:11:40Z</time>
      </trkpt>
      <trkpt lat="48.61962" lon="6.03788">
        <ele>240.47</ele>
        <time>2012-06-17T16:11:46Z</time>
      </trkpt>
      <trkpt lat="48.61965" lon="6.03792">
        <ele>241.91</ele>
        <time>2012-06-17T16:11:50Z</time>
      </trkpt>
      <trkpt lat="48.61968" lon="6.03794">
        <ele>238.54</ele>
        <time>2012-06-17T16:11:54Z</time>
      </trkpt>
      <trkpt lat="48.61979" lon="6.03808">
        <ele>242.39</ele>
        <time>2012-06-17T16:12:07Z</time>
      </trkpt>
      <trkpt lat="48.6198" lon="6.03809">
        <ele>241.91</ele>
        <time>2012-06-17T16:12:13Z</time>
      </trkpt>
      <trkpt lat="48.61982" lon="6.03818">
        <ele>240.95</ele>
        <time>2012-06-17T16:12:17Z</time>
      </trkpt>
      <trkpt lat="48.61985" lon="6.03822">
        <ele>240.47</ele>
        <time>2012-06-17T16:12:22Z</time>
      </trkpt>
      <trkpt lat="48.61987" lon="6.03825">
        <ele>242.87</ele>
        <time>2012-06-17T16:12:24Z</time>
      </trkpt>
      <trkpt lat="48.61994" lon="6.03836">
        <ele>240.95</ele>
        <time>2012-06-17T16:12:33Z</time>
      </trkpt>
      <trkpt lat="48.61996" lon="6.0384">
        <ele>243.35</ele>
        <time>2012-06-17T16:12:36Z</time>
      </trkpt>
      <trkpt lat="48.62004" lon="6.03852">
        <ele>240.95</ele>
        <time>2012-06-17T16:12:44Z</time>
      </trkpt>
      <trkpt lat="48.62005" lon="6.03854">
        <ele>244.31</ele>
        <time>2012-06-17T16:12:46Z</time>
      </trkpt>
      <trkpt lat="48.62009" lon="6.03859">
        <ele>240.95</ele>
        <time>2012-06-17T16:12:49Z</time>
      </trkpt>
      <trkpt lat="48.6201" lon="6.03861">
        <ele>245.27</ele>
        <time>2012-06-17T16:12:50Z</time>
      </trkpt>
      <trkpt lat="48.62011" lon="6.03863">
        <ele>241.43</ele>
        <time>2012-06-17T16:12:52Z</time>
      </trkpt>
      <trkpt lat="48.62012" lon="6.03867">
        <ele>244.31</ele>
        <time>2012-06-17T16:12:54Z</time>
      </trkpt>
      <trkpt lat="48.62011" lon="6.03875">
        <ele>245.27</ele>
        <time>2012-06-17T16:12:59Z</time>
      </trkpt>
      <trkpt lat="48.6201" lon="6.03878">
        <ele>245.75</ele>
        <time>2012-06-17T16:13:01Z</time>
      </trkpt>
      <trkpt lat="48.62006" lon="6.03889">
        <ele>244.79</ele>
        <time>2012-06-17T16:13:08Z</time>
      </trkpt>
      <trkpt lat="48.62004" lon="6.03893">
        <ele>246.23</ele>
        <time>2012-06-17T16:13:10Z</time>
      </trkpt>
      <trkpt lat="48.62003" lon="6.03897">
        <ele>246.72</ele>
        <time>2012-06-17T16:13:12Z</time>
      </trkpt>
      <trkpt lat="48.61994" lon="6.03912">
        <ele>246.23</ele>
        <time>2012-06-17T16:13:21Z</time>
      </trkpt>
      <trkpt lat="48.61986" lon="6.03921">
        <ele>245.27</ele>
        <time>2012-06-17T16:13:29Z</time>
      </trkpt>
      <trkpt lat="48.61974" lon="6.03936">
        <ele>245.27</ele>
        <time>2012-06-17T16:13:41Z</time>
      </trkpt>
      <trkpt lat="48.61972" lon="6.03941">
        <ele>247.2</ele>
        <time>2012-06-17T16:13:44Z</time>
      </trkpt>
      <trkpt lat="48.61953" lon="6.03964">
        <ele>247.68</ele>
        <time>2012-06-17T16:14:03Z</time>
      </trkpt>
      <trkpt lat="48.61946" lon="6.03972">
        <ele>248.16</ele>
        <time>2012-06-17T16:14:11Z</time>
      </trkpt>
      <trkpt lat="48.61942" lon="6.0398">
        <ele>247.68</ele>
        <time>2012-06-17T16:14:19Z</time>
      </trkpt>
      <trkpt lat="48.61925" lon="6.03999">
        <ele>248.64</ele>
        <time>2012-06-17T16:14:34Z</time>
      </trkpt>
      <trkpt lat="48.61918" lon="6.0401">
        <ele>248.16</ele>
        <time>2012-06-17T16:14:41Z</time>
      </trkpt>
      <trkpt lat="48.61916" lon="6.04012">
        <ele>250.56</ele>
        <time>2012-06-17T16:14:44Z</time>
      </trkpt>
      <trkpt lat="48.61915" lon="6.04014">
        <ele>249.12</ele>
        <time>2012-06-17T16:14:46Z</time>
      </trkpt>
      <trkpt lat="48.61912" lon="6.04019">
        <ele>250.08</ele>
        <time>2012-06-17T16:14:50Z</time>
      </trkpt>
      <trkpt lat="48.61901" lon="6.04037">
        <ele>249.12</ele>
        <time>2012-06-17T16:15:03Z</time>
      </trkpt>
      <trkpt lat="48.61901" lon="6.04038">
        <ele>250.56</ele>
        <time>2012-06-17T16:15:05Z</time>
      </trkpt>
      <trkpt lat="48.61899" lon="6.0405">
        <ele>252</ele>
        <time>2012-06-17T16:15:12Z</time>
      </trkpt>
      <trkpt lat="48.61898" lon="6.04057">
        <ele>251.04</ele>
        <time>2012-06-17T16:15:16Z</time>
      </trkpt>
      <trkpt lat="48.61896" lon="6.04061">
        <ele>250.08</ele>
        <time>2012-06-17T16:15:18Z</time>
      </trkpt>
      <trkpt lat="48.61894" lon="6.04069">
        <ele>250.08</ele>
        <time>2012-06-17T16:15:23Z</time>
      </trkpt>
      <trkpt lat="48.61893" lon="6.04072">
        <ele>249.6</ele>
        <time>2012-06-17T16:15:25Z</time>
      </trkpt>
      <trkpt lat="48.61893" lon="6.04089">
        <ele>251.04</ele>
        <time>2012-06-17T16:15:33Z</time>
      </trkpt>
      <trkpt lat="48.61888" lon="6.04115">
        <ele>249.6</ele>
        <time>2012-06-17T16:15:47Z</time>
      </trkpt>
      <trkpt lat="48.61888" lon="6.04116">
        <ele>249.12</ele>
        <time>2012-06-17T16:15:48Z</time>
      </trkpt>
      <trkpt lat="48.6189" lon="6.04143">
        <ele>249.12</ele>
        <time>2012-06-17T16:16:00Z</time>
      </trkpt>
      <trkpt lat="48.61886" lon="6.04151">
        <ele>248.16</ele>
        <time>2012-06-17T16:16:04Z</time>
      </trkpt>
      <trkpt lat="48.61886" lon="6.04174">
        <ele>247.2</ele>
        <time>2012-06-17T16:16:17Z</time>
      </trkpt>
      <trkpt lat="48.61889" lon="6.04193">
        <ele>245.27</ele>
        <time>2012-06-17T16:16:30Z</time>
      </trkpt>
      <trkpt lat="48.61889" lon="6.04196">
        <ele>244.79</ele>
        <time>2012-06-17T16:16:32Z</time>
      </trkpt>
      <trkpt lat="48.61891" lon="6.04208">
        <ele>244.79</ele>
        <time>2012-06-17T16:16:38Z</time>
      </trkpt>
      <trkpt lat="48.61896" lon="6.04224">
        <ele>242.87</ele>
        <time>2012-06-17T16:16:47Z</time>
      </trkpt>
      <trkpt lat="48.61898" lon="6.04228">
        <ele>243.83</ele>
        <time>2012-06-17T16:16:51Z</time>
      </trkpt>
      <trkpt lat="48.61902" lon="6.04247">
        <ele>241.43</ele>
        <time>2012-06-17T16:17:02Z</time>
      </trkpt>
      <trkpt lat="48.61902" lon="6.04249">
        <ele>241.91</ele>
        <time>2012-06-17T16:17:04Z</time>
      </trkpt>
      <trkpt lat="48.61904" lon="6.04254">
        <ele>241.43</ele>
        <time>2012-06-17T16:17:07Z</time>
      </trkpt>
      <trkpt lat="48.61915" lon="6.04274">
        <ele>239.99</ele>
        <time>2012-06-17T16:17:20Z</time>
      </trkpt>
      <trkpt lat="48.61926" lon="6.04295">
        <ele>240.47</ele>
        <time>2012-06-17T16:17:33Z</time>
      </trkpt>
      <trkpt lat="48.61928" lon="6.043">
        <ele>239.51</ele>
        <time>2012-06-17T16:17:39Z</time>
      </trkpt>
      <trkpt lat="48.61941" lon="6.04322">
        <ele>238.06</ele>
        <time>2012-06-17T16:17:52Z</time>
      </trkpt>
      <trkpt lat="48.61942" lon="6.04325">
        <ele>237.58</ele>
        <time>2012-06-17T16:17:55Z</time>
      </trkpt>
      <trkpt lat="48.61944" lon="6.04331">
        <ele>238.06</ele>
        <time>2012-06-17T16:17:59Z</time>
      </trkpt>
      <trkpt lat="48.61953" lon="6.04348">
        <ele>236.14</ele>
        <time>2012-06-17T16:18:10Z</time>
      </trkpt>
      <trkpt lat="48.61957" lon="6.04357">
        <ele>236.14</ele>
        <time>2012-06-17T16:18:17Z</time>
      </trkpt>
      <trkpt lat="48.61964" lon="6.04371">
        <ele>234.22</ele>
        <time>2012-06-17T16:18:27Z</time>
      </trkpt>
      <trkpt lat="48.61965" lon="6.04375">
        <ele>234.7</ele>
        <time>2012-06-17T16:18:30Z</time>
      </trkpt>
      <trkpt lat="48.6197" lon="6.04382">
        <ele>234.22</ele>
        <time>2012-06-17T16:18:34Z</time>
      </trkpt>
      <trkpt lat="48.61975" lon="6.0439">
        <ele>233.74</ele>
        <time>2012-06-17T16:18:42Z</time>
      </trkpt>
      <trkpt lat="48.61981" lon="6.04403">
        <ele>232.78</ele>
        <time>2012-06-17T16:18:54Z</time>
      </trkpt>
      <trkpt lat="48.61981" lon="6.04404">
        <ele>232.78</ele>
        <time>2012-06-17T16:18:56Z</time>
      </trkpt>
      <trkpt lat="48.61991" lon="6.04417">
        <ele>232.78</ele>
        <time>2012-06-17T16:19:10Z</time>
      </trkpt>
      <trkpt lat="48.61999" lon="6.04427">
        <ele>232.78</ele>
        <time>2012-06-17T16:19:22Z</time>
      </trkpt>
      <trkpt lat="48.62001" lon="6.04432">
        <ele>231.33</ele>
        <time>2012-06-17T16:19:25Z</time>
      </trkpt>
      <trkpt lat="48.62003" lon="6.04435">
        <ele>232.3</ele>
        <time>2012-06-17T16:19:27Z</time>
      </trkpt>
      <trkpt lat="48.62006" lon="6.04443">
        <ele>232.3</ele>
        <time>2012-06-17T16:19:31Z</time>
      </trkpt>
      <trkpt lat="48.62012" lon="6.04456">
        <ele>231.33</ele>
        <time>2012-06-17T16:19:40Z</time>
      </trkpt>
      <trkpt lat="48.62014" lon="6.04458">
        <ele>231.33</ele>
        <time>2012-06-17T16:19:42Z</time>
      </trkpt>
      <trkpt lat="48.62021" lon="6.04479">
        <ele>230.37</ele>
        <time>2012-06-17T16:19:54Z</time>
      </trkpt>
      <trkpt lat="48.62023" lon="6.04485">
        <ele>227.97</ele>
        <time>2012-06-17T16:19:58Z</time>
      </trkpt>
      <trkpt lat="48.62024" lon="6.04486">
        <ele>232.3</ele>
        <time>2012-06-17T16:19:59Z</time>
      </trkpt>
      <trkpt lat="48.62024" lon="6.04488">
        <ele>229.41</ele>
        <time>2012-06-17T16:20:00Z</time>
      </trkpt>
      <trkpt lat="48.62025" lon="6.04496">
        <ele>231.81</ele>
        <time>2012-06-17T16:20:05Z</time>
      </trkpt>
      <trkpt lat="48.62025" lon="6.04499">
        <ele>233.74</ele>
        <time>2012-06-17T16:20:07Z</time>
      </trkpt>
      <trkpt lat="48.62026" lon="6.04505">
        <ele>229.41</ele>
        <time>2012-06-17T16:20:10Z</time>
      </trkpt>
      <trkpt lat="48.62026" lon="6.04506">
        <ele>233.26</ele>
        <time>2012-06-17T16:20:11Z</time>
      </trkpt>
      <trkpt lat="48.62028" lon="6.04509">
        <ele>229.41</ele>
        <time>2012-06-17T16:20:14Z</time>
      </trkpt>
      <trkpt lat="48.62035" lon="6.04509">
        <ele>232.3</ele>
        <time>2012-06-17T16:20:23Z</time>
      </trkpt>
      <trkpt lat="48.62037" lon="6.04508">
        <ele>228.45</ele>
        <time>2012-06-17T16:20:27Z</time>
      </trkpt>
      <trkpt lat="48.62038" lon="6.04507">
        <ele>232.3</ele>
        <time>2012-06-17T16:20:28Z</time>
      </trkpt>
      <trkpt lat="48.62041" lon="6.04506">
        <ele>226.05</ele>
        <time>2012-06-17T16:20:31Z</time>
      </trkpt>
      <trkpt lat="48.62041" lon="6.04506">
        <ele>231.81</ele>
        <time>2012-06-17T16:20:32Z</time>
      </trkpt>
      <trkpt lat="48.62043" lon="6.04506">
        <ele>226.53</ele>
        <time>2012-06-17T16:20:39Z</time>
      </trkpt>
      <trkpt lat="48.62043" lon="6.04506">
        <ele>230.37</ele>
        <time>2012-06-17T16:20:40Z</time>
      </trkpt>
      <trkpt lat="48.62049" lon="6.04506">
        <ele>228.93</ele>
        <time>2012-06-17T16:20:51Z</time>
      </trkpt>
      <trkpt lat="48.62068" lon="6.04513">
        <ele>228.93</ele>
        <time>2012-06-17T16:21:03Z</time>
      </trkpt>
      <trkpt lat="48.62072" lon="6.04513">
        <ele>229.41</ele>
        <time>2012-06-17T16:21:08Z</time>
      </trkpt>
      <trkpt lat="48.62073" lon="6.04512">
        <ele>229.41</ele>
        <time>2012-06-17T16:21:09Z</time>
      </trkpt>
      <trkpt lat="48.62081" lon="6.04527">
        <ele>225.09</ele>
        <time>2012-06-17T16:21:22Z</time>
      </trkpt>
      <trkpt lat="48.62081" lon="6.04527">
        <ele>228.45</ele>
        <time>2012-06-17T16:21:24Z</time>
      </trkpt>
      <trkpt lat="48.62081" lon="6.04527">
        <ele>229.89</ele>
        <time>2012-06-17T16:21:25Z</time>
      </trkpt>
      <trkpt lat="48.62095" lon="6.0455">
        <ele>227.97</ele>
        <time>2012-06-17T16:21:38Z</time>
      </trkpt>
      <trkpt lat="48.62109" lon="6.04571">
        <ele>226.53</ele>
        <time>2012-06-17T16:21:54Z</time>
      </trkpt>
    </trkseg>
  </trk>
</gpx>